<?xml version="1.0" encoding="UTF-8" standalone="no" ?>
<gpx xmlns="http://www.topografix.com/GPX/1/1" xmlns:xsi="http://www.w3.org/2001/XMLSchema-instance" xsi:schemaLocation="http://www.topografix.com/GPX/1/1 http://www.topografix.com/GPX/1/1/gpx.xsd" version="1.1" creator="VisuGPX - https://www.visugpx.com">
  <metadata>
    <name>RSPG Rabou chabanottes Rabou</name>
    <desc><![CDATA[Au départ de Rabou prendre le sentier nord qui mène vers Berthaud puis prendre le sentier  pas très bien repéré qui contourne le pic Melette pour arriver au col de Chabanottes. Retour vers rabou par le vallon de la rivière]]></desc>
  </metadata>
  <trk>
    <name><![CDATA[Rabou chabanottes rabou: 28 SEPT 2015 09:34]]></name>
    <trkseg>
      <trkpt lat="44.59597" lon="6.00741">
        <ele>1196.98</ele>
        <time>2015-09-28T07:34:07Z</time>
      </trkpt>
      <trkpt lat="44.59598" lon="6.00741">
        <ele>1196.98</ele>
        <time>2015-09-28T07:34:08Z</time>
      </trkpt>
      <trkpt lat="44.59598" lon="6.00742">
        <ele>1196.98</ele>
        <time>2015-09-28T07:34:09Z</time>
      </trkpt>
      <trkpt lat="44.59611" lon="6.00746">
        <ele>1197.46</ele>
        <time>2015-09-28T07:34:21Z</time>
      </trkpt>
      <trkpt lat="44.59627" lon="6.00744">
        <ele>1200.34</ele>
        <time>2015-09-28T07:34:36Z</time>
      </trkpt>
      <trkpt lat="44.59629" lon="6.00744">
        <ele>1200.82</ele>
        <time>2015-09-28T07:34:39Z</time>
      </trkpt>
      <trkpt lat="44.59635" lon="6.00743">
        <ele>1201.79</ele>
        <time>2015-09-28T07:34:44Z</time>
      </trkpt>
      <trkpt lat="44.59637" lon="6.00742">
        <ele>1201.79</ele>
        <time>2015-09-28T07:34:46Z</time>
      </trkpt>
      <trkpt lat="44.59643" lon="6.00732">
        <ele>1202.75</ele>
        <time>2015-09-28T07:34:53Z</time>
      </trkpt>
      <trkpt lat="44.5966" lon="6.00709">
        <ele>1202.27</ele>
        <time>2015-09-28T07:35:12Z</time>
      </trkpt>
      <trkpt lat="44.59674" lon="6.00692">
        <ele>1201.79</ele>
        <time>2015-09-28T07:35:28Z</time>
      </trkpt>
      <trkpt lat="44.59679" lon="6.00686">
        <ele>1201.79</ele>
        <time>2015-09-28T07:35:35Z</time>
      </trkpt>
      <trkpt lat="44.59697" lon="6.00674">
        <ele>1201.79</ele>
        <time>2015-09-28T07:35:52Z</time>
      </trkpt>
      <trkpt lat="44.5971" lon="6.00665">
        <ele>1201.79</ele>
        <time>2015-09-28T07:36:05Z</time>
      </trkpt>
      <trkpt lat="44.59725" lon="6.00653">
        <ele>1199.86</ele>
        <time>2015-09-28T07:36:23Z</time>
      </trkpt>
      <trkpt lat="44.59732" lon="6.00645">
        <ele>1198.42</ele>
        <time>2015-09-28T07:36:32Z</time>
      </trkpt>
      <trkpt lat="44.5975" lon="6.00631">
        <ele>1195.54</ele>
        <time>2015-09-28T07:36:50Z</time>
      </trkpt>
      <trkpt lat="44.59767" lon="6.00627">
        <ele>1194.58</ele>
        <time>2015-09-28T07:37:04Z</time>
      </trkpt>
      <trkpt lat="44.59785" lon="6.00619">
        <ele>1193.61</ele>
        <time>2015-09-28T07:37:21Z</time>
      </trkpt>
      <trkpt lat="44.59787" lon="6.0061">
        <ele>1192.17</ele>
        <time>2015-09-28T07:37:31Z</time>
      </trkpt>
      <trkpt lat="44.59789" lon="6.00582">
        <ele>1191.21</ele>
        <time>2015-09-28T07:37:49Z</time>
      </trkpt>
      <trkpt lat="44.59789" lon="6.00573">
        <ele>1190.73</ele>
        <time>2015-09-28T07:37:57Z</time>
      </trkpt>
      <trkpt lat="44.598" lon="6.00548">
        <ele>1191.21</ele>
        <time>2015-09-28T07:38:15Z</time>
      </trkpt>
      <trkpt lat="44.59811" lon="6.00538">
        <ele>1193.61</ele>
        <time>2015-09-28T07:38:31Z</time>
      </trkpt>
      <trkpt lat="44.59822" lon="6.00533">
        <ele>1195.54</ele>
        <time>2015-09-28T07:38:44Z</time>
      </trkpt>
      <trkpt lat="44.59826" lon="6.00529">
        <ele>1195.54</ele>
        <time>2015-09-28T07:38:48Z</time>
      </trkpt>
      <trkpt lat="44.59841" lon="6.00519">
        <ele>1197.46</ele>
        <time>2015-09-28T07:39:06Z</time>
      </trkpt>
      <trkpt lat="44.59848" lon="6.00511">
        <ele>1198.9</ele>
        <time>2015-09-28T07:39:16Z</time>
      </trkpt>
      <trkpt lat="44.59859" lon="6.00507">
        <ele>1198.9</ele>
        <time>2015-09-28T07:39:27Z</time>
      </trkpt>
      <trkpt lat="44.59875" lon="6.00501">
        <ele>1198.42</ele>
        <time>2015-09-28T07:39:43Z</time>
      </trkpt>
      <trkpt lat="44.59876" lon="6.00501">
        <ele>1198.42</ele>
        <time>2015-09-28T07:39:44Z</time>
      </trkpt>
      <trkpt lat="44.59892" lon="6.00499">
        <ele>1197.94</ele>
        <time>2015-09-28T07:40:00Z</time>
      </trkpt>
      <trkpt lat="44.59893" lon="6.00499">
        <ele>1197.94</ele>
        <time>2015-09-28T07:40:01Z</time>
      </trkpt>
      <trkpt lat="44.59896" lon="6.00497">
        <ele>1196.98</ele>
        <time>2015-09-28T07:40:04Z</time>
      </trkpt>
      <trkpt lat="44.59911" lon="6.00501">
        <ele>1197.46</ele>
        <time>2015-09-28T07:40:20Z</time>
      </trkpt>
      <trkpt lat="44.5992" lon="6.00507">
        <ele>1198.9</ele>
        <time>2015-09-28T07:40:32Z</time>
      </trkpt>
      <trkpt lat="44.59929" lon="6.00513">
        <ele>1200.34</ele>
        <time>2015-09-28T07:40:44Z</time>
      </trkpt>
      <trkpt lat="44.59934" lon="6.00519">
        <ele>1201.3</ele>
        <time>2015-09-28T07:40:50Z</time>
      </trkpt>
      <trkpt lat="44.59942" lon="6.00517">
        <ele>1201.79</ele>
        <time>2015-09-28T07:40:58Z</time>
      </trkpt>
      <trkpt lat="44.59954" lon="6.00508">
        <ele>1202.75</ele>
        <time>2015-09-28T07:41:13Z</time>
      </trkpt>
      <trkpt lat="44.59957" lon="6.005">
        <ele>1203.23</ele>
        <time>2015-09-28T07:41:20Z</time>
      </trkpt>
      <trkpt lat="44.59957" lon="6.00497">
        <ele>1203.23</ele>
        <time>2015-09-28T07:41:22Z</time>
      </trkpt>
      <trkpt lat="44.59958" lon="6.00485">
        <ele>1203.71</ele>
        <time>2015-09-28T07:41:32Z</time>
      </trkpt>
      <trkpt lat="44.59958" lon="6.00474">
        <ele>1204.19</ele>
        <time>2015-09-28T07:41:40Z</time>
      </trkpt>
      <trkpt lat="44.59961" lon="6.00464">
        <ele>1205.15</ele>
        <time>2015-09-28T07:41:50Z</time>
      </trkpt>
      <trkpt lat="44.59967" lon="6.00454">
        <ele>1207.55</ele>
        <time>2015-09-28T07:42:02Z</time>
      </trkpt>
      <trkpt lat="44.5997" lon="6.00443">
        <ele>1209.96</ele>
        <time>2015-09-28T07:42:14Z</time>
      </trkpt>
      <trkpt lat="44.59971" lon="6.00442">
        <ele>1209.96</ele>
        <time>2015-09-28T07:42:15Z</time>
      </trkpt>
      <trkpt lat="44.59976" lon="6.00428">
        <ele>1211.88</ele>
        <time>2015-09-28T07:42:28Z</time>
      </trkpt>
      <trkpt lat="44.59978" lon="6.00423">
        <ele>1212.36</ele>
        <time>2015-09-28T07:42:41Z</time>
      </trkpt>
      <trkpt lat="44.59983" lon="6.00415">
        <ele>1213.32</ele>
        <time>2015-09-28T07:42:53Z</time>
      </trkpt>
      <trkpt lat="44.59991" lon="6.00403">
        <ele>1214.76</ele>
        <time>2015-09-28T07:43:07Z</time>
      </trkpt>
      <trkpt lat="44.59995" lon="6.00397">
        <ele>1216.21</ele>
        <time>2015-09-28T07:43:15Z</time>
      </trkpt>
      <trkpt lat="44.59997" lon="6.00396">
        <ele>1216.21</ele>
        <time>2015-09-28T07:43:17Z</time>
      </trkpt>
      <trkpt lat="44.60003" lon="6.00391">
        <ele>1217.65</ele>
        <time>2015-09-28T07:43:26Z</time>
      </trkpt>
      <trkpt lat="44.60016" lon="6.00392">
        <ele>1219.57</ele>
        <time>2015-09-28T07:43:41Z</time>
      </trkpt>
      <trkpt lat="44.60025" lon="6.00393">
        <ele>1221.97</ele>
        <time>2015-09-28T07:43:53Z</time>
      </trkpt>
      <trkpt lat="44.60034" lon="6.00394">
        <ele>1223.9</ele>
        <time>2015-09-28T07:44:06Z</time>
      </trkpt>
      <trkpt lat="44.60044" lon="6.00393">
        <ele>1225.82</ele>
        <time>2015-09-28T07:44:17Z</time>
      </trkpt>
      <trkpt lat="44.60055" lon="6.00397">
        <ele>1227.26</ele>
        <time>2015-09-28T07:44:33Z</time>
      </trkpt>
      <trkpt lat="44.60054" lon="6.00389">
        <ele>1227.74</ele>
        <time>2015-09-28T07:44:44Z</time>
      </trkpt>
      <trkpt lat="44.60053" lon="6.00388">
        <ele>1227.74</ele>
        <time>2015-09-28T07:44:45Z</time>
      </trkpt>
      <trkpt lat="44.6005" lon="6.00372">
        <ele>1227.74</ele>
        <time>2015-09-28T07:44:56Z</time>
      </trkpt>
      <trkpt lat="44.60052" lon="6.00364">
        <ele>1228.22</ele>
        <time>2015-09-28T07:45:01Z</time>
      </trkpt>
      <trkpt lat="44.60053" lon="6.00361">
        <ele>1228.22</ele>
        <time>2015-09-28T07:45:03Z</time>
      </trkpt>
      <trkpt lat="44.60055" lon="6.00358">
        <ele>1228.22</ele>
        <time>2015-09-28T07:45:06Z</time>
      </trkpt>
      <trkpt lat="44.60064" lon="6.00346">
        <ele>1229.18</ele>
        <time>2015-09-28T07:45:18Z</time>
      </trkpt>
      <trkpt lat="44.6007" lon="6.0033">
        <ele>1229.66</ele>
        <time>2015-09-28T07:45:30Z</time>
      </trkpt>
      <trkpt lat="44.60076" lon="6.00318">
        <ele>1231.59</ele>
        <time>2015-09-28T07:45:43Z</time>
      </trkpt>
      <trkpt lat="44.60079" lon="6.00305">
        <ele>1233.03</ele>
        <time>2015-09-28T07:45:56Z</time>
      </trkpt>
      <trkpt lat="44.60084" lon="6.00289">
        <ele>1234.95</ele>
        <time>2015-09-28T07:46:12Z</time>
      </trkpt>
      <trkpt lat="44.60086" lon="6.0028">
        <ele>1235.91</ele>
        <time>2015-09-28T07:46:23Z</time>
      </trkpt>
      <trkpt lat="44.60086" lon="6.00281">
        <ele>1235.43</ele>
        <time>2015-09-28T07:46:36Z</time>
      </trkpt>
      <trkpt lat="44.60085" lon="6.0028">
        <ele>1235.43</ele>
        <time>2015-09-28T07:46:54Z</time>
      </trkpt>
      <trkpt lat="44.60085" lon="6.00279">
        <ele>1235.91</ele>
        <time>2015-09-28T07:47:11Z</time>
      </trkpt>
      <trkpt lat="44.60085" lon="6.00278">
        <ele>1236.39</ele>
        <time>2015-09-28T07:47:22Z</time>
      </trkpt>
      <trkpt lat="44.60085" lon="6.00279">
        <ele>1235.91</ele>
        <time>2015-09-28T07:47:41Z</time>
      </trkpt>
      <trkpt lat="44.60085" lon="6.00278">
        <ele>1235.91</ele>
        <time>2015-09-28T07:48:03Z</time>
      </trkpt>
      <trkpt lat="44.60085" lon="6.00277">
        <ele>1236.39</ele>
        <time>2015-09-28T07:48:27Z</time>
      </trkpt>
      <trkpt lat="44.60086" lon="6.00278">
        <ele>1236.39</ele>
        <time>2015-09-28T07:48:54Z</time>
      </trkpt>
      <trkpt lat="44.60087" lon="6.00278">
        <ele>1236.39</ele>
        <time>2015-09-28T07:49:18Z</time>
      </trkpt>
      <trkpt lat="44.60086" lon="6.00277">
        <ele>1236.39</ele>
        <time>2015-09-28T07:49:52Z</time>
      </trkpt>
      <trkpt lat="44.60087" lon="6.00278">
        <ele>1238.8</ele>
        <time>2015-09-28T07:49:59Z</time>
      </trkpt>
      <trkpt lat="44.60087" lon="6.00277">
        <ele>1236.39</ele>
        <time>2015-09-28T07:50:03Z</time>
      </trkpt>
      <trkpt lat="44.6009" lon="6.00263">
        <ele>1237.35</ele>
        <time>2015-09-28T07:50:12Z</time>
      </trkpt>
      <trkpt lat="44.60099" lon="6.00235">
        <ele>1238.32</ele>
        <time>2015-09-28T07:50:28Z</time>
      </trkpt>
      <trkpt lat="44.60108" lon="6.00218">
        <ele>1239.76</ele>
        <time>2015-09-28T07:50:41Z</time>
      </trkpt>
      <trkpt lat="44.60119" lon="6.00204">
        <ele>1241.68</ele>
        <time>2015-09-28T07:50:55Z</time>
      </trkpt>
      <trkpt lat="44.60126" lon="6.00196">
        <ele>1243.12</ele>
        <time>2015-09-28T07:51:06Z</time>
      </trkpt>
      <trkpt lat="44.60134" lon="6.00185">
        <ele>1245.04</ele>
        <time>2015-09-28T07:51:19Z</time>
      </trkpt>
      <trkpt lat="44.60143" lon="6.00176">
        <ele>1248.41</ele>
        <time>2015-09-28T07:51:34Z</time>
      </trkpt>
      <trkpt lat="44.60148" lon="6.00174">
        <ele>1248.41</ele>
        <time>2015-09-28T07:51:42Z</time>
      </trkpt>
      <trkpt lat="44.6016" lon="6.00168">
        <ele>1250.33</ele>
        <time>2015-09-28T07:51:56Z</time>
      </trkpt>
      <trkpt lat="44.60169" lon="6.00161">
        <ele>1251.77</ele>
        <time>2015-09-28T07:52:08Z</time>
      </trkpt>
      <trkpt lat="44.60179" lon="6.00151">
        <ele>1253.22</ele>
        <time>2015-09-28T07:52:22Z</time>
      </trkpt>
      <trkpt lat="44.6019" lon="6.00144">
        <ele>1254.66</ele>
        <time>2015-09-28T07:52:36Z</time>
      </trkpt>
      <trkpt lat="44.60192" lon="6.00143">
        <ele>1254.66</ele>
        <time>2015-09-28T07:52:38Z</time>
      </trkpt>
      <trkpt lat="44.60207" lon="6.00127">
        <ele>1254.66</ele>
        <time>2015-09-28T07:52:56Z</time>
      </trkpt>
      <trkpt lat="44.60209" lon="6.00125">
        <ele>1255.14</ele>
        <time>2015-09-28T07:52:58Z</time>
      </trkpt>
      <trkpt lat="44.60222" lon="6.00117">
        <ele>1256.1</ele>
        <time>2015-09-28T07:53:13Z</time>
      </trkpt>
      <trkpt lat="44.60236" lon="6.00112">
        <ele>1255.14</ele>
        <time>2015-09-28T07:53:28Z</time>
      </trkpt>
      <trkpt lat="44.60243" lon="6.00113">
        <ele>1256.58</ele>
        <time>2015-09-28T07:53:35Z</time>
      </trkpt>
      <trkpt lat="44.60251" lon="6.0011">
        <ele>1255.62</ele>
        <time>2015-09-28T07:53:43Z</time>
      </trkpt>
      <trkpt lat="44.60261" lon="6.00103">
        <ele>1257.06</ele>
        <time>2015-09-28T07:53:55Z</time>
      </trkpt>
      <trkpt lat="44.60275" lon="6.00088">
        <ele>1258.02</ele>
        <time>2015-09-28T07:54:12Z</time>
      </trkpt>
      <trkpt lat="44.60278" lon="6.00085">
        <ele>1258.5</ele>
        <time>2015-09-28T07:54:17Z</time>
      </trkpt>
      <trkpt lat="44.60286" lon="6.00071">
        <ele>1258.5</ele>
        <time>2015-09-28T07:54:30Z</time>
      </trkpt>
      <trkpt lat="44.60294" lon="6.00063">
        <ele>1259.94</ele>
        <time>2015-09-28T07:54:43Z</time>
      </trkpt>
      <trkpt lat="44.60303" lon="6.00057">
        <ele>1261.87</ele>
        <time>2015-09-28T07:54:55Z</time>
      </trkpt>
      <trkpt lat="44.60306" lon="6.00056">
        <ele>1262.83</ele>
        <time>2015-09-28T07:54:59Z</time>
      </trkpt>
      <trkpt lat="44.60315" lon="6.00048">
        <ele>1264.75</ele>
        <time>2015-09-28T07:55:13Z</time>
      </trkpt>
      <trkpt lat="44.60326" lon="6.00039">
        <ele>1265.71</ele>
        <time>2015-09-28T07:55:26Z</time>
      </trkpt>
      <trkpt lat="44.60338" lon="6.00033">
        <ele>1267.16</ele>
        <time>2015-09-28T07:55:40Z</time>
      </trkpt>
      <trkpt lat="44.60352" lon="6.00031">
        <ele>1269.08</ele>
        <time>2015-09-28T07:55:57Z</time>
      </trkpt>
      <trkpt lat="44.60366" lon="6.00032">
        <ele>1271</ele>
        <time>2015-09-28T07:56:12Z</time>
      </trkpt>
      <trkpt lat="44.60378" lon="6.00036">
        <ele>1271.48</ele>
        <time>2015-09-28T07:56:24Z</time>
      </trkpt>
      <trkpt lat="44.60383" lon="6.00037">
        <ele>1271.96</ele>
        <time>2015-09-28T07:56:30Z</time>
      </trkpt>
      <trkpt lat="44.60398" lon="6.0004">
        <ele>1272.92</ele>
        <time>2015-09-28T07:56:44Z</time>
      </trkpt>
      <trkpt lat="44.60411" lon="6.00045">
        <ele>1273.88</ele>
        <time>2015-09-28T07:56:58Z</time>
      </trkpt>
      <trkpt lat="44.6042" lon="6.00051">
        <ele>1275.81</ele>
        <time>2015-09-28T07:57:10Z</time>
      </trkpt>
      <trkpt lat="44.60424" lon="6.0005">
        <ele>1275.81</ele>
        <time>2015-09-28T07:57:14Z</time>
      </trkpt>
      <trkpt lat="44.60426" lon="6.00046">
        <ele>1275.81</ele>
        <time>2015-09-28T07:57:18Z</time>
      </trkpt>
      <trkpt lat="44.60425" lon="6.00038">
        <ele>1276.29</ele>
        <time>2015-09-28T07:57:24Z</time>
      </trkpt>
      <trkpt lat="44.6043" lon="6.00021">
        <ele>1279.17</ele>
        <time>2015-09-28T07:57:39Z</time>
      </trkpt>
      <trkpt lat="44.60433" lon="6.00011">
        <ele>1280.61</ele>
        <time>2015-09-28T07:57:52Z</time>
      </trkpt>
      <trkpt lat="44.60431" lon="6.00007">
        <ele>1280.61</ele>
        <time>2015-09-28T07:57:55Z</time>
      </trkpt>
      <trkpt lat="44.60434" lon="5.9999">
        <ele>1282.54</ele>
        <time>2015-09-28T07:58:09Z</time>
      </trkpt>
      <trkpt lat="44.60436" lon="5.99973">
        <ele>1284.46</ele>
        <time>2015-09-28T07:58:24Z</time>
      </trkpt>
      <trkpt lat="44.60439" lon="5.99958">
        <ele>1286.38</ele>
        <time>2015-09-28T07:58:39Z</time>
      </trkpt>
      <trkpt lat="44.60444" lon="5.99945">
        <ele>1288.3</ele>
        <time>2015-09-28T07:58:54Z</time>
      </trkpt>
      <trkpt lat="44.60452" lon="5.99932">
        <ele>1290.23</ele>
        <time>2015-09-28T07:59:09Z</time>
      </trkpt>
      <trkpt lat="44.60459" lon="5.99924">
        <ele>1290.23</ele>
        <time>2015-09-28T07:59:20Z</time>
      </trkpt>
      <trkpt lat="44.60453" lon="5.99912">
        <ele>1290.23</ele>
        <time>2015-09-28T07:59:35Z</time>
      </trkpt>
      <trkpt lat="44.60449" lon="5.99902">
        <ele>1289.27</ele>
        <time>2015-09-28T07:59:46Z</time>
      </trkpt>
      <trkpt lat="44.60448" lon="5.99894">
        <ele>1288.3</ele>
        <time>2015-09-28T07:59:53Z</time>
      </trkpt>
      <trkpt lat="44.60453" lon="5.9988">
        <ele>1286.86</ele>
        <time>2015-09-28T08:00:06Z</time>
      </trkpt>
      <trkpt lat="44.60463" lon="5.99869">
        <ele>1284.94</ele>
        <time>2015-09-28T08:00:23Z</time>
      </trkpt>
      <trkpt lat="44.6047" lon="5.99859">
        <ele>1282.06</ele>
        <time>2015-09-28T08:00:36Z</time>
      </trkpt>
      <trkpt lat="44.6048" lon="5.99849">
        <ele>1279.65</ele>
        <time>2015-09-28T08:00:49Z</time>
      </trkpt>
      <trkpt lat="44.60491" lon="5.9984">
        <ele>1278.69</ele>
        <time>2015-09-28T08:01:03Z</time>
      </trkpt>
      <trkpt lat="44.60496" lon="5.99837">
        <ele>1278.21</ele>
        <time>2015-09-28T08:01:10Z</time>
      </trkpt>
      <trkpt lat="44.6051" lon="5.99823">
        <ele>1277.73</ele>
        <time>2015-09-28T08:01:27Z</time>
      </trkpt>
      <trkpt lat="44.60521" lon="5.99811">
        <ele>1278.21</ele>
        <time>2015-09-28T08:01:42Z</time>
      </trkpt>
      <trkpt lat="44.6053" lon="5.99799">
        <ele>1277.25</ele>
        <time>2015-09-28T08:01:58Z</time>
      </trkpt>
      <trkpt lat="44.60538" lon="5.9979">
        <ele>1277.73</ele>
        <time>2015-09-28T08:02:11Z</time>
      </trkpt>
      <trkpt lat="44.60534" lon="5.99787">
        <ele>1277.25</ele>
        <time>2015-09-28T08:02:17Z</time>
      </trkpt>
      <trkpt lat="44.60521" lon="5.99771">
        <ele>1276.29</ele>
        <time>2015-09-28T08:02:33Z</time>
      </trkpt>
      <trkpt lat="44.60518" lon="5.99753">
        <ele>1276.77</ele>
        <time>2015-09-28T08:02:47Z</time>
      </trkpt>
      <trkpt lat="44.60518" lon="5.99741">
        <ele>1275.33</ele>
        <time>2015-09-28T08:03:00Z</time>
      </trkpt>
      <trkpt lat="44.60516" lon="5.99737">
        <ele>1274.85</ele>
        <time>2015-09-28T08:03:03Z</time>
      </trkpt>
      <trkpt lat="44.60515" lon="5.9973">
        <ele>1275.33</ele>
        <time>2015-09-28T08:03:08Z</time>
      </trkpt>
      <trkpt lat="44.60518" lon="5.99712">
        <ele>1277.73</ele>
        <time>2015-09-28T08:03:23Z</time>
      </trkpt>
      <trkpt lat="44.6052" lon="5.99698">
        <ele>1279.65</ele>
        <time>2015-09-28T08:03:35Z</time>
      </trkpt>
      <trkpt lat="44.60521" lon="5.99691">
        <ele>1279.17</ele>
        <time>2015-09-28T08:03:47Z</time>
      </trkpt>
      <trkpt lat="44.60521" lon="5.99691">
        <ele>1279.17</ele>
        <time>2015-09-28T08:03:48Z</time>
      </trkpt>
      <trkpt lat="44.6052" lon="5.99688">
        <ele>1278.69</ele>
        <time>2015-09-28T08:04:02Z</time>
      </trkpt>
      <trkpt lat="44.60525" lon="5.99683">
        <ele>1277.73</ele>
        <time>2015-09-28T08:04:21Z</time>
      </trkpt>
      <trkpt lat="44.60526" lon="5.99682">
        <ele>1277.73</ele>
        <time>2015-09-28T08:04:22Z</time>
      </trkpt>
      <trkpt lat="44.60535" lon="5.99661">
        <ele>1277.25</ele>
        <time>2015-09-28T08:04:38Z</time>
      </trkpt>
      <trkpt lat="44.60537" lon="5.99659">
        <ele>1277.73</ele>
        <time>2015-09-28T08:04:41Z</time>
      </trkpt>
      <trkpt lat="44.60542" lon="5.99649">
        <ele>1280.13</ele>
        <time>2015-09-28T08:04:55Z</time>
      </trkpt>
      <trkpt lat="44.60543" lon="5.99647">
        <ele>1280.13</ele>
        <time>2015-09-28T08:04:57Z</time>
      </trkpt>
      <trkpt lat="44.60549" lon="5.99637">
        <ele>1282.06</ele>
        <time>2015-09-28T08:05:09Z</time>
      </trkpt>
      <trkpt lat="44.60549" lon="5.99636">
        <ele>1282.06</ele>
        <time>2015-09-28T08:05:11Z</time>
      </trkpt>
      <trkpt lat="44.60557" lon="5.99626">
        <ele>1284.46</ele>
        <time>2015-09-28T08:05:25Z</time>
      </trkpt>
      <trkpt lat="44.60563" lon="5.99619">
        <ele>1286.38</ele>
        <time>2015-09-28T08:05:37Z</time>
      </trkpt>
      <trkpt lat="44.60571" lon="5.99612">
        <ele>1287.82</ele>
        <time>2015-09-28T08:05:50Z</time>
      </trkpt>
      <trkpt lat="44.60578" lon="5.99599">
        <ele>1289.27</ele>
        <time>2015-09-28T08:06:03Z</time>
      </trkpt>
      <trkpt lat="44.60583" lon="5.99586">
        <ele>1292.15</ele>
        <time>2015-09-28T08:06:19Z</time>
      </trkpt>
      <trkpt lat="44.6059" lon="5.99578">
        <ele>1294.55</ele>
        <time>2015-09-28T08:06:33Z</time>
      </trkpt>
      <trkpt lat="44.60597" lon="5.99576">
        <ele>1296.48</ele>
        <time>2015-09-28T08:06:48Z</time>
      </trkpt>
      <trkpt lat="44.60599" lon="5.99572">
        <ele>1296.96</ele>
        <time>2015-09-28T08:07:11Z</time>
      </trkpt>
      <trkpt lat="44.60604" lon="5.99569">
        <ele>1299.36</ele>
        <time>2015-09-28T08:07:25Z</time>
      </trkpt>
      <trkpt lat="44.60604" lon="5.99566">
        <ele>1299.84</ele>
        <time>2015-09-28T08:07:42Z</time>
      </trkpt>
      <trkpt lat="44.60608" lon="5.99567">
        <ele>1300.8</ele>
        <time>2015-09-28T08:08:04Z</time>
      </trkpt>
      <trkpt lat="44.60609" lon="5.99569">
        <ele>1300.8</ele>
        <time>2015-09-28T08:08:22Z</time>
      </trkpt>
      <trkpt lat="44.6061" lon="5.99568">
        <ele>1300.8</ele>
        <time>2015-09-28T08:08:39Z</time>
      </trkpt>
      <trkpt lat="44.60608" lon="5.99566">
        <ele>1300.8</ele>
        <time>2015-09-28T08:08:58Z</time>
      </trkpt>
      <trkpt lat="44.60609" lon="5.99567">
        <ele>1301.28</ele>
        <time>2015-09-28T08:09:23Z</time>
      </trkpt>
      <trkpt lat="44.60609" lon="5.99565">
        <ele>1302.72</ele>
        <time>2015-09-28T08:09:45Z</time>
      </trkpt>
      <trkpt lat="44.60609" lon="5.99564">
        <ele>1301.76</ele>
        <time>2015-09-28T08:09:59Z</time>
      </trkpt>
      <trkpt lat="44.60609" lon="5.99566">
        <ele>1301.76</ele>
        <time>2015-09-28T08:10:24Z</time>
      </trkpt>
      <trkpt lat="44.60609" lon="5.99565">
        <ele>1301.76</ele>
        <time>2015-09-28T08:10:44Z</time>
      </trkpt>
      <trkpt lat="44.60611" lon="5.99565">
        <ele>1301.76</ele>
        <time>2015-09-28T08:11:06Z</time>
      </trkpt>
      <trkpt lat="44.60611" lon="5.99564">
        <ele>1301.76</ele>
        <time>2015-09-28T08:11:35Z</time>
      </trkpt>
      <trkpt lat="44.60613" lon="5.99563">
        <ele>1301.76</ele>
        <time>2015-09-28T08:11:52Z</time>
      </trkpt>
      <trkpt lat="44.60613" lon="5.99562">
        <ele>1302.24</ele>
        <time>2015-09-28T08:12:14Z</time>
      </trkpt>
      <trkpt lat="44.60614" lon="5.99562">
        <ele>1302.24</ele>
        <time>2015-09-28T08:12:34Z</time>
      </trkpt>
      <trkpt lat="44.6062" lon="5.99568">
        <ele>1300.8</ele>
        <time>2015-09-28T08:12:49Z</time>
      </trkpt>
      <trkpt lat="44.60623" lon="5.99569">
        <ele>1300.32</ele>
        <time>2015-09-28T08:12:55Z</time>
      </trkpt>
      <trkpt lat="44.60625" lon="5.99569">
        <ele>1300.32</ele>
        <time>2015-09-28T08:12:57Z</time>
      </trkpt>
      <trkpt lat="44.60629" lon="5.99569">
        <ele>1299.36</ele>
        <time>2015-09-28T08:13:01Z</time>
      </trkpt>
      <trkpt lat="44.60631" lon="5.99568">
        <ele>1299.36</ele>
        <time>2015-09-28T08:13:03Z</time>
      </trkpt>
      <trkpt lat="44.60636" lon="5.9957">
        <ele>1299.36</ele>
        <time>2015-09-28T08:13:08Z</time>
      </trkpt>
      <trkpt lat="44.60644" lon="5.99567">
        <ele>1299.36</ele>
        <time>2015-09-28T08:13:16Z</time>
      </trkpt>
      <trkpt lat="44.60653" lon="5.99567">
        <ele>1300.32</ele>
        <time>2015-09-28T08:13:28Z</time>
      </trkpt>
      <trkpt lat="44.60662" lon="5.99572">
        <ele>1300.32</ele>
        <time>2015-09-28T08:13:38Z</time>
      </trkpt>
      <trkpt lat="44.60668" lon="5.99573">
        <ele>1300.32</ele>
        <time>2015-09-28T08:13:45Z</time>
      </trkpt>
      <trkpt lat="44.60675" lon="5.99575">
        <ele>1299.36</ele>
        <time>2015-09-28T08:13:57Z</time>
      </trkpt>
      <trkpt lat="44.6068" lon="5.99571">
        <ele>1298.88</ele>
        <time>2015-09-28T08:14:02Z</time>
      </trkpt>
      <trkpt lat="44.60689" lon="5.99575">
        <ele>1297.92</ele>
        <time>2015-09-28T08:14:15Z</time>
      </trkpt>
      <trkpt lat="44.60691" lon="5.99576">
        <ele>1297.44</ele>
        <time>2015-09-28T08:14:17Z</time>
      </trkpt>
      <trkpt lat="44.60695" lon="5.99576">
        <ele>1297.44</ele>
        <time>2015-09-28T08:14:21Z</time>
      </trkpt>
      <trkpt lat="44.60702" lon="5.99568">
        <ele>1295.99</ele>
        <time>2015-09-28T08:14:34Z</time>
      </trkpt>
      <trkpt lat="44.60701" lon="5.99568">
        <ele>1295.51</ele>
        <time>2015-09-28T08:14:36Z</time>
      </trkpt>
      <trkpt lat="44.60696" lon="5.99573">
        <ele>1293.59</ele>
        <time>2015-09-28T08:14:50Z</time>
      </trkpt>
      <trkpt lat="44.60687" lon="5.99579">
        <ele>1290.71</ele>
        <time>2015-09-28T08:15:05Z</time>
      </trkpt>
      <trkpt lat="44.60682" lon="5.9958">
        <ele>1289.75</ele>
        <time>2015-09-28T08:15:10Z</time>
      </trkpt>
      <trkpt lat="44.60681" lon="5.99572">
        <ele>1286.86</ele>
        <time>2015-09-28T08:15:25Z</time>
      </trkpt>
      <trkpt lat="44.60687" lon="5.99563">
        <ele>1284.46</ele>
        <time>2015-09-28T08:15:42Z</time>
      </trkpt>
      <trkpt lat="44.60694" lon="5.99556">
        <ele>1283.5</ele>
        <time>2015-09-28T08:15:55Z</time>
      </trkpt>
      <trkpt lat="44.60701" lon="5.99544">
        <ele>1281.57</ele>
        <time>2015-09-28T08:16:09Z</time>
      </trkpt>
      <trkpt lat="44.60709" lon="5.99536">
        <ele>1279.65</ele>
        <time>2015-09-28T08:16:23Z</time>
      </trkpt>
      <trkpt lat="44.60706" lon="5.99535">
        <ele>1277.73</ele>
        <time>2015-09-28T08:16:36Z</time>
      </trkpt>
      <trkpt lat="44.60692" lon="5.99538">
        <ele>1275.33</ele>
        <time>2015-09-28T08:16:51Z</time>
      </trkpt>
      <trkpt lat="44.60682" lon="5.99545">
        <ele>1272.44</ele>
        <time>2015-09-28T08:17:07Z</time>
      </trkpt>
      <trkpt lat="44.60681" lon="5.99539">
        <ele>1271</ele>
        <time>2015-09-28T08:17:18Z</time>
      </trkpt>
      <trkpt lat="44.60686" lon="5.99529">
        <ele>1269.08</ele>
        <time>2015-09-28T08:17:28Z</time>
      </trkpt>
      <trkpt lat="44.6069" lon="5.99525">
        <ele>1268.6</ele>
        <time>2015-09-28T08:17:33Z</time>
      </trkpt>
      <trkpt lat="44.60694" lon="5.99522">
        <ele>1268.12</ele>
        <time>2015-09-28T08:17:39Z</time>
      </trkpt>
      <trkpt lat="44.60702" lon="5.99519">
        <ele>1267.16</ele>
        <time>2015-09-28T08:17:54Z</time>
      </trkpt>
      <trkpt lat="44.6071" lon="5.99515">
        <ele>1266.67</ele>
        <time>2015-09-28T08:18:07Z</time>
      </trkpt>
      <trkpt lat="44.60721" lon="5.99515">
        <ele>1265.71</ele>
        <time>2015-09-28T08:18:20Z</time>
      </trkpt>
      <trkpt lat="44.60724" lon="5.9951">
        <ele>1264.27</ele>
        <time>2015-09-28T08:18:33Z</time>
      </trkpt>
      <trkpt lat="44.60724" lon="5.99513">
        <ele>1264.27</ele>
        <time>2015-09-28T08:18:56Z</time>
      </trkpt>
      <trkpt lat="44.60725" lon="5.99511">
        <ele>1264.27</ele>
        <time>2015-09-28T08:18:57Z</time>
      </trkpt>
      <trkpt lat="44.60733" lon="5.995">
        <ele>1263.79</ele>
        <time>2015-09-28T08:19:07Z</time>
      </trkpt>
      <trkpt lat="44.60745" lon="5.9949">
        <ele>1262.83</ele>
        <time>2015-09-28T08:19:22Z</time>
      </trkpt>
      <trkpt lat="44.60747" lon="5.99487">
        <ele>1261.87</ele>
        <time>2015-09-28T08:19:25Z</time>
      </trkpt>
      <trkpt lat="44.60753" lon="5.99478">
        <ele>1260.91</ele>
        <time>2015-09-28T08:19:37Z</time>
      </trkpt>
      <trkpt lat="44.60758" lon="5.9947">
        <ele>1259.46</ele>
        <time>2015-09-28T08:19:46Z</time>
      </trkpt>
      <trkpt lat="44.60767" lon="5.99457">
        <ele>1258.5</ele>
        <time>2015-09-28T08:20:01Z</time>
      </trkpt>
      <trkpt lat="44.60776" lon="5.99443">
        <ele>1258.98</ele>
        <time>2015-09-28T08:20:14Z</time>
      </trkpt>
      <trkpt lat="44.60782" lon="5.99436">
        <ele>1259.46</ele>
        <time>2015-09-28T08:20:26Z</time>
      </trkpt>
      <trkpt lat="44.60783" lon="5.99433">
        <ele>1259.46</ele>
        <time>2015-09-28T08:20:28Z</time>
      </trkpt>
      <trkpt lat="44.60794" lon="5.99416">
        <ele>1259.94</ele>
        <time>2015-09-28T08:20:45Z</time>
      </trkpt>
      <trkpt lat="44.60802" lon="5.99405">
        <ele>1259.94</ele>
        <time>2015-09-28T08:21:00Z</time>
      </trkpt>
      <trkpt lat="44.6081" lon="5.99393">
        <ele>1258.02</ele>
        <time>2015-09-28T08:21:16Z</time>
      </trkpt>
      <trkpt lat="44.60815" lon="5.99387">
        <ele>1258.02</ele>
        <time>2015-09-28T08:21:32Z</time>
      </trkpt>
      <trkpt lat="44.60831" lon="5.9937">
        <ele>1256.58</ele>
        <time>2015-09-28T08:21:51Z</time>
      </trkpt>
      <trkpt lat="44.60847" lon="5.9936">
        <ele>1255.62</ele>
        <time>2015-09-28T08:22:09Z</time>
      </trkpt>
      <trkpt lat="44.60858" lon="5.99357">
        <ele>1256.1</ele>
        <time>2015-09-28T08:22:20Z</time>
      </trkpt>
      <trkpt lat="44.60868" lon="5.99337">
        <ele>1254.18</ele>
        <time>2015-09-28T08:22:38Z</time>
      </trkpt>
      <trkpt lat="44.60877" lon="5.99318">
        <ele>1251.29</ele>
        <time>2015-09-28T08:22:55Z</time>
      </trkpt>
      <trkpt lat="44.60885" lon="5.99295">
        <ele>1248.89</ele>
        <time>2015-09-28T08:23:14Z</time>
      </trkpt>
      <trkpt lat="44.60893" lon="5.99274">
        <ele>1247.93</ele>
        <time>2015-09-28T08:23:31Z</time>
      </trkpt>
      <trkpt lat="44.60901" lon="5.99266">
        <ele>1248.41</ele>
        <time>2015-09-28T08:23:44Z</time>
      </trkpt>
      <trkpt lat="44.60914" lon="5.99252">
        <ele>1248.41</ele>
        <time>2015-09-28T08:24:01Z</time>
      </trkpt>
      <trkpt lat="44.60927" lon="5.9923">
        <ele>1247.45</ele>
        <time>2015-09-28T08:24:20Z</time>
      </trkpt>
      <trkpt lat="44.60936" lon="5.99212">
        <ele>1244.56</ele>
        <time>2015-09-28T08:24:38Z</time>
      </trkpt>
      <trkpt lat="44.60946" lon="5.9919">
        <ele>1242.64</ele>
        <time>2015-09-28T08:24:57Z</time>
      </trkpt>
      <trkpt lat="44.60956" lon="5.99172">
        <ele>1240.72</ele>
        <time>2015-09-28T08:25:13Z</time>
      </trkpt>
      <trkpt lat="44.60966" lon="5.99155">
        <ele>1240.24</ele>
        <time>2015-09-28T08:25:29Z</time>
      </trkpt>
      <trkpt lat="44.60973" lon="5.9914">
        <ele>1241.2</ele>
        <time>2015-09-28T08:25:45Z</time>
      </trkpt>
      <trkpt lat="44.60976" lon="5.99125">
        <ele>1239.28</ele>
        <time>2015-09-28T08:25:57Z</time>
      </trkpt>
      <trkpt lat="44.60976" lon="5.99124">
        <ele>1238.8</ele>
        <time>2015-09-28T08:25:58Z</time>
      </trkpt>
      <trkpt lat="44.60982" lon="5.99102">
        <ele>1235.43</ele>
        <time>2015-09-28T08:26:15Z</time>
      </trkpt>
      <trkpt lat="44.60989" lon="5.99083">
        <ele>1232.55</ele>
        <time>2015-09-28T08:26:30Z</time>
      </trkpt>
      <trkpt lat="44.60992" lon="5.99078">
        <ele>1231.11</ele>
        <time>2015-09-28T08:26:48Z</time>
      </trkpt>
      <trkpt lat="44.60996" lon="5.99069">
        <ele>1230.62</ele>
        <time>2015-09-28T08:27:08Z</time>
      </trkpt>
      <trkpt lat="44.61004" lon="5.99061">
        <ele>1229.66</ele>
        <time>2015-09-28T08:27:22Z</time>
      </trkpt>
      <trkpt lat="44.61015" lon="5.99045">
        <ele>1227.26</ele>
        <time>2015-09-28T08:27:37Z</time>
      </trkpt>
      <trkpt lat="44.61034" lon="5.99032">
        <ele>1225.34</ele>
        <time>2015-09-28T08:27:57Z</time>
      </trkpt>
      <trkpt lat="44.61042" lon="5.99027">
        <ele>1224.86</ele>
        <time>2015-09-28T08:28:05Z</time>
      </trkpt>
      <trkpt lat="44.6106" lon="5.9901">
        <ele>1222.93</ele>
        <time>2015-09-28T08:28:25Z</time>
      </trkpt>
      <trkpt lat="44.61074" lon="5.99001">
        <ele>1224.38</ele>
        <time>2015-09-28T08:28:40Z</time>
      </trkpt>
      <trkpt lat="44.61085" lon="5.98996">
        <ele>1227.26</ele>
        <time>2015-09-28T08:28:55Z</time>
      </trkpt>
      <trkpt lat="44.61084" lon="5.98994">
        <ele>1227.26</ele>
        <time>2015-09-28T08:29:08Z</time>
      </trkpt>
      <trkpt lat="44.61083" lon="5.98994">
        <ele>1226.78</ele>
        <time>2015-09-28T08:29:37Z</time>
      </trkpt>
      <trkpt lat="44.61085" lon="5.98989">
        <ele>1226.3</ele>
        <time>2015-09-28T08:29:44Z</time>
      </trkpt>
      <trkpt lat="44.61089" lon="5.98983">
        <ele>1224.86</ele>
        <time>2015-09-28T08:29:49Z</time>
      </trkpt>
      <trkpt lat="44.61093" lon="5.98964">
        <ele>1221.49</ele>
        <time>2015-09-28T08:30:01Z</time>
      </trkpt>
      <trkpt lat="44.61099" lon="5.98949">
        <ele>1219.09</ele>
        <time>2015-09-28T08:30:18Z</time>
      </trkpt>
      <trkpt lat="44.61099" lon="5.9894">
        <ele>1216.69</ele>
        <time>2015-09-28T08:30:31Z</time>
      </trkpt>
      <trkpt lat="44.61099" lon="5.98927">
        <ele>1213.8</ele>
        <time>2015-09-28T08:30:46Z</time>
      </trkpt>
      <trkpt lat="44.611" lon="5.98911">
        <ele>1210.92</ele>
        <time>2015-09-28T08:30:59Z</time>
      </trkpt>
      <trkpt lat="44.611" lon="5.98906">
        <ele>1210.92</ele>
        <time>2015-09-28T08:31:02Z</time>
      </trkpt>
      <trkpt lat="44.61101" lon="5.989">
        <ele>1210.92</ele>
        <time>2015-09-28T08:31:07Z</time>
      </trkpt>
      <trkpt lat="44.61102" lon="5.98883">
        <ele>1208.03</ele>
        <time>2015-09-28T08:31:20Z</time>
      </trkpt>
      <trkpt lat="44.61103" lon="5.9888">
        <ele>1207.07</ele>
        <time>2015-09-28T08:31:22Z</time>
      </trkpt>
      <trkpt lat="44.61103" lon="5.98874">
        <ele>1205.63</ele>
        <time>2015-09-28T08:31:37Z</time>
      </trkpt>
      <trkpt lat="44.61102" lon="5.98875">
        <ele>1205.63</ele>
        <time>2015-09-28T08:31:54Z</time>
      </trkpt>
      <trkpt lat="44.61104" lon="5.98864">
        <ele>1204.67</ele>
        <time>2015-09-28T08:32:02Z</time>
      </trkpt>
      <trkpt lat="44.61106" lon="5.98849">
        <ele>1201.3</ele>
        <time>2015-09-28T08:32:14Z</time>
      </trkpt>
      <trkpt lat="44.61107" lon="5.98842">
        <ele>1199.86</ele>
        <time>2015-09-28T08:32:19Z</time>
      </trkpt>
      <trkpt lat="44.61108" lon="5.98837">
        <ele>1198.9</ele>
        <time>2015-09-28T08:32:23Z</time>
      </trkpt>
      <trkpt lat="44.6111" lon="5.98815">
        <ele>1195.54</ele>
        <time>2015-09-28T08:32:39Z</time>
      </trkpt>
      <trkpt lat="44.6111" lon="5.98814">
        <ele>1195.54</ele>
        <time>2015-09-28T08:32:41Z</time>
      </trkpt>
      <trkpt lat="44.61118" lon="5.98795">
        <ele>1194.09</ele>
        <time>2015-09-28T08:32:55Z</time>
      </trkpt>
      <trkpt lat="44.61124" lon="5.98788">
        <ele>1193.61</ele>
        <time>2015-09-28T08:33:03Z</time>
      </trkpt>
      <trkpt lat="44.6114" lon="5.98793">
        <ele>1191.21</ele>
        <time>2015-09-28T08:33:19Z</time>
      </trkpt>
      <trkpt lat="44.61151" lon="5.9879">
        <ele>1189.29</ele>
        <time>2015-09-28T08:33:33Z</time>
      </trkpt>
      <trkpt lat="44.61158" lon="5.9879">
        <ele>1188.33</ele>
        <time>2015-09-28T08:33:40Z</time>
      </trkpt>
      <trkpt lat="44.61164" lon="5.98778">
        <ele>1185.92</ele>
        <time>2015-09-28T08:33:50Z</time>
      </trkpt>
      <trkpt lat="44.61173" lon="5.98771">
        <ele>1184.48</ele>
        <time>2015-09-28T08:34:00Z</time>
      </trkpt>
      <trkpt lat="44.61176" lon="5.98769">
        <ele>1184</ele>
        <time>2015-09-28T08:34:04Z</time>
      </trkpt>
      <trkpt lat="44.61185" lon="5.98757">
        <ele>1180.64</ele>
        <time>2015-09-28T08:34:20Z</time>
      </trkpt>
      <trkpt lat="44.61188" lon="5.98757">
        <ele>1180.16</ele>
        <time>2015-09-28T08:34:23Z</time>
      </trkpt>
      <trkpt lat="44.61196" lon="5.98753">
        <ele>1178.71</ele>
        <time>2015-09-28T08:34:31Z</time>
      </trkpt>
      <trkpt lat="44.61211" lon="5.98758">
        <ele>1177.27</ele>
        <time>2015-09-28T08:34:48Z</time>
      </trkpt>
      <trkpt lat="44.61219" lon="5.98756">
        <ele>1177.27</ele>
        <time>2015-09-28T08:35:01Z</time>
      </trkpt>
      <trkpt lat="44.6122" lon="5.98751">
        <ele>1178.71</ele>
        <time>2015-09-28T08:35:12Z</time>
      </trkpt>
      <trkpt lat="44.61222" lon="5.98745">
        <ele>1179.19</ele>
        <time>2015-09-28T08:35:22Z</time>
      </trkpt>
      <trkpt lat="44.61228" lon="5.98743">
        <ele>1181.12</ele>
        <time>2015-09-28T08:35:36Z</time>
      </trkpt>
      <trkpt lat="44.6123" lon="5.98741">
        <ele>1181.6</ele>
        <time>2015-09-28T08:35:41Z</time>
      </trkpt>
      <trkpt lat="44.6124" lon="5.98741">
        <ele>1182.08</ele>
        <time>2015-09-28T08:35:54Z</time>
      </trkpt>
      <trkpt lat="44.61248" lon="5.98744">
        <ele>1184</ele>
        <time>2015-09-28T08:36:08Z</time>
      </trkpt>
      <trkpt lat="44.61254" lon="5.98747">
        <ele>1185.44</ele>
        <time>2015-09-28T08:36:17Z</time>
      </trkpt>
      <trkpt lat="44.61262" lon="5.9875">
        <ele>1187.37</ele>
        <time>2015-09-28T08:36:31Z</time>
      </trkpt>
      <trkpt lat="44.61267" lon="5.98756">
        <ele>1189.29</ele>
        <time>2015-09-28T08:36:44Z</time>
      </trkpt>
      <trkpt lat="44.61273" lon="5.9876">
        <ele>1191.69</ele>
        <time>2015-09-28T08:36:57Z</time>
      </trkpt>
      <trkpt lat="44.6128" lon="5.98762">
        <ele>1192.65</ele>
        <time>2015-09-28T08:37:10Z</time>
      </trkpt>
      <trkpt lat="44.61281" lon="5.98762">
        <ele>1193.13</ele>
        <time>2015-09-28T08:37:11Z</time>
      </trkpt>
      <trkpt lat="44.61292" lon="5.98771">
        <ele>1194.09</ele>
        <time>2015-09-28T08:37:23Z</time>
      </trkpt>
      <trkpt lat="44.61301" lon="5.98785">
        <ele>1196.02</ele>
        <time>2015-09-28T08:37:37Z</time>
      </trkpt>
      <trkpt lat="44.61307" lon="5.98797">
        <ele>1198.9</ele>
        <time>2015-09-28T08:37:52Z</time>
      </trkpt>
      <trkpt lat="44.6132" lon="5.98801">
        <ele>1198.42</ele>
        <time>2015-09-28T08:38:10Z</time>
      </trkpt>
      <trkpt lat="44.61328" lon="5.988">
        <ele>1196.5</ele>
        <time>2015-09-28T08:38:24Z</time>
      </trkpt>
      <trkpt lat="44.61334" lon="5.98799">
        <ele>1195.06</ele>
        <time>2015-09-28T08:38:31Z</time>
      </trkpt>
      <trkpt lat="44.61351" lon="5.98803">
        <ele>1191.69</ele>
        <time>2015-09-28T08:38:47Z</time>
      </trkpt>
      <trkpt lat="44.61352" lon="5.98803">
        <ele>1191.69</ele>
        <time>2015-09-28T08:38:49Z</time>
      </trkpt>
      <trkpt lat="44.61368" lon="5.98807">
        <ele>1189.29</ele>
        <time>2015-09-28T08:39:04Z</time>
      </trkpt>
      <trkpt lat="44.61383" lon="5.98803">
        <ele>1186.4</ele>
        <time>2015-09-28T08:39:21Z</time>
      </trkpt>
      <trkpt lat="44.61386" lon="5.988">
        <ele>1185.92</ele>
        <time>2015-09-28T08:39:24Z</time>
      </trkpt>
      <trkpt lat="44.61398" lon="5.98799">
        <ele>1182.08</ele>
        <time>2015-09-28T08:39:37Z</time>
      </trkpt>
      <trkpt lat="44.6141" lon="5.988">
        <ele>1179.19</ele>
        <time>2015-09-28T08:39:49Z</time>
      </trkpt>
      <trkpt lat="44.61418" lon="5.98796">
        <ele>1177.75</ele>
        <time>2015-09-28T08:40:01Z</time>
      </trkpt>
      <trkpt lat="44.61419" lon="5.98793">
        <ele>1175.83</ele>
        <time>2015-09-28T08:40:15Z</time>
      </trkpt>
      <trkpt lat="44.61424" lon="5.98786">
        <ele>1174.39</ele>
        <time>2015-09-28T08:40:28Z</time>
      </trkpt>
      <trkpt lat="44.61428" lon="5.98788">
        <ele>1173.43</ele>
        <time>2015-09-28T08:40:42Z</time>
      </trkpt>
      <trkpt lat="44.61432" lon="5.98782">
        <ele>1172.95</ele>
        <time>2015-09-28T08:40:49Z</time>
      </trkpt>
      <trkpt lat="44.61436" lon="5.98783">
        <ele>1171.98</ele>
        <time>2015-09-28T08:40:56Z</time>
      </trkpt>
      <trkpt lat="44.61437" lon="5.98783">
        <ele>1171.98</ele>
        <time>2015-09-28T08:41:00Z</time>
      </trkpt>
      <trkpt lat="44.61449" lon="5.98791">
        <ele>1168.62</ele>
        <time>2015-09-28T08:41:14Z</time>
      </trkpt>
      <trkpt lat="44.61456" lon="5.98799">
        <ele>1166.7</ele>
        <time>2015-09-28T08:41:23Z</time>
      </trkpt>
      <trkpt lat="44.61458" lon="5.98804">
        <ele>1165.26</ele>
        <time>2015-09-28T08:41:28Z</time>
      </trkpt>
      <trkpt lat="44.61462" lon="5.9881">
        <ele>1165.26</ele>
        <time>2015-09-28T08:41:36Z</time>
      </trkpt>
      <trkpt lat="44.61468" lon="5.9882">
        <ele>1164.77</ele>
        <time>2015-09-28T08:41:44Z</time>
      </trkpt>
      <trkpt lat="44.61469" lon="5.98825">
        <ele>1165.26</ele>
        <time>2015-09-28T08:41:48Z</time>
      </trkpt>
      <trkpt lat="44.61478" lon="5.9885">
        <ele>1163.33</ele>
        <time>2015-09-28T08:42:06Z</time>
      </trkpt>
      <trkpt lat="44.61484" lon="5.9886">
        <ele>1159.97</ele>
        <time>2015-09-28T08:42:20Z</time>
      </trkpt>
      <trkpt lat="44.61491" lon="5.98864">
        <ele>1156.6</ele>
        <time>2015-09-28T08:42:30Z</time>
      </trkpt>
      <trkpt lat="44.61495" lon="5.98858">
        <ele>1155.64</ele>
        <time>2015-09-28T08:42:43Z</time>
      </trkpt>
      <trkpt lat="44.61494" lon="5.9885">
        <ele>1156.12</ele>
        <time>2015-09-28T08:42:57Z</time>
      </trkpt>
      <trkpt lat="44.61497" lon="5.98835">
        <ele>1155.64</ele>
        <time>2015-09-28T08:43:08Z</time>
      </trkpt>
      <trkpt lat="44.61507" lon="5.98815">
        <ele>1158.05</ele>
        <time>2015-09-28T08:43:26Z</time>
      </trkpt>
      <trkpt lat="44.61512" lon="5.988">
        <ele>1160.45</ele>
        <time>2015-09-28T08:43:39Z</time>
      </trkpt>
      <trkpt lat="44.6152" lon="5.98789">
        <ele>1162.85</ele>
        <time>2015-09-28T08:43:54Z</time>
      </trkpt>
      <trkpt lat="44.61522" lon="5.98788">
        <ele>1163.33</ele>
        <time>2015-09-28T08:43:58Z</time>
      </trkpt>
      <trkpt lat="44.61529" lon="5.98777">
        <ele>1165.74</ele>
        <time>2015-09-28T08:44:12Z</time>
      </trkpt>
      <trkpt lat="44.61537" lon="5.98767">
        <ele>1168.14</ele>
        <time>2015-09-28T08:44:26Z</time>
      </trkpt>
      <trkpt lat="44.61542" lon="5.98759">
        <ele>1168.62</ele>
        <time>2015-09-28T08:44:37Z</time>
      </trkpt>
      <trkpt lat="44.61554" lon="5.98745">
        <ele>1167.18</ele>
        <time>2015-09-28T08:44:52Z</time>
      </trkpt>
      <trkpt lat="44.61554" lon="5.98744">
        <ele>1167.18</ele>
        <time>2015-09-28T08:44:53Z</time>
      </trkpt>
      <trkpt lat="44.61565" lon="5.98732">
        <ele>1166.7</ele>
        <time>2015-09-28T08:45:09Z</time>
      </trkpt>
      <trkpt lat="44.61568" lon="5.98723">
        <ele>1166.22</ele>
        <time>2015-09-28T08:45:16Z</time>
      </trkpt>
      <trkpt lat="44.6157" lon="5.98722">
        <ele>1166.22</ele>
        <time>2015-09-28T08:45:18Z</time>
      </trkpt>
      <trkpt lat="44.61571" lon="5.98718">
        <ele>1166.22</ele>
        <time>2015-09-28T08:45:21Z</time>
      </trkpt>
      <trkpt lat="44.61574" lon="5.98714">
        <ele>1166.22</ele>
        <time>2015-09-28T08:45:25Z</time>
      </trkpt>
      <trkpt lat="44.61574" lon="5.98712">
        <ele>1165.74</ele>
        <time>2015-09-28T08:45:39Z</time>
      </trkpt>
      <trkpt lat="44.61576" lon="5.98707">
        <ele>1165.74</ele>
        <time>2015-09-28T08:46:00Z</time>
      </trkpt>
      <trkpt lat="44.61584" lon="5.98695">
        <ele>1163.33</ele>
        <time>2015-09-28T08:46:15Z</time>
      </trkpt>
      <trkpt lat="44.61586" lon="5.98694">
        <ele>1162.85</ele>
        <time>2015-09-28T08:46:26Z</time>
      </trkpt>
      <trkpt lat="44.61598" lon="5.98684">
        <ele>1159.97</ele>
        <time>2015-09-28T08:46:42Z</time>
      </trkpt>
      <trkpt lat="44.61613" lon="5.9868">
        <ele>1159.01</ele>
        <time>2015-09-28T08:46:59Z</time>
      </trkpt>
      <trkpt lat="44.61624" lon="5.98676">
        <ele>1159.01</ele>
        <time>2015-09-28T08:47:10Z</time>
      </trkpt>
      <trkpt lat="44.61629" lon="5.98678">
        <ele>1159.49</ele>
        <time>2015-09-28T08:47:16Z</time>
      </trkpt>
      <trkpt lat="44.61634" lon="5.98676">
        <ele>1159.01</ele>
        <time>2015-09-28T08:47:22Z</time>
      </trkpt>
      <trkpt lat="44.61639" lon="5.98669">
        <ele>1159.01</ele>
        <time>2015-09-28T08:47:35Z</time>
      </trkpt>
      <trkpt lat="44.61645" lon="5.98663">
        <ele>1158.05</ele>
        <time>2015-09-28T08:47:51Z</time>
      </trkpt>
      <trkpt lat="44.61646" lon="5.98664">
        <ele>1157.56</ele>
        <time>2015-09-28T08:48:10Z</time>
      </trkpt>
      <trkpt lat="44.61646" lon="5.98659">
        <ele>1157.56</ele>
        <time>2015-09-28T08:48:28Z</time>
      </trkpt>
      <trkpt lat="44.61646" lon="5.98664">
        <ele>1158.05</ele>
        <time>2015-09-28T08:48:39Z</time>
      </trkpt>
      <trkpt lat="44.61652" lon="5.98658">
        <ele>1156.6</ele>
        <time>2015-09-28T08:48:57Z</time>
      </trkpt>
      <trkpt lat="44.61664" lon="5.98657">
        <ele>1156.12</ele>
        <time>2015-09-28T08:49:11Z</time>
      </trkpt>
      <trkpt lat="44.61675" lon="5.98649">
        <ele>1154.68</ele>
        <time>2015-09-28T08:49:26Z</time>
      </trkpt>
      <trkpt lat="44.6168" lon="5.98647">
        <ele>1154.68</ele>
        <time>2015-09-28T08:49:33Z</time>
      </trkpt>
      <trkpt lat="44.61695" lon="5.98638">
        <ele>1153.24</ele>
        <time>2015-09-28T08:49:52Z</time>
      </trkpt>
      <trkpt lat="44.61698" lon="5.98639">
        <ele>1152.28</ele>
        <time>2015-09-28T08:50:06Z</time>
      </trkpt>
      <trkpt lat="44.61695" lon="5.98641">
        <ele>1151.32</ele>
        <time>2015-09-28T08:50:32Z</time>
      </trkpt>
      <trkpt lat="44.61696" lon="5.98642">
        <ele>1151.32</ele>
        <time>2015-09-28T08:50:49Z</time>
      </trkpt>
      <trkpt lat="44.61698" lon="5.9864">
        <ele>1151.8</ele>
        <time>2015-09-28T08:51:14Z</time>
      </trkpt>
      <trkpt lat="44.61701" lon="5.98638">
        <ele>1151.32</ele>
        <time>2015-09-28T08:51:49Z</time>
      </trkpt>
      <trkpt lat="44.61697" lon="5.9864">
        <ele>1151.32</ele>
        <time>2015-09-28T08:52:26Z</time>
      </trkpt>
      <trkpt lat="44.61698" lon="5.9864">
        <ele>1151.32</ele>
        <time>2015-09-28T08:53:01Z</time>
      </trkpt>
      <trkpt lat="44.61698" lon="5.98641">
        <ele>1151.32</ele>
        <time>2015-09-28T08:53:37Z</time>
      </trkpt>
      <trkpt lat="44.61698" lon="5.98642">
        <ele>1151.32</ele>
        <time>2015-09-28T08:54:04Z</time>
      </trkpt>
      <trkpt lat="44.61696" lon="5.98639">
        <ele>1152.28</ele>
        <time>2015-09-28T08:54:16Z</time>
      </trkpt>
      <trkpt lat="44.61699" lon="5.98641">
        <ele>1152.76</ele>
        <time>2015-09-28T08:54:36Z</time>
      </trkpt>
      <trkpt lat="44.61698" lon="5.98643">
        <ele>1152.76</ele>
        <time>2015-09-28T08:54:46Z</time>
      </trkpt>
      <trkpt lat="44.61701" lon="5.98642">
        <ele>1152.76</ele>
        <time>2015-09-28T08:55:16Z</time>
      </trkpt>
      <trkpt lat="44.61701" lon="5.98642">
        <ele>1152.76</ele>
        <time>2015-09-28T08:55:31Z</time>
      </trkpt>
      <trkpt lat="44.61698" lon="5.98642">
        <ele>1152.76</ele>
        <time>2015-09-28T08:55:55Z</time>
      </trkpt>
      <trkpt lat="44.61696" lon="5.98642">
        <ele>1152.76</ele>
        <time>2015-09-28T08:56:19Z</time>
      </trkpt>
      <trkpt lat="44.61699" lon="5.98637">
        <ele>1153.24</ele>
        <time>2015-09-28T08:56:45Z</time>
      </trkpt>
      <trkpt lat="44.61699" lon="5.98638">
        <ele>1152.76</ele>
        <time>2015-09-28T08:57:04Z</time>
      </trkpt>
      <trkpt lat="44.61707" lon="5.98634">
        <ele>1151.8</ele>
        <time>2015-09-28T08:57:19Z</time>
      </trkpt>
      <trkpt lat="44.61719" lon="5.98632">
        <ele>1152.28</ele>
        <time>2015-09-28T08:57:30Z</time>
      </trkpt>
      <trkpt lat="44.61721" lon="5.98632">
        <ele>1152.28</ele>
        <time>2015-09-28T08:57:33Z</time>
      </trkpt>
      <trkpt lat="44.61726" lon="5.98631">
        <ele>1152.76</ele>
        <time>2015-09-28T08:57:38Z</time>
      </trkpt>
      <trkpt lat="44.61729" lon="5.98631">
        <ele>1153.24</ele>
        <time>2015-09-28T08:57:41Z</time>
      </trkpt>
      <trkpt lat="44.61731" lon="5.98631">
        <ele>1153.24</ele>
        <time>2015-09-28T08:57:43Z</time>
      </trkpt>
      <trkpt lat="44.61736" lon="5.98633">
        <ele>1153.72</ele>
        <time>2015-09-28T08:57:50Z</time>
      </trkpt>
      <trkpt lat="44.61749" lon="5.98625">
        <ele>1153.72</ele>
        <time>2015-09-28T08:58:04Z</time>
      </trkpt>
      <trkpt lat="44.61755" lon="5.98626">
        <ele>1153.72</ele>
        <time>2015-09-28T08:58:12Z</time>
      </trkpt>
      <trkpt lat="44.61762" lon="5.98622">
        <ele>1153.24</ele>
        <time>2015-09-28T08:58:22Z</time>
      </trkpt>
      <trkpt lat="44.61766" lon="5.98617">
        <ele>1152.28</ele>
        <time>2015-09-28T08:58:29Z</time>
      </trkpt>
      <trkpt lat="44.61768" lon="5.98608">
        <ele>1151.8</ele>
        <time>2015-09-28T08:58:35Z</time>
      </trkpt>
      <trkpt lat="44.61771" lon="5.98601">
        <ele>1150.84</ele>
        <time>2015-09-28T08:58:41Z</time>
      </trkpt>
      <trkpt lat="44.61779" lon="5.98586">
        <ele>1149.39</ele>
        <time>2015-09-28T08:58:54Z</time>
      </trkpt>
      <trkpt lat="44.61783" lon="5.9858">
        <ele>1149.87</ele>
        <time>2015-09-28T08:59:00Z</time>
      </trkpt>
      <trkpt lat="44.61787" lon="5.98566">
        <ele>1147.95</ele>
        <time>2015-09-28T08:59:15Z</time>
      </trkpt>
      <trkpt lat="44.61792" lon="5.98553">
        <ele>1148.91</ele>
        <time>2015-09-28T08:59:29Z</time>
      </trkpt>
      <trkpt lat="44.61793" lon="5.98548">
        <ele>1148.43</ele>
        <time>2015-09-28T08:59:33Z</time>
      </trkpt>
      <trkpt lat="44.61796" lon="5.98544">
        <ele>1148.43</ele>
        <time>2015-09-28T08:59:38Z</time>
      </trkpt>
      <trkpt lat="44.61802" lon="5.98529">
        <ele>1148.43</ele>
        <time>2015-09-28T08:59:51Z</time>
      </trkpt>
      <trkpt lat="44.61811" lon="5.98516">
        <ele>1147.95</ele>
        <time>2015-09-28T09:00:05Z</time>
      </trkpt>
      <trkpt lat="44.61813" lon="5.98514">
        <ele>1147.47</ele>
        <time>2015-09-28T09:00:07Z</time>
      </trkpt>
      <trkpt lat="44.61821" lon="5.98499">
        <ele>1147.47</ele>
        <time>2015-09-28T09:00:22Z</time>
      </trkpt>
      <trkpt lat="44.61831" lon="5.98494">
        <ele>1149.39</ele>
        <time>2015-09-28T09:00:36Z</time>
      </trkpt>
      <trkpt lat="44.61836" lon="5.98492">
        <ele>1149.39</ele>
        <time>2015-09-28T09:00:40Z</time>
      </trkpt>
      <trkpt lat="44.61842" lon="5.98485">
        <ele>1149.39</ele>
        <time>2015-09-28T09:00:49Z</time>
      </trkpt>
      <trkpt lat="44.61846" lon="5.98483">
        <ele>1149.39</ele>
        <time>2015-09-28T09:00:52Z</time>
      </trkpt>
      <trkpt lat="44.61858" lon="5.98476">
        <ele>1150.35</ele>
        <time>2015-09-28T09:01:06Z</time>
      </trkpt>
      <trkpt lat="44.61867" lon="5.98475">
        <ele>1152.28</ele>
        <time>2015-09-28T09:01:18Z</time>
      </trkpt>
      <trkpt lat="44.61876" lon="5.98473">
        <ele>1154.2</ele>
        <time>2015-09-28T09:01:31Z</time>
      </trkpt>
      <trkpt lat="44.61883" lon="5.98468">
        <ele>1156.12</ele>
        <time>2015-09-28T09:01:44Z</time>
      </trkpt>
      <trkpt lat="44.61893" lon="5.98464">
        <ele>1158.53</ele>
        <time>2015-09-28T09:01:59Z</time>
      </trkpt>
      <trkpt lat="44.61899" lon="5.98459">
        <ele>1160.45</ele>
        <time>2015-09-28T09:02:09Z</time>
      </trkpt>
      <trkpt lat="44.61908" lon="5.98451">
        <ele>1163.33</ele>
        <time>2015-09-28T09:02:23Z</time>
      </trkpt>
      <trkpt lat="44.6191" lon="5.98451">
        <ele>1163.81</ele>
        <time>2015-09-28T09:02:26Z</time>
      </trkpt>
      <trkpt lat="44.61921" lon="5.98448">
        <ele>1165.26</ele>
        <time>2015-09-28T09:02:38Z</time>
      </trkpt>
      <trkpt lat="44.61922" lon="5.98447">
        <ele>1165.26</ele>
        <time>2015-09-28T09:02:40Z</time>
      </trkpt>
      <trkpt lat="44.61934" lon="5.98439">
        <ele>1165.26</ele>
        <time>2015-09-28T09:02:54Z</time>
      </trkpt>
      <trkpt lat="44.61948" lon="5.98433">
        <ele>1164.29</ele>
        <time>2015-09-28T09:03:10Z</time>
      </trkpt>
      <trkpt lat="44.61961" lon="5.98427">
        <ele>1163.81</ele>
        <time>2015-09-28T09:03:24Z</time>
      </trkpt>
      <trkpt lat="44.6197" lon="5.9842">
        <ele>1164.77</ele>
        <time>2015-09-28T09:03:37Z</time>
      </trkpt>
      <trkpt lat="44.6198" lon="5.98417">
        <ele>1164.77</ele>
        <time>2015-09-28T09:03:47Z</time>
      </trkpt>
      <trkpt lat="44.61981" lon="5.98416">
        <ele>1164.77</ele>
        <time>2015-09-28T09:03:49Z</time>
      </trkpt>
      <trkpt lat="44.61994" lon="5.98414">
        <ele>1164.77</ele>
        <time>2015-09-28T09:04:02Z</time>
      </trkpt>
      <trkpt lat="44.61998" lon="5.98412">
        <ele>1165.26</ele>
        <time>2015-09-28T09:04:07Z</time>
      </trkpt>
      <trkpt lat="44.62008" lon="5.98407">
        <ele>1163.33</ele>
        <time>2015-09-28T09:04:20Z</time>
      </trkpt>
      <trkpt lat="44.62018" lon="5.98403">
        <ele>1162.37</ele>
        <time>2015-09-28T09:04:33Z</time>
      </trkpt>
      <trkpt lat="44.62026" lon="5.98399">
        <ele>1162.37</ele>
        <time>2015-09-28T09:04:44Z</time>
      </trkpt>
      <trkpt lat="44.62029" lon="5.98396">
        <ele>1162.37</ele>
        <time>2015-09-28T09:04:47Z</time>
      </trkpt>
      <trkpt lat="44.62035" lon="5.98389">
        <ele>1161.41</ele>
        <time>2015-09-28T09:04:56Z</time>
      </trkpt>
      <trkpt lat="44.62037" lon="5.98387">
        <ele>1160.93</ele>
        <time>2015-09-28T09:04:59Z</time>
      </trkpt>
      <trkpt lat="44.62049" lon="5.98383">
        <ele>1161.41</ele>
        <time>2015-09-28T09:05:13Z</time>
      </trkpt>
      <trkpt lat="44.62056" lon="5.98373">
        <ele>1161.89</ele>
        <time>2015-09-28T09:05:27Z</time>
      </trkpt>
      <trkpt lat="44.62054" lon="5.9838">
        <ele>1161.89</ele>
        <time>2015-09-28T09:05:45Z</time>
      </trkpt>
      <trkpt lat="44.62061" lon="5.98373">
        <ele>1162.37</ele>
        <time>2015-09-28T09:06:01Z</time>
      </trkpt>
      <trkpt lat="44.62068" lon="5.98368">
        <ele>1163.81</ele>
        <time>2015-09-28T09:06:11Z</time>
      </trkpt>
      <trkpt lat="44.62076" lon="5.98361">
        <ele>1164.29</ele>
        <time>2015-09-28T09:06:23Z</time>
      </trkpt>
      <trkpt lat="44.6208" lon="5.98357">
        <ele>1164.29</ele>
        <time>2015-09-28T09:06:29Z</time>
      </trkpt>
      <trkpt lat="44.62084" lon="5.98351">
        <ele>1162.85</ele>
        <time>2015-09-28T09:06:36Z</time>
      </trkpt>
      <trkpt lat="44.62092" lon="5.98342">
        <ele>1163.33</ele>
        <time>2015-09-28T09:06:49Z</time>
      </trkpt>
      <trkpt lat="44.62094" lon="5.98339">
        <ele>1163.33</ele>
        <time>2015-09-28T09:07:02Z</time>
      </trkpt>
      <trkpt lat="44.62094" lon="5.98338">
        <ele>1163.33</ele>
        <time>2015-09-28T09:07:05Z</time>
      </trkpt>
      <trkpt lat="44.62098" lon="5.98328">
        <ele>1161.89</ele>
        <time>2015-09-28T09:07:18Z</time>
      </trkpt>
      <trkpt lat="44.62101" lon="5.98318">
        <ele>1161.41</ele>
        <time>2015-09-28T09:07:28Z</time>
      </trkpt>
      <trkpt lat="44.62106" lon="5.98306">
        <ele>1161.41</ele>
        <time>2015-09-28T09:07:40Z</time>
      </trkpt>
      <trkpt lat="44.62112" lon="5.98295">
        <ele>1162.85</ele>
        <time>2015-09-28T09:07:53Z</time>
      </trkpt>
      <trkpt lat="44.62114" lon="5.98289">
        <ele>1163.81</ele>
        <time>2015-09-28T09:07:59Z</time>
      </trkpt>
      <trkpt lat="44.62121" lon="5.98282">
        <ele>1165.74</ele>
        <time>2015-09-28T09:08:11Z</time>
      </trkpt>
      <trkpt lat="44.62128" lon="5.98273">
        <ele>1166.7</ele>
        <time>2015-09-28T09:08:23Z</time>
      </trkpt>
      <trkpt lat="44.62135" lon="5.98265">
        <ele>1168.14</ele>
        <time>2015-09-28T09:08:36Z</time>
      </trkpt>
      <trkpt lat="44.62139" lon="5.98263">
        <ele>1169.58</ele>
        <time>2015-09-28T09:08:43Z</time>
      </trkpt>
      <trkpt lat="44.6215" lon="5.98263">
        <ele>1171.5</ele>
        <time>2015-09-28T09:08:59Z</time>
      </trkpt>
      <trkpt lat="44.62155" lon="5.98265">
        <ele>1173.91</ele>
        <time>2015-09-28T09:09:13Z</time>
      </trkpt>
      <trkpt lat="44.6216" lon="5.98273">
        <ele>1176.31</ele>
        <time>2015-09-28T09:09:26Z</time>
      </trkpt>
      <trkpt lat="44.62166" lon="5.98275">
        <ele>1178.23</ele>
        <time>2015-09-28T09:09:43Z</time>
      </trkpt>
      <trkpt lat="44.62172" lon="5.98281">
        <ele>1181.12</ele>
        <time>2015-09-28T09:09:59Z</time>
      </trkpt>
      <trkpt lat="44.62178" lon="5.98282">
        <ele>1181.6</ele>
        <time>2015-09-28T09:10:11Z</time>
      </trkpt>
      <trkpt lat="44.62184" lon="5.9828">
        <ele>1180.16</ele>
        <time>2015-09-28T09:10:28Z</time>
      </trkpt>
      <trkpt lat="44.62188" lon="5.9828">
        <ele>1179.67</ele>
        <time>2015-09-28T09:10:41Z</time>
      </trkpt>
      <trkpt lat="44.62185" lon="5.9828">
        <ele>1179.67</ele>
        <time>2015-09-28T09:10:57Z</time>
      </trkpt>
      <trkpt lat="44.62183" lon="5.98285">
        <ele>1180.16</ele>
        <time>2015-09-28T09:11:27Z</time>
      </trkpt>
      <trkpt lat="44.62183" lon="5.98284">
        <ele>1180.16</ele>
        <time>2015-09-28T09:11:52Z</time>
      </trkpt>
      <trkpt lat="44.62188" lon="5.98285">
        <ele>1179.67</ele>
        <time>2015-09-28T09:12:03Z</time>
      </trkpt>
      <trkpt lat="44.62199" lon="5.9829">
        <ele>1179.19</ele>
        <time>2015-09-28T09:12:15Z</time>
      </trkpt>
      <trkpt lat="44.62212" lon="5.98297">
        <ele>1179.19</ele>
        <time>2015-09-28T09:12:29Z</time>
      </trkpt>
      <trkpt lat="44.62219" lon="5.98298">
        <ele>1178.23</ele>
        <time>2015-09-28T09:12:38Z</time>
      </trkpt>
      <trkpt lat="44.62228" lon="5.98301">
        <ele>1176.79</ele>
        <time>2015-09-28T09:12:53Z</time>
      </trkpt>
      <trkpt lat="44.6223" lon="5.98305">
        <ele>1175.83</ele>
        <time>2015-09-28T09:13:08Z</time>
      </trkpt>
      <trkpt lat="44.62231" lon="5.98307">
        <ele>1175.83</ele>
        <time>2015-09-28T09:13:27Z</time>
      </trkpt>
      <trkpt lat="44.62234" lon="5.98306">
        <ele>1175.83</ele>
        <time>2015-09-28T09:13:48Z</time>
      </trkpt>
      <trkpt lat="44.62239" lon="5.98299">
        <ele>1172.47</ele>
        <time>2015-09-28T09:13:58Z</time>
      </trkpt>
      <trkpt lat="44.62252" lon="5.98283">
        <ele>1173.43</ele>
        <time>2015-09-28T09:14:12Z</time>
      </trkpt>
      <trkpt lat="44.62258" lon="5.98282">
        <ele>1173.43</ele>
        <time>2015-09-28T09:14:24Z</time>
      </trkpt>
      <trkpt lat="44.62261" lon="5.98288">
        <ele>1174.39</ele>
        <time>2015-09-28T09:14:29Z</time>
      </trkpt>
      <trkpt lat="44.62276" lon="5.9829">
        <ele>1176.31</ele>
        <time>2015-09-28T09:14:42Z</time>
      </trkpt>
      <trkpt lat="44.6228" lon="5.98287">
        <ele>1176.31</ele>
        <time>2015-09-28T09:14:47Z</time>
      </trkpt>
      <trkpt lat="44.62282" lon="5.98285">
        <ele>1176.31</ele>
        <time>2015-09-28T09:14:51Z</time>
      </trkpt>
      <trkpt lat="44.62283" lon="5.98282">
        <ele>1175.83</ele>
        <time>2015-09-28T09:14:54Z</time>
      </trkpt>
      <trkpt lat="44.62293" lon="5.98275">
        <ele>1176.31</ele>
        <time>2015-09-28T09:15:07Z</time>
      </trkpt>
      <trkpt lat="44.62294" lon="5.98276">
        <ele>1176.31</ele>
        <time>2015-09-28T09:15:08Z</time>
      </trkpt>
      <trkpt lat="44.623" lon="5.98274">
        <ele>1176.79</ele>
        <time>2015-09-28T09:15:15Z</time>
      </trkpt>
      <trkpt lat="44.62307" lon="5.98265">
        <ele>1178.23</ele>
        <time>2015-09-28T09:15:26Z</time>
      </trkpt>
      <trkpt lat="44.62316" lon="5.98266">
        <ele>1179.19</ele>
        <time>2015-09-28T09:15:39Z</time>
      </trkpt>
      <trkpt lat="44.62326" lon="5.98269">
        <ele>1180.16</ele>
        <time>2015-09-28T09:15:52Z</time>
      </trkpt>
      <trkpt lat="44.62334" lon="5.98268">
        <ele>1181.6</ele>
        <time>2015-09-28T09:16:04Z</time>
      </trkpt>
      <trkpt lat="44.62344" lon="5.98265">
        <ele>1181.12</ele>
        <time>2015-09-28T09:16:17Z</time>
      </trkpt>
      <trkpt lat="44.62349" lon="5.98263">
        <ele>1182.08</ele>
        <time>2015-09-28T09:16:26Z</time>
      </trkpt>
      <trkpt lat="44.62355" lon="5.98263">
        <ele>1184</ele>
        <time>2015-09-28T09:16:38Z</time>
      </trkpt>
      <trkpt lat="44.62363" lon="5.98262">
        <ele>1185.44</ele>
        <time>2015-09-28T09:16:49Z</time>
      </trkpt>
      <trkpt lat="44.62368" lon="5.98259">
        <ele>1185.92</ele>
        <time>2015-09-28T09:17:02Z</time>
      </trkpt>
      <trkpt lat="44.62367" lon="5.98254">
        <ele>1186.4</ele>
        <time>2015-09-28T09:17:16Z</time>
      </trkpt>
      <trkpt lat="44.6237" lon="5.98258">
        <ele>1186.88</ele>
        <time>2015-09-28T09:17:32Z</time>
      </trkpt>
      <trkpt lat="44.62378" lon="5.98274">
        <ele>1187.37</ele>
        <time>2015-09-28T09:17:44Z</time>
      </trkpt>
      <trkpt lat="44.62378" lon="5.98277">
        <ele>1187.37</ele>
        <time>2015-09-28T09:17:46Z</time>
      </trkpt>
      <trkpt lat="44.62381" lon="5.98288">
        <ele>1188.33</ele>
        <time>2015-09-28T09:18:01Z</time>
      </trkpt>
      <trkpt lat="44.62383" lon="5.98288">
        <ele>1189.29</ele>
        <time>2015-09-28T09:18:17Z</time>
      </trkpt>
      <trkpt lat="44.62384" lon="5.98289">
        <ele>1189.77</ele>
        <time>2015-09-28T09:18:18Z</time>
      </trkpt>
      <trkpt lat="44.62388" lon="5.98295">
        <ele>1189.77</ele>
        <time>2015-09-28T09:18:24Z</time>
      </trkpt>
      <trkpt lat="44.62392" lon="5.98298">
        <ele>1190.73</ele>
        <time>2015-09-28T09:18:30Z</time>
      </trkpt>
      <trkpt lat="44.62398" lon="5.98302">
        <ele>1191.69</ele>
        <time>2015-09-28T09:18:37Z</time>
      </trkpt>
      <trkpt lat="44.62402" lon="5.98311">
        <ele>1193.13</ele>
        <time>2015-09-28T09:18:49Z</time>
      </trkpt>
      <trkpt lat="44.62414" lon="5.98304">
        <ele>1193.61</ele>
        <time>2015-09-28T09:19:03Z</time>
      </trkpt>
      <trkpt lat="44.62422" lon="5.98311">
        <ele>1194.58</ele>
        <time>2015-09-28T09:19:16Z</time>
      </trkpt>
      <trkpt lat="44.62422" lon="5.98317">
        <ele>1194.58</ele>
        <time>2015-09-28T09:19:40Z</time>
      </trkpt>
      <trkpt lat="44.62424" lon="5.98318">
        <ele>1194.58</ele>
        <time>2015-09-28T09:19:50Z</time>
      </trkpt>
      <trkpt lat="44.62426" lon="5.98324">
        <ele>1195.54</ele>
        <time>2015-09-28T09:19:56Z</time>
      </trkpt>
      <trkpt lat="44.62427" lon="5.98336">
        <ele>1196.98</ele>
        <time>2015-09-28T09:20:10Z</time>
      </trkpt>
      <trkpt lat="44.62426" lon="5.98337">
        <ele>1197.94</ele>
        <time>2015-09-28T09:20:27Z</time>
      </trkpt>
      <trkpt lat="44.62429" lon="5.98337">
        <ele>1198.42</ele>
        <time>2015-09-28T09:20:44Z</time>
      </trkpt>
      <trkpt lat="44.62438" lon="5.98345">
        <ele>1199.86</ele>
        <time>2015-09-28T09:20:57Z</time>
      </trkpt>
      <trkpt lat="44.62441" lon="5.98341">
        <ele>1199.86</ele>
        <time>2015-09-28T09:21:15Z</time>
      </trkpt>
      <trkpt lat="44.62451" lon="5.98349">
        <ele>1200.82</ele>
        <time>2015-09-28T09:21:29Z</time>
      </trkpt>
      <trkpt lat="44.62458" lon="5.9836">
        <ele>1202.27</ele>
        <time>2015-09-28T09:21:45Z</time>
      </trkpt>
      <trkpt lat="44.62466" lon="5.98372">
        <ele>1202.75</ele>
        <time>2015-09-28T09:22:00Z</time>
      </trkpt>
      <trkpt lat="44.62471" lon="5.98371">
        <ele>1204.67</ele>
        <time>2015-09-28T09:22:13Z</time>
      </trkpt>
      <trkpt lat="44.62473" lon="5.98365">
        <ele>1206.59</ele>
        <time>2015-09-28T09:22:27Z</time>
      </trkpt>
      <trkpt lat="44.6248" lon="5.98375">
        <ele>1208.51</ele>
        <time>2015-09-28T09:22:42Z</time>
      </trkpt>
      <trkpt lat="44.62482" lon="5.98371">
        <ele>1208.51</ele>
        <time>2015-09-28T09:23:06Z</time>
      </trkpt>
      <trkpt lat="44.62489" lon="5.98369">
        <ele>1209.96</ele>
        <time>2015-09-28T09:23:19Z</time>
      </trkpt>
      <trkpt lat="44.62489" lon="5.98362">
        <ele>1209.96</ele>
        <time>2015-09-28T09:23:42Z</time>
      </trkpt>
      <trkpt lat="44.62495" lon="5.98362">
        <ele>1209.48</ele>
        <time>2015-09-28T09:24:06Z</time>
      </trkpt>
      <trkpt lat="44.6251" lon="5.98371">
        <ele>1211.88</ele>
        <time>2015-09-28T09:24:22Z</time>
      </trkpt>
      <trkpt lat="44.6252" lon="5.98374">
        <ele>1212.84</ele>
        <time>2015-09-28T09:24:40Z</time>
      </trkpt>
      <trkpt lat="44.62526" lon="5.98375">
        <ele>1214.28</ele>
        <time>2015-09-28T09:24:55Z</time>
      </trkpt>
      <trkpt lat="44.62534" lon="5.98383">
        <ele>1214.76</ele>
        <time>2015-09-28T09:25:08Z</time>
      </trkpt>
      <trkpt lat="44.62541" lon="5.98387">
        <ele>1215.72</ele>
        <time>2015-09-28T09:25:23Z</time>
      </trkpt>
      <trkpt lat="44.62548" lon="5.98397">
        <ele>1217.17</ele>
        <time>2015-09-28T09:25:36Z</time>
      </trkpt>
      <trkpt lat="44.62555" lon="5.98407">
        <ele>1216.69</ele>
        <time>2015-09-28T09:25:53Z</time>
      </trkpt>
      <trkpt lat="44.62558" lon="5.98408">
        <ele>1216.69</ele>
        <time>2015-09-28T09:26:08Z</time>
      </trkpt>
      <trkpt lat="44.62566" lon="5.98409">
        <ele>1217.65</ele>
        <time>2015-09-28T09:26:21Z</time>
      </trkpt>
      <trkpt lat="44.62564" lon="5.98421">
        <ele>1219.57</ele>
        <time>2015-09-28T09:26:33Z</time>
      </trkpt>
      <trkpt lat="44.62564" lon="5.98423">
        <ele>1220.05</ele>
        <time>2015-09-28T09:26:36Z</time>
      </trkpt>
      <trkpt lat="44.62569" lon="5.98435">
        <ele>1221.97</ele>
        <time>2015-09-28T09:26:49Z</time>
      </trkpt>
      <trkpt lat="44.62571" lon="5.98449">
        <ele>1223.42</ele>
        <time>2015-09-28T09:27:02Z</time>
      </trkpt>
      <trkpt lat="44.62574" lon="5.98463">
        <ele>1225.34</ele>
        <time>2015-09-28T09:27:15Z</time>
      </trkpt>
      <trkpt lat="44.62571" lon="5.98468">
        <ele>1225.82</ele>
        <time>2015-09-28T09:27:30Z</time>
      </trkpt>
      <trkpt lat="44.62577" lon="5.98477">
        <ele>1227.26</ele>
        <time>2015-09-28T09:27:48Z</time>
      </trkpt>
      <trkpt lat="44.62578" lon="5.98492">
        <ele>1229.18</ele>
        <time>2015-09-28T09:28:03Z</time>
      </trkpt>
      <trkpt lat="44.62582" lon="5.985">
        <ele>1230.62</ele>
        <time>2015-09-28T09:28:14Z</time>
      </trkpt>
      <trkpt lat="44.62585" lon="5.98509">
        <ele>1231.59</ele>
        <time>2015-09-28T09:28:25Z</time>
      </trkpt>
      <trkpt lat="44.6259" lon="5.98512">
        <ele>1233.03</ele>
        <time>2015-09-28T09:28:38Z</time>
      </trkpt>
      <trkpt lat="44.62604" lon="5.98515">
        <ele>1234.47</ele>
        <time>2015-09-28T09:28:58Z</time>
      </trkpt>
      <trkpt lat="44.62612" lon="5.98525">
        <ele>1236.87</ele>
        <time>2015-09-28T09:29:14Z</time>
      </trkpt>
      <trkpt lat="44.62612" lon="5.98532">
        <ele>1238.32</ele>
        <time>2015-09-28T09:29:29Z</time>
      </trkpt>
      <trkpt lat="44.62613" lon="5.98541">
        <ele>1239.28</ele>
        <time>2015-09-28T09:29:46Z</time>
      </trkpt>
      <trkpt lat="44.62617" lon="5.98557">
        <ele>1241.2</ele>
        <time>2015-09-28T09:30:00Z</time>
      </trkpt>
      <trkpt lat="44.62621" lon="5.98568">
        <ele>1243.6</ele>
        <time>2015-09-28T09:30:14Z</time>
      </trkpt>
      <trkpt lat="44.62629" lon="5.98574">
        <ele>1244.56</ele>
        <time>2015-09-28T09:30:31Z</time>
      </trkpt>
      <trkpt lat="44.62635" lon="5.98587">
        <ele>1246.01</ele>
        <time>2015-09-28T09:30:46Z</time>
      </trkpt>
      <trkpt lat="44.62642" lon="5.98595">
        <ele>1247.45</ele>
        <time>2015-09-28T09:31:03Z</time>
      </trkpt>
      <trkpt lat="44.62647" lon="5.98606">
        <ele>1248.89</ele>
        <time>2015-09-28T09:31:20Z</time>
      </trkpt>
      <trkpt lat="44.62651" lon="5.98617">
        <ele>1250.33</ele>
        <time>2015-09-28T09:31:33Z</time>
      </trkpt>
      <trkpt lat="44.6265" lon="5.98626">
        <ele>1251.77</ele>
        <time>2015-09-28T09:31:48Z</time>
      </trkpt>
      <trkpt lat="44.6265" lon="5.98639">
        <ele>1253.7</ele>
        <time>2015-09-28T09:32:05Z</time>
      </trkpt>
      <trkpt lat="44.6265" lon="5.98648">
        <ele>1255.14</ele>
        <time>2015-09-28T09:32:21Z</time>
      </trkpt>
      <trkpt lat="44.62658" lon="5.98664">
        <ele>1257.06</ele>
        <time>2015-09-28T09:32:39Z</time>
      </trkpt>
      <trkpt lat="44.62663" lon="5.98679">
        <ele>1258.02</ele>
        <time>2015-09-28T09:32:53Z</time>
      </trkpt>
      <trkpt lat="44.62671" lon="5.98687">
        <ele>1259.46</ele>
        <time>2015-09-28T09:33:11Z</time>
      </trkpt>
      <trkpt lat="44.62676" lon="5.9869">
        <ele>1261.39</ele>
        <time>2015-09-28T09:33:27Z</time>
      </trkpt>
      <trkpt lat="44.62687" lon="5.98687">
        <ele>1264.27</ele>
        <time>2015-09-28T09:33:47Z</time>
      </trkpt>
      <trkpt lat="44.62692" lon="5.98686">
        <ele>1266.67</ele>
        <time>2015-09-28T09:34:01Z</time>
      </trkpt>
      <trkpt lat="44.62697" lon="5.9868">
        <ele>1269.08</ele>
        <time>2015-09-28T09:34:17Z</time>
      </trkpt>
      <trkpt lat="44.62703" lon="5.98684">
        <ele>1272.44</ele>
        <time>2015-09-28T09:34:31Z</time>
      </trkpt>
      <trkpt lat="44.62704" lon="5.98685">
        <ele>1272.92</ele>
        <time>2015-09-28T09:34:44Z</time>
      </trkpt>
      <trkpt lat="44.62702" lon="5.98681">
        <ele>1272.92</ele>
        <time>2015-09-28T09:35:05Z</time>
      </trkpt>
      <trkpt lat="44.62701" lon="5.98681">
        <ele>1273.4</ele>
        <time>2015-09-28T09:35:21Z</time>
      </trkpt>
      <trkpt lat="44.62702" lon="5.98684">
        <ele>1273.88</ele>
        <time>2015-09-28T09:35:30Z</time>
      </trkpt>
      <trkpt lat="44.62704" lon="5.98687">
        <ele>1272.92</ele>
        <time>2015-09-28T09:35:46Z</time>
      </trkpt>
      <trkpt lat="44.62702" lon="5.98686">
        <ele>1272.44</ele>
        <time>2015-09-28T09:36:13Z</time>
      </trkpt>
      <trkpt lat="44.627" lon="5.98681">
        <ele>1273.4</ele>
        <time>2015-09-28T09:36:47Z</time>
      </trkpt>
      <trkpt lat="44.62698" lon="5.98685">
        <ele>1273.88</ele>
        <time>2015-09-28T09:37:02Z</time>
      </trkpt>
      <trkpt lat="44.62701" lon="5.98689">
        <ele>1274.36</ele>
        <time>2015-09-28T09:37:15Z</time>
      </trkpt>
      <trkpt lat="44.62699" lon="5.98702">
        <ele>1277.73</ele>
        <time>2015-09-28T09:37:30Z</time>
      </trkpt>
      <trkpt lat="44.62698" lon="5.98711">
        <ele>1281.09</ele>
        <time>2015-09-28T09:37:43Z</time>
      </trkpt>
      <trkpt lat="44.62697" lon="5.9872">
        <ele>1283.98</ele>
        <time>2015-09-28T09:37:59Z</time>
      </trkpt>
      <trkpt lat="44.62699" lon="5.98728">
        <ele>1286.38</ele>
        <time>2015-09-28T09:38:12Z</time>
      </trkpt>
      <trkpt lat="44.62702" lon="5.98739">
        <ele>1287.82</ele>
        <time>2015-09-28T09:38:27Z</time>
      </trkpt>
      <trkpt lat="44.62707" lon="5.98747">
        <ele>1288.78</ele>
        <time>2015-09-28T09:38:40Z</time>
      </trkpt>
      <trkpt lat="44.62713" lon="5.98755">
        <ele>1290.71</ele>
        <time>2015-09-28T09:38:53Z</time>
      </trkpt>
      <trkpt lat="44.62719" lon="5.98766">
        <ele>1292.63</ele>
        <time>2015-09-28T09:39:06Z</time>
      </trkpt>
      <trkpt lat="44.62722" lon="5.98773">
        <ele>1295.03</ele>
        <time>2015-09-28T09:39:19Z</time>
      </trkpt>
      <trkpt lat="44.62729" lon="5.9878">
        <ele>1296.96</ele>
        <time>2015-09-28T09:39:33Z</time>
      </trkpt>
      <trkpt lat="44.62734" lon="5.9878">
        <ele>1299.84</ele>
        <time>2015-09-28T09:39:46Z</time>
      </trkpt>
      <trkpt lat="44.62738" lon="5.98785">
        <ele>1301.76</ele>
        <time>2015-09-28T09:39:58Z</time>
      </trkpt>
      <trkpt lat="44.62739" lon="5.98786">
        <ele>1302.72</ele>
        <time>2015-09-28T09:40:13Z</time>
      </trkpt>
      <trkpt lat="44.62741" lon="5.9879">
        <ele>1304.65</ele>
        <time>2015-09-28T09:40:29Z</time>
      </trkpt>
      <trkpt lat="44.62748" lon="5.98792">
        <ele>1307.53</ele>
        <time>2015-09-28T09:40:44Z</time>
      </trkpt>
      <trkpt lat="44.62749" lon="5.98787">
        <ele>1308.49</ele>
        <time>2015-09-28T09:41:00Z</time>
      </trkpt>
      <trkpt lat="44.62755" lon="5.98791">
        <ele>1308.49</ele>
        <time>2015-09-28T09:41:08Z</time>
      </trkpt>
      <trkpt lat="44.62758" lon="5.98791">
        <ele>1308.01</ele>
        <time>2015-09-28T09:41:12Z</time>
      </trkpt>
      <trkpt lat="44.62769" lon="5.988">
        <ele>1310.9</ele>
        <time>2015-09-28T09:41:29Z</time>
      </trkpt>
      <trkpt lat="44.62776" lon="5.98802">
        <ele>1313.3</ele>
        <time>2015-09-28T09:41:42Z</time>
      </trkpt>
      <trkpt lat="44.62785" lon="5.98804">
        <ele>1315.22</ele>
        <time>2015-09-28T09:41:56Z</time>
      </trkpt>
      <trkpt lat="44.6279" lon="5.98806">
        <ele>1317.14</ele>
        <time>2015-09-28T09:42:08Z</time>
      </trkpt>
      <trkpt lat="44.62802" lon="5.98811">
        <ele>1319.55</ele>
        <time>2015-09-28T09:42:25Z</time>
      </trkpt>
      <trkpt lat="44.62811" lon="5.98813">
        <ele>1321.95</ele>
        <time>2015-09-28T09:42:42Z</time>
      </trkpt>
      <trkpt lat="44.62813" lon="5.98813">
        <ele>1322.91</ele>
        <time>2015-09-28T09:43:03Z</time>
      </trkpt>
      <trkpt lat="44.62821" lon="5.98817">
        <ele>1325.31</ele>
        <time>2015-09-28T09:43:19Z</time>
      </trkpt>
      <trkpt lat="44.62827" lon="5.98819">
        <ele>1327.24</ele>
        <time>2015-09-28T09:43:34Z</time>
      </trkpt>
      <trkpt lat="44.62831" lon="5.98818">
        <ele>1330.12</ele>
        <time>2015-09-28T09:43:50Z</time>
      </trkpt>
      <trkpt lat="44.62836" lon="5.98822">
        <ele>1333.01</ele>
        <time>2015-09-28T09:44:06Z</time>
      </trkpt>
      <trkpt lat="44.62843" lon="5.98825">
        <ele>1335.89</ele>
        <time>2015-09-28T09:44:23Z</time>
      </trkpt>
      <trkpt lat="44.6285" lon="5.9883">
        <ele>1338.29</ele>
        <time>2015-09-28T09:44:40Z</time>
      </trkpt>
      <trkpt lat="44.62854" lon="5.98834">
        <ele>1340.22</ele>
        <time>2015-09-28T09:44:59Z</time>
      </trkpt>
      <trkpt lat="44.62859" lon="5.98837">
        <ele>1341.66</ele>
        <time>2015-09-28T09:45:10Z</time>
      </trkpt>
      <trkpt lat="44.62866" lon="5.98841">
        <ele>1344.06</ele>
        <time>2015-09-28T09:45:26Z</time>
      </trkpt>
      <trkpt lat="44.62874" lon="5.98846">
        <ele>1346.94</ele>
        <time>2015-09-28T09:45:45Z</time>
      </trkpt>
      <trkpt lat="44.62878" lon="5.98851">
        <ele>1348.87</ele>
        <time>2015-09-28T09:45:58Z</time>
      </trkpt>
      <trkpt lat="44.62881" lon="5.98855">
        <ele>1349.83</ele>
        <time>2015-09-28T09:46:16Z</time>
      </trkpt>
      <trkpt lat="44.62889" lon="5.98862">
        <ele>1352.23</ele>
        <time>2015-09-28T09:46:31Z</time>
      </trkpt>
      <trkpt lat="44.62893" lon="5.98865">
        <ele>1354.63</ele>
        <time>2015-09-28T09:46:46Z</time>
      </trkpt>
      <trkpt lat="44.62897" lon="5.98868">
        <ele>1356.08</ele>
        <time>2015-09-28T09:46:56Z</time>
      </trkpt>
      <trkpt lat="44.62902" lon="5.98871">
        <ele>1358</ele>
        <time>2015-09-28T09:47:12Z</time>
      </trkpt>
      <trkpt lat="44.6291" lon="5.98875">
        <ele>1360.4</ele>
        <time>2015-09-28T09:47:26Z</time>
      </trkpt>
      <trkpt lat="44.62913" lon="5.98879">
        <ele>1362.33</ele>
        <time>2015-09-28T09:47:41Z</time>
      </trkpt>
      <trkpt lat="44.6292" lon="5.98884">
        <ele>1364.73</ele>
        <time>2015-09-28T09:47:57Z</time>
      </trkpt>
      <trkpt lat="44.62923" lon="5.9889">
        <ele>1366.65</ele>
        <time>2015-09-28T09:48:12Z</time>
      </trkpt>
      <trkpt lat="44.62922" lon="5.98891">
        <ele>1367.61</ele>
        <time>2015-09-28T09:48:27Z</time>
      </trkpt>
      <trkpt lat="44.62926" lon="5.98889">
        <ele>1368.09</ele>
        <time>2015-09-28T09:48:41Z</time>
      </trkpt>
      <trkpt lat="44.62934" lon="5.98893">
        <ele>1369.54</ele>
        <time>2015-09-28T09:48:54Z</time>
      </trkpt>
      <trkpt lat="44.6294" lon="5.98898">
        <ele>1371.46</ele>
        <time>2015-09-28T09:49:07Z</time>
      </trkpt>
      <trkpt lat="44.62947" lon="5.98903">
        <ele>1372.42</ele>
        <time>2015-09-28T09:49:19Z</time>
      </trkpt>
      <trkpt lat="44.62955" lon="5.98905">
        <ele>1373.86</ele>
        <time>2015-09-28T09:49:32Z</time>
      </trkpt>
      <trkpt lat="44.62961" lon="5.98907">
        <ele>1374.34</ele>
        <time>2015-09-28T09:49:44Z</time>
      </trkpt>
      <trkpt lat="44.62967" lon="5.98908">
        <ele>1374.34</ele>
        <time>2015-09-28T09:49:58Z</time>
      </trkpt>
      <trkpt lat="44.62972" lon="5.98909">
        <ele>1375.3</ele>
        <time>2015-09-28T09:50:11Z</time>
      </trkpt>
      <trkpt lat="44.62979" lon="5.98907">
        <ele>1375.78</ele>
        <time>2015-09-28T09:50:26Z</time>
      </trkpt>
      <trkpt lat="44.62985" lon="5.9891">
        <ele>1377.23</ele>
        <time>2015-09-28T09:50:39Z</time>
      </trkpt>
      <trkpt lat="44.62987" lon="5.98909">
        <ele>1377.71</ele>
        <time>2015-09-28T09:50:52Z</time>
      </trkpt>
      <trkpt lat="44.62992" lon="5.98909">
        <ele>1378.19</ele>
        <time>2015-09-28T09:51:09Z</time>
      </trkpt>
      <trkpt lat="44.62996" lon="5.98913">
        <ele>1381.07</ele>
        <time>2015-09-28T09:51:24Z</time>
      </trkpt>
      <trkpt lat="44.63002" lon="5.98909">
        <ele>1382.03</ele>
        <time>2015-09-28T09:51:36Z</time>
      </trkpt>
      <trkpt lat="44.63008" lon="5.98912">
        <ele>1383.47</ele>
        <time>2015-09-28T09:51:49Z</time>
      </trkpt>
      <trkpt lat="44.63013" lon="5.98915">
        <ele>1384.92</ele>
        <time>2015-09-28T09:52:03Z</time>
      </trkpt>
      <trkpt lat="44.63018" lon="5.98917">
        <ele>1386.36</ele>
        <time>2015-09-28T09:52:17Z</time>
      </trkpt>
      <trkpt lat="44.63026" lon="5.98919">
        <ele>1388.76</ele>
        <time>2015-09-28T09:52:35Z</time>
      </trkpt>
      <trkpt lat="44.63031" lon="5.98918">
        <ele>1389.72</ele>
        <time>2015-09-28T09:52:52Z</time>
      </trkpt>
      <trkpt lat="44.63037" lon="5.98917">
        <ele>1392.61</ele>
        <time>2015-09-28T09:53:05Z</time>
      </trkpt>
      <trkpt lat="44.63039" lon="5.98918">
        <ele>1394.05</ele>
        <time>2015-09-28T09:53:19Z</time>
      </trkpt>
      <trkpt lat="44.63037" lon="5.98916">
        <ele>1395.01</ele>
        <time>2015-09-28T09:53:32Z</time>
      </trkpt>
      <trkpt lat="44.63035" lon="5.98914">
        <ele>1395.97</ele>
        <time>2015-09-28T09:53:48Z</time>
      </trkpt>
      <trkpt lat="44.63036" lon="5.98912">
        <ele>1396.45</ele>
        <time>2015-09-28T09:54:05Z</time>
      </trkpt>
      <trkpt lat="44.6304" lon="5.98914">
        <ele>1396.93</ele>
        <time>2015-09-28T09:54:17Z</time>
      </trkpt>
      <trkpt lat="44.63041" lon="5.98913">
        <ele>1397.41</ele>
        <time>2015-09-28T09:54:31Z</time>
      </trkpt>
      <trkpt lat="44.63044" lon="5.9891">
        <ele>1399.82</ele>
        <time>2015-09-28T09:54:41Z</time>
      </trkpt>
      <trkpt lat="44.63049" lon="5.98906">
        <ele>1403.18</ele>
        <time>2015-09-28T09:54:51Z</time>
      </trkpt>
      <trkpt lat="44.6305" lon="5.98903">
        <ele>1403.18</ele>
        <time>2015-09-28T09:55:03Z</time>
      </trkpt>
      <trkpt lat="44.63053" lon="5.98898">
        <ele>1404.62</ele>
        <time>2015-09-28T09:55:15Z</time>
      </trkpt>
      <trkpt lat="44.63052" lon="5.98892">
        <ele>1407.51</ele>
        <time>2015-09-28T09:55:30Z</time>
      </trkpt>
      <trkpt lat="44.63051" lon="5.98892">
        <ele>1406.55</ele>
        <time>2015-09-28T09:55:50Z</time>
      </trkpt>
      <trkpt lat="44.63053" lon="5.98894">
        <ele>1406.55</ele>
        <time>2015-09-28T09:56:07Z</time>
      </trkpt>
      <trkpt lat="44.6305" lon="5.98895">
        <ele>1406.55</ele>
        <time>2015-09-28T09:56:29Z</time>
      </trkpt>
      <trkpt lat="44.63051" lon="5.98893">
        <ele>1407.03</ele>
        <time>2015-09-28T09:56:41Z</time>
      </trkpt>
      <trkpt lat="44.63052" lon="5.98896">
        <ele>1406.07</ele>
        <time>2015-09-28T09:56:54Z</time>
      </trkpt>
      <trkpt lat="44.63051" lon="5.989">
        <ele>1405.58</ele>
        <time>2015-09-28T09:57:14Z</time>
      </trkpt>
      <trkpt lat="44.63054" lon="5.98901">
        <ele>1405.58</ele>
        <time>2015-09-28T09:57:43Z</time>
      </trkpt>
      <trkpt lat="44.63054" lon="5.98899">
        <ele>1405.58</ele>
        <time>2015-09-28T09:58:00Z</time>
      </trkpt>
      <trkpt lat="44.63053" lon="5.989">
        <ele>1405.58</ele>
        <time>2015-09-28T09:58:25Z</time>
      </trkpt>
      <trkpt lat="44.63054" lon="5.98898">
        <ele>1406.07</ele>
        <time>2015-09-28T09:58:53Z</time>
      </trkpt>
      <trkpt lat="44.63054" lon="5.98897">
        <ele>1406.07</ele>
        <time>2015-09-28T09:59:23Z</time>
      </trkpt>
      <trkpt lat="44.63057" lon="5.98896">
        <ele>1406.07</ele>
        <time>2015-09-28T09:59:54Z</time>
      </trkpt>
      <trkpt lat="44.63055" lon="5.98896">
        <ele>1406.07</ele>
        <time>2015-09-28T10:00:26Z</time>
      </trkpt>
      <trkpt lat="44.63054" lon="5.98898">
        <ele>1406.07</ele>
        <time>2015-09-28T10:00:59Z</time>
      </trkpt>
      <trkpt lat="44.63055" lon="5.98897">
        <ele>1406.07</ele>
        <time>2015-09-28T10:01:22Z</time>
      </trkpt>
      <trkpt lat="44.63056" lon="5.98896">
        <ele>1406.07</ele>
        <time>2015-09-28T10:01:42Z</time>
      </trkpt>
      <trkpt lat="44.63054" lon="5.98899">
        <ele>1405.1</ele>
        <time>2015-09-28T10:02:05Z</time>
      </trkpt>
      <trkpt lat="44.63058" lon="5.98902">
        <ele>1404.62</ele>
        <time>2015-09-28T10:02:20Z</time>
      </trkpt>
      <trkpt lat="44.6306" lon="5.98902">
        <ele>1403.66</ele>
        <time>2015-09-28T10:02:41Z</time>
      </trkpt>
      <trkpt lat="44.63062" lon="5.98905">
        <ele>1403.18</ele>
        <time>2015-09-28T10:02:55Z</time>
      </trkpt>
      <trkpt lat="44.63062" lon="5.989">
        <ele>1402.22</ele>
        <time>2015-09-28T10:03:11Z</time>
      </trkpt>
      <trkpt lat="44.63063" lon="5.989">
        <ele>1401.26</ele>
        <time>2015-09-28T10:03:25Z</time>
      </trkpt>
      <trkpt lat="44.63064" lon="5.98899">
        <ele>1401.26</ele>
        <time>2015-09-28T10:03:43Z</time>
      </trkpt>
      <trkpt lat="44.63064" lon="5.98898">
        <ele>1400.78</ele>
        <time>2015-09-28T10:03:57Z</time>
      </trkpt>
      <trkpt lat="44.63067" lon="5.98902">
        <ele>1399.34</ele>
        <time>2015-09-28T10:04:11Z</time>
      </trkpt>
      <trkpt lat="44.63067" lon="5.98908">
        <ele>1398.37</ele>
        <time>2015-09-28T10:04:24Z</time>
      </trkpt>
      <trkpt lat="44.63066" lon="5.98907">
        <ele>1398.37</ele>
        <time>2015-09-28T10:04:43Z</time>
      </trkpt>
      <trkpt lat="44.63067" lon="5.98919">
        <ele>1396.45</ele>
        <time>2015-09-28T10:04:57Z</time>
      </trkpt>
      <trkpt lat="44.63069" lon="5.98924">
        <ele>1394.53</ele>
        <time>2015-09-28T10:05:09Z</time>
      </trkpt>
      <trkpt lat="44.63068" lon="5.98932">
        <ele>1393.09</ele>
        <time>2015-09-28T10:05:24Z</time>
      </trkpt>
      <trkpt lat="44.63068" lon="5.98937">
        <ele>1392.61</ele>
        <time>2015-09-28T10:05:40Z</time>
      </trkpt>
      <trkpt lat="44.6307" lon="5.98946">
        <ele>1391.65</ele>
        <time>2015-09-28T10:05:58Z</time>
      </trkpt>
      <trkpt lat="44.63073" lon="5.98951">
        <ele>1390.2</ele>
        <time>2015-09-28T10:06:12Z</time>
      </trkpt>
      <trkpt lat="44.63072" lon="5.98956">
        <ele>1389.24</ele>
        <time>2015-09-28T10:06:26Z</time>
      </trkpt>
      <trkpt lat="44.63078" lon="5.98967">
        <ele>1387.32</ele>
        <time>2015-09-28T10:06:40Z</time>
      </trkpt>
      <trkpt lat="44.63078" lon="5.9897">
        <ele>1386.84</ele>
        <time>2015-09-28T10:06:53Z</time>
      </trkpt>
      <trkpt lat="44.63081" lon="5.98975">
        <ele>1386.84</ele>
        <time>2015-09-28T10:07:07Z</time>
      </trkpt>
      <trkpt lat="44.63081" lon="5.98979">
        <ele>1386.36</ele>
        <time>2015-09-28T10:07:19Z</time>
      </trkpt>
      <trkpt lat="44.63081" lon="5.9898">
        <ele>1386.36</ele>
        <time>2015-09-28T10:07:34Z</time>
      </trkpt>
      <trkpt lat="44.63086" lon="5.98988">
        <ele>1385.88</ele>
        <time>2015-09-28T10:07:45Z</time>
      </trkpt>
      <trkpt lat="44.63087" lon="5.99">
        <ele>1387.32</ele>
        <time>2015-09-28T10:08:00Z</time>
      </trkpt>
      <trkpt lat="44.63088" lon="5.99007">
        <ele>1386.36</ele>
        <time>2015-09-28T10:08:16Z</time>
      </trkpt>
      <trkpt lat="44.63088" lon="5.99008">
        <ele>1385.88</ele>
        <time>2015-09-28T10:08:32Z</time>
      </trkpt>
      <trkpt lat="44.63088" lon="5.99008">
        <ele>1385.88</ele>
        <time>2015-09-28T10:08:51Z</time>
      </trkpt>
      <trkpt lat="44.63088" lon="5.99017">
        <ele>1385.4</ele>
        <time>2015-09-28T10:09:03Z</time>
      </trkpt>
      <trkpt lat="44.63088" lon="5.99028">
        <ele>1385.88</ele>
        <time>2015-09-28T10:09:18Z</time>
      </trkpt>
      <trkpt lat="44.63086" lon="5.99039">
        <ele>1388.28</ele>
        <time>2015-09-28T10:09:34Z</time>
      </trkpt>
      <trkpt lat="44.63083" lon="5.99044">
        <ele>1389.72</ele>
        <time>2015-09-28T10:09:47Z</time>
      </trkpt>
      <trkpt lat="44.63083" lon="5.99047">
        <ele>1390.2</ele>
        <time>2015-09-28T10:10:00Z</time>
      </trkpt>
      <trkpt lat="44.63079" lon="5.99052">
        <ele>1392.13</ele>
        <time>2015-09-28T10:10:17Z</time>
      </trkpt>
      <trkpt lat="44.6308" lon="5.99056">
        <ele>1393.09</ele>
        <time>2015-09-28T10:10:30Z</time>
      </trkpt>
      <trkpt lat="44.6308" lon="5.99063">
        <ele>1394.05</ele>
        <time>2015-09-28T10:10:43Z</time>
      </trkpt>
      <trkpt lat="44.6308" lon="5.99077">
        <ele>1395.49</ele>
        <time>2015-09-28T10:11:01Z</time>
      </trkpt>
      <trkpt lat="44.63078" lon="5.99077">
        <ele>1395.49</ele>
        <time>2015-09-28T10:11:14Z</time>
      </trkpt>
      <trkpt lat="44.63077" lon="5.99079">
        <ele>1395.97</ele>
        <time>2015-09-28T10:11:32Z</time>
      </trkpt>
      <trkpt lat="44.63081" lon="5.99077">
        <ele>1396.45</ele>
        <time>2015-09-28T10:11:50Z</time>
      </trkpt>
      <trkpt lat="44.63079" lon="5.99075">
        <ele>1396.45</ele>
        <time>2015-09-28T10:12:06Z</time>
      </trkpt>
      <trkpt lat="44.63082" lon="5.99079">
        <ele>1396.45</ele>
        <time>2015-09-28T10:12:26Z</time>
      </trkpt>
      <trkpt lat="44.63083" lon="5.99087">
        <ele>1397.41</ele>
        <time>2015-09-28T10:12:42Z</time>
      </trkpt>
      <trkpt lat="44.63087" lon="5.99086">
        <ele>1397.89</ele>
        <time>2015-09-28T10:13:01Z</time>
      </trkpt>
      <trkpt lat="44.63086" lon="5.99096">
        <ele>1398.86</ele>
        <time>2015-09-28T10:13:15Z</time>
      </trkpt>
      <trkpt lat="44.63084" lon="5.99103">
        <ele>1399.82</ele>
        <time>2015-09-28T10:13:30Z</time>
      </trkpt>
      <trkpt lat="44.63082" lon="5.99105">
        <ele>1400.3</ele>
        <time>2015-09-28T10:13:42Z</time>
      </trkpt>
      <trkpt lat="44.63081" lon="5.99115">
        <ele>1401.26</ele>
        <time>2015-09-28T10:13:56Z</time>
      </trkpt>
      <trkpt lat="44.63082" lon="5.9912">
        <ele>1400.78</ele>
        <time>2015-09-28T10:14:12Z</time>
      </trkpt>
      <trkpt lat="44.63082" lon="5.99121">
        <ele>1401.74</ele>
        <time>2015-09-28T10:14:37Z</time>
      </trkpt>
      <trkpt lat="44.63083" lon="5.99122">
        <ele>1401.26</ele>
        <time>2015-09-28T10:14:55Z</time>
      </trkpt>
      <trkpt lat="44.63082" lon="5.99127">
        <ele>1400.78</ele>
        <time>2015-09-28T10:15:08Z</time>
      </trkpt>
      <trkpt lat="44.63081" lon="5.99136">
        <ele>1401.74</ele>
        <time>2015-09-28T10:15:23Z</time>
      </trkpt>
      <trkpt lat="44.63083" lon="5.99146">
        <ele>1402.7</ele>
        <time>2015-09-28T10:15:38Z</time>
      </trkpt>
      <trkpt lat="44.63085" lon="5.99158">
        <ele>1404.62</ele>
        <time>2015-09-28T10:15:56Z</time>
      </trkpt>
      <trkpt lat="44.63084" lon="5.9917">
        <ele>1403.66</ele>
        <time>2015-09-28T10:16:11Z</time>
      </trkpt>
      <trkpt lat="44.63083" lon="5.99182">
        <ele>1405.1</ele>
        <time>2015-09-28T10:16:25Z</time>
      </trkpt>
      <trkpt lat="44.63079" lon="5.99195">
        <ele>1406.07</ele>
        <time>2015-09-28T10:16:39Z</time>
      </trkpt>
      <trkpt lat="44.63077" lon="5.99205">
        <ele>1407.03</ele>
        <time>2015-09-28T10:16:52Z</time>
      </trkpt>
      <trkpt lat="44.63078" lon="5.99209">
        <ele>1407.51</ele>
        <time>2015-09-28T10:17:05Z</time>
      </trkpt>
      <trkpt lat="44.63079" lon="5.99212">
        <ele>1407.51</ele>
        <time>2015-09-28T10:17:21Z</time>
      </trkpt>
      <trkpt lat="44.63076" lon="5.99217">
        <ele>1406.55</ele>
        <time>2015-09-28T10:17:34Z</time>
      </trkpt>
      <trkpt lat="44.63076" lon="5.99224">
        <ele>1406.55</ele>
        <time>2015-09-28T10:17:48Z</time>
      </trkpt>
      <trkpt lat="44.63076" lon="5.99228">
        <ele>1407.03</ele>
        <time>2015-09-28T10:18:00Z</time>
      </trkpt>
      <trkpt lat="44.63076" lon="5.99241">
        <ele>1406.55</ele>
        <time>2015-09-28T10:18:14Z</time>
      </trkpt>
      <trkpt lat="44.63076" lon="5.99249">
        <ele>1407.03</ele>
        <time>2015-09-28T10:18:25Z</time>
      </trkpt>
      <trkpt lat="44.6308" lon="5.99254">
        <ele>1406.55</ele>
        <time>2015-09-28T10:18:32Z</time>
      </trkpt>
      <trkpt lat="44.63076" lon="5.99263">
        <ele>1406.55</ele>
        <time>2015-09-28T10:18:46Z</time>
      </trkpt>
      <trkpt lat="44.63079" lon="5.99269">
        <ele>1406.55</ele>
        <time>2015-09-28T10:18:59Z</time>
      </trkpt>
      <trkpt lat="44.63082" lon="5.99274">
        <ele>1407.51</ele>
        <time>2015-09-28T10:19:13Z</time>
      </trkpt>
      <trkpt lat="44.63085" lon="5.99286">
        <ele>1409.43</ele>
        <time>2015-09-28T10:19:26Z</time>
      </trkpt>
      <trkpt lat="44.63082" lon="5.99298">
        <ele>1410.39</ele>
        <time>2015-09-28T10:19:42Z</time>
      </trkpt>
      <trkpt lat="44.63082" lon="5.99306">
        <ele>1411.83</ele>
        <time>2015-09-28T10:19:56Z</time>
      </trkpt>
      <trkpt lat="44.63077" lon="5.99312">
        <ele>1415.2</ele>
        <time>2015-09-28T10:20:12Z</time>
      </trkpt>
      <trkpt lat="44.63077" lon="5.9932">
        <ele>1416.64</ele>
        <time>2015-09-28T10:20:26Z</time>
      </trkpt>
      <trkpt lat="44.63078" lon="5.99328">
        <ele>1418.56</ele>
        <time>2015-09-28T10:20:40Z</time>
      </trkpt>
      <trkpt lat="44.63076" lon="5.99333">
        <ele>1420.49</ele>
        <time>2015-09-28T10:20:55Z</time>
      </trkpt>
      <trkpt lat="44.63075" lon="5.99329">
        <ele>1420.49</ele>
        <time>2015-09-28T10:21:16Z</time>
      </trkpt>
      <trkpt lat="44.63078" lon="5.99338">
        <ele>1420.97</ele>
        <time>2015-09-28T10:21:35Z</time>
      </trkpt>
      <trkpt lat="44.63074" lon="5.9935">
        <ele>1421.93</ele>
        <time>2015-09-28T10:21:48Z</time>
      </trkpt>
      <trkpt lat="44.63071" lon="5.99358">
        <ele>1422.89</ele>
        <time>2015-09-28T10:22:05Z</time>
      </trkpt>
      <trkpt lat="44.6307" lon="5.99366">
        <ele>1424.33</ele>
        <time>2015-09-28T10:22:20Z</time>
      </trkpt>
      <trkpt lat="44.6307" lon="5.99379">
        <ele>1425.77</ele>
        <time>2015-09-28T10:22:35Z</time>
      </trkpt>
      <trkpt lat="44.63068" lon="5.99382">
        <ele>1426.73</ele>
        <time>2015-09-28T10:22:48Z</time>
      </trkpt>
      <trkpt lat="44.63071" lon="5.99389">
        <ele>1427.7</ele>
        <time>2015-09-28T10:23:03Z</time>
      </trkpt>
      <trkpt lat="44.63072" lon="5.99401">
        <ele>1429.14</ele>
        <time>2015-09-28T10:23:22Z</time>
      </trkpt>
      <trkpt lat="44.6307" lon="5.99409">
        <ele>1431.06</ele>
        <time>2015-09-28T10:23:36Z</time>
      </trkpt>
      <trkpt lat="44.63067" lon="5.99418">
        <ele>1432.5</ele>
        <time>2015-09-28T10:23:50Z</time>
      </trkpt>
      <trkpt lat="44.63065" lon="5.99428">
        <ele>1433.94</ele>
        <time>2015-09-28T10:24:05Z</time>
      </trkpt>
      <trkpt lat="44.63064" lon="5.99434">
        <ele>1436.35</ele>
        <time>2015-09-28T10:24:20Z</time>
      </trkpt>
      <trkpt lat="44.63063" lon="5.9944">
        <ele>1438.75</ele>
        <time>2015-09-28T10:24:36Z</time>
      </trkpt>
      <trkpt lat="44.63066" lon="5.99444">
        <ele>1439.23</ele>
        <time>2015-09-28T10:24:54Z</time>
      </trkpt>
      <trkpt lat="44.63064" lon="5.99449">
        <ele>1441.15</ele>
        <time>2015-09-28T10:25:12Z</time>
      </trkpt>
      <trkpt lat="44.63061" lon="5.99458">
        <ele>1442.6</ele>
        <time>2015-09-28T10:25:27Z</time>
      </trkpt>
      <trkpt lat="44.6306" lon="5.99464">
        <ele>1444.04</ele>
        <time>2015-09-28T10:25:48Z</time>
      </trkpt>
      <trkpt lat="44.63056" lon="5.99458">
        <ele>1444.04</ele>
        <time>2015-09-28T10:26:13Z</time>
      </trkpt>
      <trkpt lat="44.63049" lon="5.99455">
        <ele>1444.04</ele>
        <time>2015-09-28T10:26:45Z</time>
      </trkpt>
      <trkpt lat="44.63053" lon="5.99451">
        <ele>1444.52</ele>
        <time>2015-09-28T10:27:19Z</time>
      </trkpt>
      <trkpt lat="44.63053" lon="5.99453">
        <ele>1444.52</ele>
        <time>2015-09-28T10:27:57Z</time>
      </trkpt>
      <trkpt lat="44.63056" lon="5.9947">
        <ele>1447.4</ele>
        <time>2015-09-28T10:28:13Z</time>
      </trkpt>
      <trkpt lat="44.63058" lon="5.99483">
        <ele>1448.84</ele>
        <time>2015-09-28T10:28:26Z</time>
      </trkpt>
      <trkpt lat="44.63057" lon="5.99497">
        <ele>1449.81</ele>
        <time>2015-09-28T10:28:43Z</time>
      </trkpt>
      <trkpt lat="44.63057" lon="5.99506">
        <ele>1451.73</ele>
        <time>2015-09-28T10:28:57Z</time>
      </trkpt>
      <trkpt lat="44.63059" lon="5.99511">
        <ele>1452.21</ele>
        <time>2015-09-28T10:29:12Z</time>
      </trkpt>
      <trkpt lat="44.63059" lon="5.99524">
        <ele>1454.61</ele>
        <time>2015-09-28T10:29:30Z</time>
      </trkpt>
      <trkpt lat="44.63061" lon="5.99535">
        <ele>1456.53</ele>
        <time>2015-09-28T10:29:45Z</time>
      </trkpt>
      <trkpt lat="44.63064" lon="5.99546">
        <ele>1457.02</ele>
        <time>2015-09-28T10:29:59Z</time>
      </trkpt>
      <trkpt lat="44.63066" lon="5.99555">
        <ele>1457.5</ele>
        <time>2015-09-28T10:30:13Z</time>
      </trkpt>
      <trkpt lat="44.63069" lon="5.99565">
        <ele>1457.5</ele>
        <time>2015-09-28T10:30:27Z</time>
      </trkpt>
      <trkpt lat="44.63072" lon="5.99581">
        <ele>1458.46</ele>
        <time>2015-09-28T10:30:43Z</time>
      </trkpt>
      <trkpt lat="44.63071" lon="5.99599">
        <ele>1460.38</ele>
        <time>2015-09-28T10:30:58Z</time>
      </trkpt>
      <trkpt lat="44.63077" lon="5.99609">
        <ele>1462.3</ele>
        <time>2015-09-28T10:31:11Z</time>
      </trkpt>
      <trkpt lat="44.63079" lon="5.9962">
        <ele>1464.23</ele>
        <time>2015-09-28T10:31:25Z</time>
      </trkpt>
      <trkpt lat="44.63081" lon="5.9963">
        <ele>1466.63</ele>
        <time>2015-09-28T10:31:40Z</time>
      </trkpt>
      <trkpt lat="44.63089" lon="5.9965">
        <ele>1469.51</ele>
        <time>2015-09-28T10:31:58Z</time>
      </trkpt>
      <trkpt lat="44.63093" lon="5.99658">
        <ele>1471.44</ele>
        <time>2015-09-28T10:32:14Z</time>
      </trkpt>
      <trkpt lat="44.63096" lon="5.99661">
        <ele>1470.95</ele>
        <time>2015-09-28T10:32:31Z</time>
      </trkpt>
      <trkpt lat="44.63096" lon="5.9967">
        <ele>1472.88</ele>
        <time>2015-09-28T10:32:48Z</time>
      </trkpt>
      <trkpt lat="44.63094" lon="5.99679">
        <ele>1475.28</ele>
        <time>2015-09-28T10:33:01Z</time>
      </trkpt>
      <trkpt lat="44.631" lon="5.99687">
        <ele>1477.68</ele>
        <time>2015-09-28T10:33:19Z</time>
      </trkpt>
      <trkpt lat="44.63102" lon="5.99702">
        <ele>1479.61</ele>
        <time>2015-09-28T10:33:35Z</time>
      </trkpt>
      <trkpt lat="44.63104" lon="5.99709">
        <ele>1481.05</ele>
        <time>2015-09-28T10:33:51Z</time>
      </trkpt>
      <trkpt lat="44.63103" lon="5.99722">
        <ele>1482.49</ele>
        <time>2015-09-28T10:34:08Z</time>
      </trkpt>
      <trkpt lat="44.63102" lon="5.99735">
        <ele>1484.89</ele>
        <time>2015-09-28T10:34:26Z</time>
      </trkpt>
      <trkpt lat="44.63104" lon="5.99749">
        <ele>1485.85</ele>
        <time>2015-09-28T10:34:46Z</time>
      </trkpt>
      <trkpt lat="44.63107" lon="5.9976">
        <ele>1487.78</ele>
        <time>2015-09-28T10:35:01Z</time>
      </trkpt>
      <trkpt lat="44.6311" lon="5.99769">
        <ele>1489.22</ele>
        <time>2015-09-28T10:35:15Z</time>
      </trkpt>
      <trkpt lat="44.63105" lon="5.99779">
        <ele>1491.14</ele>
        <time>2015-09-28T10:35:28Z</time>
      </trkpt>
      <trkpt lat="44.63105" lon="5.99783">
        <ele>1492.58</ele>
        <time>2015-09-28T10:35:40Z</time>
      </trkpt>
      <trkpt lat="44.63102" lon="5.99793">
        <ele>1494.03</ele>
        <time>2015-09-28T10:35:52Z</time>
      </trkpt>
      <trkpt lat="44.63102" lon="5.99798">
        <ele>1495.47</ele>
        <time>2015-09-28T10:36:07Z</time>
      </trkpt>
      <trkpt lat="44.63108" lon="5.9981">
        <ele>1496.43</ele>
        <time>2015-09-28T10:36:24Z</time>
      </trkpt>
      <trkpt lat="44.63109" lon="5.99821">
        <ele>1497.39</ele>
        <time>2015-09-28T10:36:37Z</time>
      </trkpt>
      <trkpt lat="44.63109" lon="5.99833">
        <ele>1498.35</ele>
        <time>2015-09-28T10:36:50Z</time>
      </trkpt>
      <trkpt lat="44.63108" lon="5.99844">
        <ele>1499.79</ele>
        <time>2015-09-28T10:37:05Z</time>
      </trkpt>
      <trkpt lat="44.63104" lon="5.9986">
        <ele>1500.76</ele>
        <time>2015-09-28T10:37:20Z</time>
      </trkpt>
      <trkpt lat="44.63101" lon="5.9987">
        <ele>1502.2</ele>
        <time>2015-09-28T10:37:32Z</time>
      </trkpt>
      <trkpt lat="44.63094" lon="5.99883">
        <ele>1505.08</ele>
        <time>2015-09-28T10:37:51Z</time>
      </trkpt>
      <trkpt lat="44.63085" lon="5.99894">
        <ele>1506.52</ele>
        <time>2015-09-28T10:38:08Z</time>
      </trkpt>
      <trkpt lat="44.63084" lon="5.99901">
        <ele>1507</ele>
        <time>2015-09-28T10:38:23Z</time>
      </trkpt>
      <trkpt lat="44.63074" lon="5.99912">
        <ele>1506.52</ele>
        <time>2015-09-28T10:38:37Z</time>
      </trkpt>
      <trkpt lat="44.63061" lon="5.99925">
        <ele>1505.56</ele>
        <time>2015-09-28T10:38:53Z</time>
      </trkpt>
      <trkpt lat="44.63046" lon="5.99934">
        <ele>1504.6</ele>
        <time>2015-09-28T10:39:08Z</time>
      </trkpt>
      <trkpt lat="44.63046" lon="5.99934">
        <ele>1504.12</ele>
        <time>2015-09-28T10:39:23Z</time>
      </trkpt>
      <trkpt lat="44.63035" lon="5.99939">
        <ele>1503.64</ele>
        <time>2015-09-28T10:39:38Z</time>
      </trkpt>
      <trkpt lat="44.63033" lon="5.99932">
        <ele>1503.64</ele>
        <time>2015-09-28T10:40:09Z</time>
      </trkpt>
      <trkpt lat="44.63035" lon="5.99936">
        <ele>1504.12</ele>
        <time>2015-09-28T10:40:42Z</time>
      </trkpt>
      <trkpt lat="44.63042" lon="5.99938">
        <ele>1504.12</ele>
        <time>2015-09-28T10:41:14Z</time>
      </trkpt>
      <trkpt lat="44.63027" lon="5.99947">
        <ele>1503.64</ele>
        <time>2015-09-28T10:41:38Z</time>
      </trkpt>
      <trkpt lat="44.63021" lon="5.99958">
        <ele>1502.68</ele>
        <time>2015-09-28T10:41:49Z</time>
      </trkpt>
      <trkpt lat="44.63016" lon="5.99976">
        <ele>1502.2</ele>
        <time>2015-09-28T10:42:07Z</time>
      </trkpt>
      <trkpt lat="44.63009" lon="5.99991">
        <ele>1501.24</ele>
        <time>2015-09-28T10:42:24Z</time>
      </trkpt>
      <trkpt lat="44.63" lon="6.00006">
        <ele>1500.27</ele>
        <time>2015-09-28T10:42:35Z</time>
      </trkpt>
      <trkpt lat="44.62981" lon="6.0001">
        <ele>1499.31</ele>
        <time>2015-09-28T10:42:54Z</time>
      </trkpt>
      <trkpt lat="44.62971" lon="6.0002">
        <ele>1498.83</ele>
        <time>2015-09-28T10:43:11Z</time>
      </trkpt>
      <trkpt lat="44.62969" lon="6.00035">
        <ele>1498.35</ele>
        <time>2015-09-28T10:43:21Z</time>
      </trkpt>
      <trkpt lat="44.62958" lon="6.0005">
        <ele>1496.43</ele>
        <time>2015-09-28T10:43:38Z</time>
      </trkpt>
      <trkpt lat="44.62946" lon="6.00061">
        <ele>1496.43</ele>
        <time>2015-09-28T10:43:52Z</time>
      </trkpt>
      <trkpt lat="44.62935" lon="6.00073">
        <ele>1495.95</ele>
        <time>2015-09-28T10:44:07Z</time>
      </trkpt>
      <trkpt lat="44.62927" lon="6.00085">
        <ele>1494.51</ele>
        <time>2015-09-28T10:44:23Z</time>
      </trkpt>
      <trkpt lat="44.62914" lon="6.00089">
        <ele>1493.55</ele>
        <time>2015-09-28T10:44:39Z</time>
      </trkpt>
      <trkpt lat="44.62906" lon="6.00102">
        <ele>1492.58</ele>
        <time>2015-09-28T10:44:53Z</time>
      </trkpt>
      <trkpt lat="44.62903" lon="6.00119">
        <ele>1491.62</ele>
        <time>2015-09-28T10:45:12Z</time>
      </trkpt>
      <trkpt lat="44.62902" lon="6.00135">
        <ele>1491.62</ele>
        <time>2015-09-28T10:45:30Z</time>
      </trkpt>
      <trkpt lat="44.62893" lon="6.00152">
        <ele>1490.18</ele>
        <time>2015-09-28T10:45:48Z</time>
      </trkpt>
      <trkpt lat="44.62888" lon="6.00166">
        <ele>1489.22</ele>
        <time>2015-09-28T10:46:03Z</time>
      </trkpt>
      <trkpt lat="44.62887" lon="6.0017">
        <ele>1489.22</ele>
        <time>2015-09-28T10:46:10Z</time>
      </trkpt>
      <trkpt lat="44.62886" lon="6.0018">
        <ele>1489.22</ele>
        <time>2015-09-28T10:46:23Z</time>
      </trkpt>
      <trkpt lat="44.62886" lon="6.00193">
        <ele>1489.22</ele>
        <time>2015-09-28T10:46:33Z</time>
      </trkpt>
      <trkpt lat="44.62883" lon="6.00205">
        <ele>1488.74</ele>
        <time>2015-09-28T10:46:43Z</time>
      </trkpt>
      <trkpt lat="44.62875" lon="6.00216">
        <ele>1488.74</ele>
        <time>2015-09-28T10:46:58Z</time>
      </trkpt>
      <trkpt lat="44.6287" lon="6.00237">
        <ele>1487.3</ele>
        <time>2015-09-28T10:47:14Z</time>
      </trkpt>
      <trkpt lat="44.62869" lon="6.00252">
        <ele>1487.3</ele>
        <time>2015-09-28T10:47:25Z</time>
      </trkpt>
      <trkpt lat="44.62872" lon="6.00263">
        <ele>1486.82</ele>
        <time>2015-09-28T10:47:37Z</time>
      </trkpt>
      <trkpt lat="44.62873" lon="6.00265">
        <ele>1486.82</ele>
        <time>2015-09-28T10:47:40Z</time>
      </trkpt>
      <trkpt lat="44.62881" lon="6.00264">
        <ele>1486.82</ele>
        <time>2015-09-28T10:48:01Z</time>
      </trkpt>
      <trkpt lat="44.62868" lon="6.00234">
        <ele>1486.82</ele>
        <time>2015-09-28T10:48:24Z</time>
      </trkpt>
      <trkpt lat="44.62872" lon="6.00242">
        <ele>1487.3</ele>
        <time>2015-09-28T10:48:41Z</time>
      </trkpt>
      <trkpt lat="44.62874" lon="6.00249">
        <ele>1487.3</ele>
        <time>2015-09-28T10:49:11Z</time>
      </trkpt>
      <trkpt lat="44.62873" lon="6.00253">
        <ele>1487.78</ele>
        <time>2015-09-28T10:49:32Z</time>
      </trkpt>
      <trkpt lat="44.62882" lon="6.00258">
        <ele>1487.78</ele>
        <time>2015-09-28T10:49:53Z</time>
      </trkpt>
      <trkpt lat="44.62872" lon="6.00259">
        <ele>1487.78</ele>
        <time>2015-09-28T10:50:10Z</time>
      </trkpt>
      <trkpt lat="44.62868" lon="6.00252">
        <ele>1488.26</ele>
        <time>2015-09-28T10:50:22Z</time>
      </trkpt>
      <trkpt lat="44.62865" lon="6.00235">
        <ele>1488.74</ele>
        <time>2015-09-28T10:50:36Z</time>
      </trkpt>
      <trkpt lat="44.62869" lon="6.00219">
        <ele>1489.7</ele>
        <time>2015-09-28T10:50:49Z</time>
      </trkpt>
      <trkpt lat="44.62877" lon="6.00204">
        <ele>1490.66</ele>
        <time>2015-09-28T10:51:03Z</time>
      </trkpt>
      <trkpt lat="44.62877" lon="6.00203">
        <ele>1490.66</ele>
        <time>2015-09-28T10:51:04Z</time>
      </trkpt>
      <trkpt lat="44.62882" lon="6.00182">
        <ele>1491.14</ele>
        <time>2015-09-28T10:51:21Z</time>
      </trkpt>
      <trkpt lat="44.62886" lon="6.00171">
        <ele>1490.66</ele>
        <time>2015-09-28T10:51:34Z</time>
      </trkpt>
      <trkpt lat="44.62883" lon="6.00162">
        <ele>1492.1</ele>
        <time>2015-09-28T10:51:47Z</time>
      </trkpt>
      <trkpt lat="44.62889" lon="6.00152">
        <ele>1493.06</ele>
        <time>2015-09-28T10:52:05Z</time>
      </trkpt>
      <trkpt lat="44.62897" lon="6.00139">
        <ele>1494.03</ele>
        <time>2015-09-28T10:52:19Z</time>
      </trkpt>
      <trkpt lat="44.62904" lon="6.0012">
        <ele>1494.99</ele>
        <time>2015-09-28T10:52:33Z</time>
      </trkpt>
      <trkpt lat="44.62906" lon="6.00114">
        <ele>1495.47</ele>
        <time>2015-09-28T10:52:37Z</time>
      </trkpt>
      <trkpt lat="44.62909" lon="6.00099">
        <ele>1495.95</ele>
        <time>2015-09-28T10:52:50Z</time>
      </trkpt>
      <trkpt lat="44.62908" lon="6.0009">
        <ele>1496.91</ele>
        <time>2015-09-28T10:53:09Z</time>
      </trkpt>
      <trkpt lat="44.62905" lon="6.00091">
        <ele>1500.27</ele>
        <time>2015-09-28T10:53:22Z</time>
      </trkpt>
      <trkpt lat="44.62902" lon="6.00085">
        <ele>1503.16</ele>
        <time>2015-09-28T10:53:36Z</time>
      </trkpt>
      <trkpt lat="44.62904" lon="6.00076">
        <ele>1506.52</ele>
        <time>2015-09-28T10:53:53Z</time>
      </trkpt>
      <trkpt lat="44.62903" lon="6.0007">
        <ele>1508.45</ele>
        <time>2015-09-28T10:54:08Z</time>
      </trkpt>
      <trkpt lat="44.629" lon="6.0007">
        <ele>1511.81</ele>
        <time>2015-09-28T10:54:27Z</time>
      </trkpt>
      <trkpt lat="44.62905" lon="6.00059">
        <ele>1512.29</ele>
        <time>2015-09-28T10:54:41Z</time>
      </trkpt>
      <trkpt lat="44.62911" lon="6.00055">
        <ele>1512.77</ele>
        <time>2015-09-28T10:54:55Z</time>
      </trkpt>
      <trkpt lat="44.62922" lon="6.0005">
        <ele>1515.18</ele>
        <time>2015-09-28T10:55:16Z</time>
      </trkpt>
      <trkpt lat="44.6292" lon="6.00046">
        <ele>1516.62</ele>
        <time>2015-09-28T10:55:33Z</time>
      </trkpt>
      <trkpt lat="44.62919" lon="6.00032">
        <ele>1519.02</ele>
        <time>2015-09-28T10:55:49Z</time>
      </trkpt>
      <trkpt lat="44.62918" lon="6.00035">
        <ele>1522.39</ele>
        <time>2015-09-28T10:56:05Z</time>
      </trkpt>
      <trkpt lat="44.62912" lon="6.00038">
        <ele>1523.35</ele>
        <time>2015-09-28T10:56:25Z</time>
      </trkpt>
      <trkpt lat="44.62909" lon="6.00033">
        <ele>1526.23</ele>
        <time>2015-09-28T10:56:42Z</time>
      </trkpt>
      <trkpt lat="44.62904" lon="6.00026">
        <ele>1528.63</ele>
        <time>2015-09-28T10:57:01Z</time>
      </trkpt>
      <trkpt lat="44.62901" lon="6.00017">
        <ele>1531.04</ele>
        <time>2015-09-28T10:57:15Z</time>
      </trkpt>
      <trkpt lat="44.62901" lon="6.00023">
        <ele>1532</ele>
        <time>2015-09-28T10:57:28Z</time>
      </trkpt>
      <trkpt lat="44.629" lon="6.00019">
        <ele>1532</ele>
        <time>2015-09-28T10:57:48Z</time>
      </trkpt>
      <trkpt lat="44.62907" lon="6.00021">
        <ele>1532</ele>
        <time>2015-09-28T10:58:15Z</time>
      </trkpt>
      <trkpt lat="44.62905" lon="6.00018">
        <ele>1532.48</ele>
        <time>2015-09-28T10:58:46Z</time>
      </trkpt>
      <trkpt lat="44.62902" lon="6.00022">
        <ele>1532</ele>
        <time>2015-09-28T10:59:13Z</time>
      </trkpt>
      <trkpt lat="44.62902" lon="6.00021">
        <ele>1532</ele>
        <time>2015-09-28T10:59:45Z</time>
      </trkpt>
      <trkpt lat="44.62897" lon="6.00022">
        <ele>1533.44</ele>
        <time>2015-09-28T11:00:13Z</time>
      </trkpt>
      <trkpt lat="44.62902" lon="6.00012">
        <ele>1533.44</ele>
        <time>2015-09-28T11:00:35Z</time>
      </trkpt>
      <trkpt lat="44.62907" lon="6.00014">
        <ele>1533.44</ele>
        <time>2015-09-28T11:01:01Z</time>
      </trkpt>
      <trkpt lat="44.62901" lon="6.00023">
        <ele>1533.92</ele>
        <time>2015-09-28T11:01:23Z</time>
      </trkpt>
      <trkpt lat="44.62907" lon="6.00022">
        <ele>1534.4</ele>
        <time>2015-09-28T11:01:54Z</time>
      </trkpt>
      <trkpt lat="44.62903" lon="6.00015">
        <ele>1534.4</ele>
        <time>2015-09-28T11:02:25Z</time>
      </trkpt>
      <trkpt lat="44.62914" lon="6.00016">
        <ele>1534.88</ele>
        <time>2015-09-28T11:03:01Z</time>
      </trkpt>
      <trkpt lat="44.62888" lon="6.00033">
        <ele>1535.84</ele>
        <time>2015-09-28T11:03:15Z</time>
      </trkpt>
      <trkpt lat="44.62883" lon="6.00039">
        <ele>1536.32</ele>
        <time>2015-09-28T11:03:24Z</time>
      </trkpt>
      <trkpt lat="44.62873" lon="6.00051">
        <ele>1537.29</ele>
        <time>2015-09-28T11:03:38Z</time>
      </trkpt>
      <trkpt lat="44.62868" lon="6.00065">
        <ele>1537.29</ele>
        <time>2015-09-28T11:03:48Z</time>
      </trkpt>
      <trkpt lat="44.62864" lon="6.00072">
        <ele>1537.29</ele>
        <time>2015-09-28T11:03:55Z</time>
      </trkpt>
      <trkpt lat="44.62852" lon="6.00088">
        <ele>1538.73</ele>
        <time>2015-09-28T11:04:11Z</time>
      </trkpt>
      <trkpt lat="44.62839" lon="6.00103">
        <ele>1540.65</ele>
        <time>2015-09-28T11:04:25Z</time>
      </trkpt>
      <trkpt lat="44.62836" lon="6.00112">
        <ele>1541.13</ele>
        <time>2015-09-28T11:04:32Z</time>
      </trkpt>
      <trkpt lat="44.62835" lon="6.00118">
        <ele>1541.13</ele>
        <time>2015-09-28T11:04:37Z</time>
      </trkpt>
      <trkpt lat="44.62835" lon="6.00135">
        <ele>1541.61</ele>
        <time>2015-09-28T11:04:50Z</time>
      </trkpt>
      <trkpt lat="44.62833" lon="6.00155">
        <ele>1543.53</ele>
        <time>2015-09-28T11:05:05Z</time>
      </trkpt>
      <trkpt lat="44.62827" lon="6.00173">
        <ele>1544.5</ele>
        <time>2015-09-28T11:05:19Z</time>
      </trkpt>
      <trkpt lat="44.62821" lon="6.00192">
        <ele>1545.94</ele>
        <time>2015-09-28T11:05:32Z</time>
      </trkpt>
      <trkpt lat="44.62817" lon="6.00203">
        <ele>1546.42</ele>
        <time>2015-09-28T11:05:39Z</time>
      </trkpt>
      <trkpt lat="44.62806" lon="6.00215">
        <ele>1547.38</ele>
        <time>2015-09-28T11:05:50Z</time>
      </trkpt>
      <trkpt lat="44.62802" lon="6.00219">
        <ele>1547.86</ele>
        <time>2015-09-28T11:05:54Z</time>
      </trkpt>
      <trkpt lat="44.62787" lon="6.00232">
        <ele>1548.34</ele>
        <time>2015-09-28T11:06:09Z</time>
      </trkpt>
      <trkpt lat="44.62786" lon="6.00233">
        <ele>1548.34</ele>
        <time>2015-09-28T11:06:10Z</time>
      </trkpt>
      <trkpt lat="44.62772" lon="6.0025">
        <ele>1550.74</ele>
        <time>2015-09-28T11:06:28Z</time>
      </trkpt>
      <trkpt lat="44.62765" lon="6.00266">
        <ele>1551.71</ele>
        <time>2015-09-28T11:06:38Z</time>
      </trkpt>
      <trkpt lat="44.62767" lon="6.00284">
        <ele>1551.71</ele>
        <time>2015-09-28T11:06:51Z</time>
      </trkpt>
      <trkpt lat="44.62773" lon="6.00294">
        <ele>1553.63</ele>
        <time>2015-09-28T11:07:06Z</time>
      </trkpt>
      <trkpt lat="44.62774" lon="6.00313">
        <ele>1554.11</ele>
        <time>2015-09-28T11:07:19Z</time>
      </trkpt>
      <trkpt lat="44.62775" lon="6.0033">
        <ele>1554.59</ele>
        <time>2015-09-28T11:07:35Z</time>
      </trkpt>
      <trkpt lat="44.6278" lon="6.00335">
        <ele>1555.55</ele>
        <time>2015-09-28T11:07:44Z</time>
      </trkpt>
      <trkpt lat="44.62786" lon="6.00351">
        <ele>1556.03</ele>
        <time>2015-09-28T11:07:59Z</time>
      </trkpt>
      <trkpt lat="44.6278" lon="6.00366">
        <ele>1556.51</ele>
        <time>2015-09-28T11:08:13Z</time>
      </trkpt>
      <trkpt lat="44.62778" lon="6.0038">
        <ele>1556.51</ele>
        <time>2015-09-28T11:08:22Z</time>
      </trkpt>
      <trkpt lat="44.62779" lon="6.00395">
        <ele>1556.51</ele>
        <time>2015-09-28T11:08:36Z</time>
      </trkpt>
      <trkpt lat="44.62779" lon="6.00402">
        <ele>1556.99</ele>
        <time>2015-09-28T11:08:49Z</time>
      </trkpt>
      <trkpt lat="44.62781" lon="6.004">
        <ele>1557.47</ele>
        <time>2015-09-28T11:08:53Z</time>
      </trkpt>
      <trkpt lat="44.62784" lon="6.00399">
        <ele>1557.47</ele>
        <time>2015-09-28T11:08:56Z</time>
      </trkpt>
      <trkpt lat="44.62788" lon="6.00397">
        <ele>1557.95</ele>
        <time>2015-09-28T11:09:03Z</time>
      </trkpt>
      <trkpt lat="44.62792" lon="6.00396">
        <ele>1558.43</ele>
        <time>2015-09-28T11:09:06Z</time>
      </trkpt>
      <trkpt lat="44.62804" lon="6.004">
        <ele>1558.92</ele>
        <time>2015-09-28T11:09:19Z</time>
      </trkpt>
      <trkpt lat="44.62808" lon="6.004">
        <ele>1558.92</ele>
        <time>2015-09-28T11:09:23Z</time>
      </trkpt>
      <trkpt lat="44.62826" lon="6.004">
        <ele>1559.88</ele>
        <time>2015-09-28T11:09:39Z</time>
      </trkpt>
      <trkpt lat="44.62835" lon="6.00399">
        <ele>1560.84</ele>
        <time>2015-09-28T11:09:48Z</time>
      </trkpt>
      <trkpt lat="44.6284" lon="6.00396">
        <ele>1560.84</ele>
        <time>2015-09-28T11:09:55Z</time>
      </trkpt>
      <trkpt lat="44.62858" lon="6.00403">
        <ele>1561.8</ele>
        <time>2015-09-28T11:10:11Z</time>
      </trkpt>
      <trkpt lat="44.62873" lon="6.00414">
        <ele>1562.76</ele>
        <time>2015-09-28T11:10:25Z</time>
      </trkpt>
      <trkpt lat="44.62875" lon="6.00411">
        <ele>1563.24</ele>
        <time>2015-09-28T11:10:29Z</time>
      </trkpt>
      <trkpt lat="44.62883" lon="6.00397">
        <ele>1564.2</ele>
        <time>2015-09-28T11:10:45Z</time>
      </trkpt>
      <trkpt lat="44.6289" lon="6.00394">
        <ele>1564.68</ele>
        <time>2015-09-28T11:10:52Z</time>
      </trkpt>
      <trkpt lat="44.62903" lon="6.00393">
        <ele>1564.68</ele>
        <time>2015-09-28T11:11:05Z</time>
      </trkpt>
      <trkpt lat="44.62915" lon="6.00394">
        <ele>1565.16</ele>
        <time>2015-09-28T11:11:18Z</time>
      </trkpt>
      <trkpt lat="44.62932" lon="6.00399">
        <ele>1566.61</ele>
        <time>2015-09-28T11:11:35Z</time>
      </trkpt>
      <trkpt lat="44.62945" lon="6.00412">
        <ele>1567.57</ele>
        <time>2015-09-28T11:11:50Z</time>
      </trkpt>
      <trkpt lat="44.62958" lon="6.00432">
        <ele>1569.01</ele>
        <time>2015-09-28T11:12:09Z</time>
      </trkpt>
      <trkpt lat="44.62969" lon="6.00445">
        <ele>1569.01</ele>
        <time>2015-09-28T11:12:26Z</time>
      </trkpt>
      <trkpt lat="44.62979" lon="6.00455">
        <ele>1570.93</ele>
        <time>2015-09-28T11:12:40Z</time>
      </trkpt>
      <trkpt lat="44.62991" lon="6.00454">
        <ele>1570.45</ele>
        <time>2015-09-28T11:12:52Z</time>
      </trkpt>
      <trkpt lat="44.62996" lon="6.00448">
        <ele>1570.45</ele>
        <time>2015-09-28T11:13:00Z</time>
      </trkpt>
      <trkpt lat="44.63008" lon="6.00445">
        <ele>1571.89</ele>
        <time>2015-09-28T11:13:15Z</time>
      </trkpt>
      <trkpt lat="44.63018" lon="6.00451">
        <ele>1571.89</ele>
        <time>2015-09-28T11:13:34Z</time>
      </trkpt>
      <trkpt lat="44.63031" lon="6.00466">
        <ele>1573.33</ele>
        <time>2015-09-28T11:13:52Z</time>
      </trkpt>
      <trkpt lat="44.63047" lon="6.00475">
        <ele>1573.82</ele>
        <time>2015-09-28T11:14:09Z</time>
      </trkpt>
      <trkpt lat="44.63068" lon="6.00477">
        <ele>1574.3</ele>
        <time>2015-09-28T11:14:28Z</time>
      </trkpt>
      <trkpt lat="44.63081" lon="6.00485">
        <ele>1576.22</ele>
        <time>2015-09-28T11:14:45Z</time>
      </trkpt>
      <trkpt lat="44.63091" lon="6.00503">
        <ele>1577.18</ele>
        <time>2015-09-28T11:15:01Z</time>
      </trkpt>
      <trkpt lat="44.63097" lon="6.00513">
        <ele>1577.18</ele>
        <time>2015-09-28T11:15:09Z</time>
      </trkpt>
      <trkpt lat="44.63107" lon="6.00525">
        <ele>1578.14</ele>
        <time>2015-09-28T11:15:25Z</time>
      </trkpt>
      <trkpt lat="44.63116" lon="6.00535">
        <ele>1578.62</ele>
        <time>2015-09-28T11:15:36Z</time>
      </trkpt>
      <trkpt lat="44.63122" lon="6.00537">
        <ele>1579.1</ele>
        <time>2015-09-28T11:15:52Z</time>
      </trkpt>
      <trkpt lat="44.63127" lon="6.00539">
        <ele>1579.1</ele>
        <time>2015-09-28T11:16:08Z</time>
      </trkpt>
      <trkpt lat="44.63126" lon="6.00541">
        <ele>1579.1</ele>
        <time>2015-09-28T11:16:24Z</time>
      </trkpt>
      <trkpt lat="44.63126" lon="6.00538">
        <ele>1578.62</ele>
        <time>2015-09-28T11:16:45Z</time>
      </trkpt>
      <trkpt lat="44.63125" lon="6.00538">
        <ele>1579.1</ele>
        <time>2015-09-28T11:16:59Z</time>
      </trkpt>
      <trkpt lat="44.63121" lon="6.00532">
        <ele>1578.14</ele>
        <time>2015-09-28T11:17:14Z</time>
      </trkpt>
      <trkpt lat="44.63119" lon="6.00533">
        <ele>1577.66</ele>
        <time>2015-09-28T11:17:39Z</time>
      </trkpt>
      <trkpt lat="44.63118" lon="6.00532">
        <ele>1578.14</ele>
        <time>2015-09-28T11:17:57Z</time>
      </trkpt>
      <trkpt lat="44.63123" lon="6.0053">
        <ele>1578.14</ele>
        <time>2015-09-28T11:18:23Z</time>
      </trkpt>
      <trkpt lat="44.63121" lon="6.00528">
        <ele>1578.14</ele>
        <time>2015-09-28T11:18:53Z</time>
      </trkpt>
      <trkpt lat="44.6312" lon="6.00526">
        <ele>1578.62</ele>
        <time>2015-09-28T11:19:33Z</time>
      </trkpt>
      <trkpt lat="44.63123" lon="6.00526">
        <ele>1578.62</ele>
        <time>2015-09-28T11:20:05Z</time>
      </trkpt>
      <trkpt lat="44.63128" lon="6.00535">
        <ele>1578.62</ele>
        <time>2015-09-28T11:20:46Z</time>
      </trkpt>
      <trkpt lat="44.63127" lon="6.00534">
        <ele>1579.1</ele>
        <time>2015-09-28T11:21:19Z</time>
      </trkpt>
      <trkpt lat="44.63125" lon="6.00533">
        <ele>1579.1</ele>
        <time>2015-09-28T11:22:00Z</time>
      </trkpt>
      <trkpt lat="44.63127" lon="6.00535">
        <ele>1579.58</ele>
        <time>2015-09-28T11:22:35Z</time>
      </trkpt>
      <trkpt lat="44.63127" lon="6.0053">
        <ele>1579.58</ele>
        <time>2015-09-28T11:23:08Z</time>
      </trkpt>
      <trkpt lat="44.63125" lon="6.00529">
        <ele>1579.58</ele>
        <time>2015-09-28T11:23:43Z</time>
      </trkpt>
      <trkpt lat="44.63123" lon="6.00534">
        <ele>1579.58</ele>
        <time>2015-09-28T11:24:15Z</time>
      </trkpt>
      <trkpt lat="44.63126" lon="6.00532">
        <ele>1579.58</ele>
        <time>2015-09-28T11:24:50Z</time>
      </trkpt>
      <trkpt lat="44.63125" lon="6.00533">
        <ele>1580.06</ele>
        <time>2015-09-28T11:25:28Z</time>
      </trkpt>
      <trkpt lat="44.63126" lon="6.00534">
        <ele>1580.06</ele>
        <time>2015-09-28T11:26:04Z</time>
      </trkpt>
      <trkpt lat="44.63122" lon="6.00529">
        <ele>1580.54</ele>
        <time>2015-09-28T11:26:42Z</time>
      </trkpt>
      <trkpt lat="44.63127" lon="6.00536">
        <ele>1580.54</ele>
        <time>2015-09-28T11:27:23Z</time>
      </trkpt>
      <trkpt lat="44.63125" lon="6.00532">
        <ele>1580.54</ele>
        <time>2015-09-28T11:28:00Z</time>
      </trkpt>
      <trkpt lat="44.63123" lon="6.00527">
        <ele>1580.54</ele>
        <time>2015-09-28T11:28:36Z</time>
      </trkpt>
      <trkpt lat="44.63126" lon="6.00531">
        <ele>1580.54</ele>
        <time>2015-09-28T11:29:08Z</time>
      </trkpt>
      <trkpt lat="44.63117" lon="6.00524">
        <ele>1581.03</ele>
        <time>2015-09-28T11:29:47Z</time>
      </trkpt>
      <trkpt lat="44.63122" lon="6.00527">
        <ele>1581.03</ele>
        <time>2015-09-28T11:30:27Z</time>
      </trkpt>
      <trkpt lat="44.63121" lon="6.00519">
        <ele>1581.51</ele>
        <time>2015-09-28T11:31:13Z</time>
      </trkpt>
      <trkpt lat="44.63121" lon="6.00519">
        <ele>1581.99</ele>
        <time>2015-09-28T11:31:59Z</time>
      </trkpt>
      <trkpt lat="44.63122" lon="6.00519">
        <ele>1581.99</ele>
        <time>2015-09-28T11:32:36Z</time>
      </trkpt>
      <trkpt lat="44.6312" lon="6.00515">
        <ele>1582.95</ele>
        <time>2015-09-28T11:33:21Z</time>
      </trkpt>
      <trkpt lat="44.63121" lon="6.00524">
        <ele>1583.43</ele>
        <time>2015-09-28T11:34:03Z</time>
      </trkpt>
      <trkpt lat="44.63123" lon="6.0053">
        <ele>1583.43</ele>
        <time>2015-09-28T11:34:42Z</time>
      </trkpt>
      <trkpt lat="44.63126" lon="6.00529">
        <ele>1583.43</ele>
        <time>2015-09-28T11:35:16Z</time>
      </trkpt>
      <trkpt lat="44.63121" lon="6.00525">
        <ele>1583.91</ele>
        <time>2015-09-28T11:35:50Z</time>
      </trkpt>
      <trkpt lat="44.63124" lon="6.00523">
        <ele>1583.43</ele>
        <time>2015-09-28T11:36:23Z</time>
      </trkpt>
      <trkpt lat="44.63119" lon="6.00526">
        <ele>1583.43</ele>
        <time>2015-09-28T11:37:02Z</time>
      </trkpt>
      <trkpt lat="44.63122" lon="6.00528">
        <ele>1583.91</ele>
        <time>2015-09-28T11:37:38Z</time>
      </trkpt>
      <trkpt lat="44.63124" lon="6.0053">
        <ele>1583.91</ele>
        <time>2015-09-28T11:38:13Z</time>
      </trkpt>
      <trkpt lat="44.63115" lon="6.00527">
        <ele>1584.39</ele>
        <time>2015-09-28T11:38:50Z</time>
      </trkpt>
      <trkpt lat="44.63116" lon="6.00526">
        <ele>1584.39</ele>
        <time>2015-09-28T11:39:23Z</time>
      </trkpt>
      <trkpt lat="44.63122" lon="6.00529">
        <ele>1584.87</ele>
        <time>2015-09-28T11:39:57Z</time>
      </trkpt>
      <trkpt lat="44.63123" lon="6.00529">
        <ele>1584.87</ele>
        <time>2015-09-28T11:40:27Z</time>
      </trkpt>
      <trkpt lat="44.63121" lon="6.00529">
        <ele>1585.35</ele>
        <time>2015-09-28T11:41:05Z</time>
      </trkpt>
      <trkpt lat="44.63126" lon="6.00532">
        <ele>1585.35</ele>
        <time>2015-09-28T11:41:44Z</time>
      </trkpt>
      <trkpt lat="44.63126" lon="6.00531">
        <ele>1585.35</ele>
        <time>2015-09-28T11:42:16Z</time>
      </trkpt>
      <trkpt lat="44.6312" lon="6.00524">
        <ele>1584.87</ele>
        <time>2015-09-28T11:42:59Z</time>
      </trkpt>
      <trkpt lat="44.63124" lon="6.00523">
        <ele>1585.35</ele>
        <time>2015-09-28T11:43:32Z</time>
      </trkpt>
      <trkpt lat="44.63123" lon="6.00522">
        <ele>1585.35</ele>
        <time>2015-09-28T11:44:09Z</time>
      </trkpt>
      <trkpt lat="44.63125" lon="6.00522">
        <ele>1585.83</ele>
        <time>2015-09-28T11:44:41Z</time>
      </trkpt>
      <trkpt lat="44.63121" lon="6.00518">
        <ele>1585.83</ele>
        <time>2015-09-28T11:45:11Z</time>
      </trkpt>
      <trkpt lat="44.63123" lon="6.00519">
        <ele>1586.31</ele>
        <time>2015-09-28T11:45:51Z</time>
      </trkpt>
      <trkpt lat="44.63123" lon="6.00525">
        <ele>1586.31</ele>
        <time>2015-09-28T11:46:28Z</time>
      </trkpt>
      <trkpt lat="44.63123" lon="6.00524">
        <ele>1586.79</ele>
        <time>2015-09-28T11:47:04Z</time>
      </trkpt>
      <trkpt lat="44.63121" lon="6.0052">
        <ele>1586.79</ele>
        <time>2015-09-28T11:47:33Z</time>
      </trkpt>
      <trkpt lat="44.6312" lon="6.00521">
        <ele>1587.27</ele>
        <time>2015-09-28T11:48:07Z</time>
      </trkpt>
      <trkpt lat="44.63122" lon="6.00525">
        <ele>1587.75</ele>
        <time>2015-09-28T11:48:51Z</time>
      </trkpt>
      <trkpt lat="44.63117" lon="6.0052">
        <ele>1587.75</ele>
        <time>2015-09-28T11:49:28Z</time>
      </trkpt>
      <trkpt lat="44.63122" lon="6.00526">
        <ele>1588.24</ele>
        <time>2015-09-28T11:50:02Z</time>
      </trkpt>
      <trkpt lat="44.63123" lon="6.0053">
        <ele>1588.24</ele>
        <time>2015-09-28T11:50:28Z</time>
      </trkpt>
      <trkpt lat="44.6312" lon="6.00525">
        <ele>1587.75</ele>
        <time>2015-09-28T11:51:05Z</time>
      </trkpt>
      <trkpt lat="44.63122" lon="6.00528">
        <ele>1587.75</ele>
        <time>2015-09-28T11:51:34Z</time>
      </trkpt>
      <trkpt lat="44.63123" lon="6.0053">
        <ele>1587.75</ele>
        <time>2015-09-28T11:52:13Z</time>
      </trkpt>
      <trkpt lat="44.63125" lon="6.00523">
        <ele>1587.75</ele>
        <time>2015-09-28T11:52:55Z</time>
      </trkpt>
      <trkpt lat="44.63121" lon="6.00517">
        <ele>1587.75</ele>
        <time>2015-09-28T11:53:30Z</time>
      </trkpt>
      <trkpt lat="44.6312" lon="6.00522">
        <ele>1587.75</ele>
        <time>2015-09-28T11:54:07Z</time>
      </trkpt>
      <trkpt lat="44.6312" lon="6.00519">
        <ele>1587.75</ele>
        <time>2015-09-28T11:54:43Z</time>
      </trkpt>
      <trkpt lat="44.63122" lon="6.00524">
        <ele>1587.75</ele>
        <time>2015-09-28T11:55:19Z</time>
      </trkpt>
      <trkpt lat="44.63119" lon="6.00527">
        <ele>1588.24</ele>
        <time>2015-09-28T11:55:39Z</time>
      </trkpt>
      <trkpt lat="44.63121" lon="6.00528">
        <ele>1588.72</ele>
        <time>2015-09-28T11:55:49Z</time>
      </trkpt>
      <trkpt lat="44.63121" lon="6.00525">
        <ele>1588.72</ele>
        <time>2015-09-28T11:56:12Z</time>
      </trkpt>
      <trkpt lat="44.63117" lon="6.00524">
        <ele>1588.24</ele>
        <time>2015-09-28T11:56:39Z</time>
      </trkpt>
      <trkpt lat="44.63116" lon="6.00523">
        <ele>1589.2</ele>
        <time>2015-09-28T11:57:07Z</time>
      </trkpt>
      <trkpt lat="44.63116" lon="6.00529">
        <ele>1589.2</ele>
        <time>2015-09-28T11:57:26Z</time>
      </trkpt>
      <trkpt lat="44.63118" lon="6.00531">
        <ele>1589.2</ele>
        <time>2015-09-28T11:57:54Z</time>
      </trkpt>
      <trkpt lat="44.63116" lon="6.00532">
        <ele>1589.2</ele>
        <time>2015-09-28T11:58:11Z</time>
      </trkpt>
      <trkpt lat="44.63118" lon="6.00529">
        <ele>1589.2</ele>
        <time>2015-09-28T11:58:32Z</time>
      </trkpt>
      <trkpt lat="44.63121" lon="6.00529">
        <ele>1589.68</ele>
        <time>2015-09-28T11:58:46Z</time>
      </trkpt>
      <trkpt lat="44.63119" lon="6.00529">
        <ele>1589.68</ele>
        <time>2015-09-28T11:59:05Z</time>
      </trkpt>
      <trkpt lat="44.63119" lon="6.00526">
        <ele>1590.16</ele>
        <time>2015-09-28T11:59:19Z</time>
      </trkpt>
      <trkpt lat="44.63127" lon="6.00527">
        <ele>1590.64</ele>
        <time>2015-09-28T11:59:32Z</time>
      </trkpt>
      <trkpt lat="44.6314" lon="6.00525">
        <ele>1591.12</ele>
        <time>2015-09-28T11:59:46Z</time>
      </trkpt>
      <trkpt lat="44.63152" lon="6.00527">
        <ele>1592.08</ele>
        <time>2015-09-28T12:00:01Z</time>
      </trkpt>
      <trkpt lat="44.63162" lon="6.00527">
        <ele>1592.56</ele>
        <time>2015-09-28T12:00:14Z</time>
      </trkpt>
      <trkpt lat="44.63175" lon="6.00526">
        <ele>1593.04</ele>
        <time>2015-09-28T12:00:27Z</time>
      </trkpt>
      <trkpt lat="44.63185" lon="6.00528">
        <ele>1594</ele>
        <time>2015-09-28T12:00:42Z</time>
      </trkpt>
      <trkpt lat="44.63189" lon="6.0053">
        <ele>1594</ele>
        <time>2015-09-28T12:00:50Z</time>
      </trkpt>
      <trkpt lat="44.63197" lon="6.00528">
        <ele>1594.48</ele>
        <time>2015-09-28T12:00:59Z</time>
      </trkpt>
      <trkpt lat="44.63208" lon="6.00527">
        <ele>1595.93</ele>
        <time>2015-09-28T12:01:13Z</time>
      </trkpt>
      <trkpt lat="44.63218" lon="6.00525">
        <ele>1596.41</ele>
        <time>2015-09-28T12:01:26Z</time>
      </trkpt>
      <trkpt lat="44.63231" lon="6.00526">
        <ele>1596.89</ele>
        <time>2015-09-28T12:01:40Z</time>
      </trkpt>
      <trkpt lat="44.63246" lon="6.00527">
        <ele>1597.85</ele>
        <time>2015-09-28T12:01:56Z</time>
      </trkpt>
      <trkpt lat="44.63258" lon="6.00533">
        <ele>1598.33</ele>
        <time>2015-09-28T12:02:10Z</time>
      </trkpt>
      <trkpt lat="44.63268" lon="6.00537">
        <ele>1598.81</ele>
        <time>2015-09-28T12:02:23Z</time>
      </trkpt>
      <trkpt lat="44.63281" lon="6.00538">
        <ele>1599.77</ele>
        <time>2015-09-28T12:02:37Z</time>
      </trkpt>
      <trkpt lat="44.6329" lon="6.00541">
        <ele>1600.73</ele>
        <time>2015-09-28T12:02:48Z</time>
      </trkpt>
      <trkpt lat="44.63302" lon="6.00545">
        <ele>1601.69</ele>
        <time>2015-09-28T12:03:02Z</time>
      </trkpt>
      <trkpt lat="44.63317" lon="6.00549">
        <ele>1602.17</ele>
        <time>2015-09-28T12:03:17Z</time>
      </trkpt>
      <trkpt lat="44.63329" lon="6.00557">
        <ele>1603.62</ele>
        <time>2015-09-28T12:03:32Z</time>
      </trkpt>
      <trkpt lat="44.63339" lon="6.00564">
        <ele>1604.58</ele>
        <time>2015-09-28T12:03:46Z</time>
      </trkpt>
      <trkpt lat="44.63349" lon="6.00568">
        <ele>1606.02</ele>
        <time>2015-09-28T12:03:59Z</time>
      </trkpt>
      <trkpt lat="44.63352" lon="6.00571">
        <ele>1606.02</ele>
        <time>2015-09-28T12:04:13Z</time>
      </trkpt>
      <trkpt lat="44.63363" lon="6.0058">
        <ele>1606.98</ele>
        <time>2015-09-28T12:04:27Z</time>
      </trkpt>
      <trkpt lat="44.63364" lon="6.0058">
        <ele>1606.98</ele>
        <time>2015-09-28T12:04:28Z</time>
      </trkpt>
      <trkpt lat="44.63378" lon="6.00589">
        <ele>1607.94</ele>
        <time>2015-09-28T12:04:43Z</time>
      </trkpt>
      <trkpt lat="44.63391" lon="6.00602">
        <ele>1609.38</ele>
        <time>2015-09-28T12:04:59Z</time>
      </trkpt>
      <trkpt lat="44.63402" lon="6.00615">
        <ele>1610.35</ele>
        <time>2015-09-28T12:05:13Z</time>
      </trkpt>
      <trkpt lat="44.63408" lon="6.00631">
        <ele>1611.31</ele>
        <time>2015-09-28T12:05:27Z</time>
      </trkpt>
      <trkpt lat="44.63408" lon="6.00648">
        <ele>1611.79</ele>
        <time>2015-09-28T12:05:40Z</time>
      </trkpt>
      <trkpt lat="44.63414" lon="6.00664">
        <ele>1612.27</ele>
        <time>2015-09-28T12:05:53Z</time>
      </trkpt>
      <trkpt lat="44.63413" lon="6.0068">
        <ele>1612.75</ele>
        <time>2015-09-28T12:06:06Z</time>
      </trkpt>
      <trkpt lat="44.63412" lon="6.00697">
        <ele>1612.75</ele>
        <time>2015-09-28T12:06:20Z</time>
      </trkpt>
      <trkpt lat="44.63406" lon="6.00711">
        <ele>1614.19</ele>
        <time>2015-09-28T12:06:35Z</time>
      </trkpt>
      <trkpt lat="44.63406" lon="6.00714">
        <ele>1614.19</ele>
        <time>2015-09-28T12:06:38Z</time>
      </trkpt>
      <trkpt lat="44.63403" lon="6.0073">
        <ele>1615.15</ele>
        <time>2015-09-28T12:06:52Z</time>
      </trkpt>
      <trkpt lat="44.634" lon="6.0075">
        <ele>1616.11</ele>
        <time>2015-09-28T12:07:07Z</time>
      </trkpt>
      <trkpt lat="44.63397" lon="6.00762">
        <ele>1617.07</ele>
        <time>2015-09-28T12:07:18Z</time>
      </trkpt>
      <trkpt lat="44.634" lon="6.00771">
        <ele>1617.56</ele>
        <time>2015-09-28T12:07:23Z</time>
      </trkpt>
      <trkpt lat="44.63401" lon="6.00783">
        <ele>1617.56</ele>
        <time>2015-09-28T12:07:32Z</time>
      </trkpt>
      <trkpt lat="44.63397" lon="6.008">
        <ele>1618.52</ele>
        <time>2015-09-28T12:07:45Z</time>
      </trkpt>
      <trkpt lat="44.63401" lon="6.0081">
        <ele>1619</ele>
        <time>2015-09-28T12:07:59Z</time>
      </trkpt>
      <trkpt lat="44.63409" lon="6.00828">
        <ele>1619.96</ele>
        <time>2015-09-28T12:08:13Z</time>
      </trkpt>
      <trkpt lat="44.63412" lon="6.00847">
        <ele>1621.4</ele>
        <time>2015-09-28T12:08:26Z</time>
      </trkpt>
      <trkpt lat="44.63415" lon="6.00854">
        <ele>1621.4</ele>
        <time>2015-09-28T12:08:31Z</time>
      </trkpt>
      <trkpt lat="44.63419" lon="6.00861">
        <ele>1621.4</ele>
        <time>2015-09-28T12:08:44Z</time>
      </trkpt>
      <trkpt lat="44.6342" lon="6.00855">
        <ele>1621.4</ele>
        <time>2015-09-28T12:09:05Z</time>
      </trkpt>
      <trkpt lat="44.63425" lon="6.00865">
        <ele>1621.88</ele>
        <time>2015-09-28T12:09:19Z</time>
      </trkpt>
      <trkpt lat="44.63428" lon="6.00866">
        <ele>1622.36</ele>
        <time>2015-09-28T12:09:37Z</time>
      </trkpt>
      <trkpt lat="44.63437" lon="6.00873">
        <ele>1622.84</ele>
        <time>2015-09-28T12:09:49Z</time>
      </trkpt>
      <trkpt lat="44.63445" lon="6.00881">
        <ele>1624.28</ele>
        <time>2015-09-28T12:10:02Z</time>
      </trkpt>
      <trkpt lat="44.63452" lon="6.00889">
        <ele>1625.25</ele>
        <time>2015-09-28T12:10:18Z</time>
      </trkpt>
      <trkpt lat="44.6346" lon="6.00896">
        <ele>1625.25</ele>
        <time>2015-09-28T12:10:32Z</time>
      </trkpt>
      <trkpt lat="44.63472" lon="6.00902">
        <ele>1625.73</ele>
        <time>2015-09-28T12:10:46Z</time>
      </trkpt>
      <trkpt lat="44.63482" lon="6.00906">
        <ele>1626.69</ele>
        <time>2015-09-28T12:11:01Z</time>
      </trkpt>
      <trkpt lat="44.63494" lon="6.00912">
        <ele>1627.65</ele>
        <time>2015-09-28T12:11:14Z</time>
      </trkpt>
      <trkpt lat="44.63504" lon="6.00918">
        <ele>1628.61</ele>
        <time>2015-09-28T12:11:26Z</time>
      </trkpt>
      <trkpt lat="44.63515" lon="6.00924">
        <ele>1629.09</ele>
        <time>2015-09-28T12:11:40Z</time>
      </trkpt>
      <trkpt lat="44.63526" lon="6.00935">
        <ele>1630.05</ele>
        <time>2015-09-28T12:11:53Z</time>
      </trkpt>
      <trkpt lat="44.63538" lon="6.00946">
        <ele>1630.53</ele>
        <time>2015-09-28T12:12:08Z</time>
      </trkpt>
      <trkpt lat="44.63544" lon="6.00957">
        <ele>1631.01</ele>
        <time>2015-09-28T12:12:24Z</time>
      </trkpt>
      <trkpt lat="44.63549" lon="6.00966">
        <ele>1631.49</ele>
        <time>2015-09-28T12:12:48Z</time>
      </trkpt>
      <trkpt lat="44.63552" lon="6.00968">
        <ele>1632.46</ele>
        <time>2015-09-28T12:13:01Z</time>
      </trkpt>
      <trkpt lat="44.63562" lon="6.00982">
        <ele>1633.42</ele>
        <time>2015-09-28T12:13:16Z</time>
      </trkpt>
      <trkpt lat="44.63571" lon="6.00992">
        <ele>1633.42</ele>
        <time>2015-09-28T12:13:28Z</time>
      </trkpt>
      <trkpt lat="44.63578" lon="6.01002">
        <ele>1633.9</ele>
        <time>2015-09-28T12:13:41Z</time>
      </trkpt>
      <trkpt lat="44.63588" lon="6.01017">
        <ele>1633.9</ele>
        <time>2015-09-28T12:13:55Z</time>
      </trkpt>
      <trkpt lat="44.63587" lon="6.01026">
        <ele>1633.9</ele>
        <time>2015-09-28T12:14:04Z</time>
      </trkpt>
      <trkpt lat="44.63571" lon="6.0103">
        <ele>1633.9</ele>
        <time>2015-09-28T12:14:19Z</time>
      </trkpt>
      <trkpt lat="44.63555" lon="6.01028">
        <ele>1633.9</ele>
        <time>2015-09-28T12:14:34Z</time>
      </trkpt>
      <trkpt lat="44.6355" lon="6.01029">
        <ele>1633.9</ele>
        <time>2015-09-28T12:14:48Z</time>
      </trkpt>
      <trkpt lat="44.63546" lon="6.01029">
        <ele>1633.42</ele>
        <time>2015-09-28T12:15:08Z</time>
      </trkpt>
      <trkpt lat="44.6355" lon="6.01029">
        <ele>1633.42</ele>
        <time>2015-09-28T12:15:27Z</time>
      </trkpt>
      <trkpt lat="44.63551" lon="6.01031">
        <ele>1632.94</ele>
        <time>2015-09-28T12:15:59Z</time>
      </trkpt>
      <trkpt lat="44.63554" lon="6.01032">
        <ele>1632.94</ele>
        <time>2015-09-28T12:16:31Z</time>
      </trkpt>
      <trkpt lat="44.63556" lon="6.01029">
        <ele>1632.46</ele>
        <time>2015-09-28T12:16:54Z</time>
      </trkpt>
      <trkpt lat="44.63552" lon="6.01029">
        <ele>1632.46</ele>
        <time>2015-09-28T12:17:24Z</time>
      </trkpt>
      <trkpt lat="44.63553" lon="6.0103">
        <ele>1631.98</ele>
        <time>2015-09-28T12:17:59Z</time>
      </trkpt>
      <trkpt lat="44.63546" lon="6.01028">
        <ele>1631.98</ele>
        <time>2015-09-28T12:18:20Z</time>
      </trkpt>
      <trkpt lat="44.63543" lon="6.01028">
        <ele>1631.98</ele>
        <time>2015-09-28T12:18:23Z</time>
      </trkpt>
      <trkpt lat="44.63526" lon="6.01024">
        <ele>1632.94</ele>
        <time>2015-09-28T12:18:38Z</time>
      </trkpt>
      <trkpt lat="44.63522" lon="6.01026">
        <ele>1633.42</ele>
        <time>2015-09-28T12:18:42Z</time>
      </trkpt>
      <trkpt lat="44.63519" lon="6.01026">
        <ele>1632.94</ele>
        <time>2015-09-28T12:18:45Z</time>
      </trkpt>
      <trkpt lat="44.63506" lon="6.0103">
        <ele>1633.9</ele>
        <time>2015-09-28T12:18:58Z</time>
      </trkpt>
      <trkpt lat="44.63497" lon="6.01035">
        <ele>1634.38</ele>
        <time>2015-09-28T12:19:09Z</time>
      </trkpt>
      <trkpt lat="44.63486" lon="6.01043">
        <ele>1634.38</ele>
        <time>2015-09-28T12:19:22Z</time>
      </trkpt>
      <trkpt lat="44.63484" lon="6.01044">
        <ele>1633.9</ele>
        <time>2015-09-28T12:19:27Z</time>
      </trkpt>
      <trkpt lat="44.63477" lon="6.01059">
        <ele>1635.34</ele>
        <time>2015-09-28T12:19:41Z</time>
      </trkpt>
      <trkpt lat="44.63475" lon="6.01065">
        <ele>1635.82</ele>
        <time>2015-09-28T12:19:46Z</time>
      </trkpt>
      <trkpt lat="44.63466" lon="6.01068">
        <ele>1636.3</ele>
        <time>2015-09-28T12:19:51Z</time>
      </trkpt>
      <trkpt lat="44.63462" lon="6.01066">
        <ele>1636.3</ele>
        <time>2015-09-28T12:19:54Z</time>
      </trkpt>
      <trkpt lat="44.63461" lon="6.01064">
        <ele>1636.78</ele>
        <time>2015-09-28T12:19:56Z</time>
      </trkpt>
      <trkpt lat="44.63459" lon="6.0106">
        <ele>1637.74</ele>
        <time>2015-09-28T12:20:05Z</time>
      </trkpt>
      <trkpt lat="44.6345" lon="6.01043">
        <ele>1639.19</ele>
        <time>2015-09-28T12:20:20Z</time>
      </trkpt>
      <trkpt lat="44.63443" lon="6.01037">
        <ele>1640.63</ele>
        <time>2015-09-28T12:20:30Z</time>
      </trkpt>
      <trkpt lat="44.63432" lon="6.01035">
        <ele>1642.07</ele>
        <time>2015-09-28T12:20:44Z</time>
      </trkpt>
      <trkpt lat="44.63423" lon="6.01033">
        <ele>1641.11</ele>
        <time>2015-09-28T12:20:54Z</time>
      </trkpt>
      <trkpt lat="44.63419" lon="6.0103">
        <ele>1641.59</ele>
        <time>2015-09-28T12:20:59Z</time>
      </trkpt>
      <trkpt lat="44.63413" lon="6.01031">
        <ele>1642.07</ele>
        <time>2015-09-28T12:21:13Z</time>
      </trkpt>
      <trkpt lat="44.634" lon="6.01032">
        <ele>1643.03</ele>
        <time>2015-09-28T12:21:26Z</time>
      </trkpt>
      <trkpt lat="44.63386" lon="6.01037">
        <ele>1643.99</ele>
        <time>2015-09-28T12:21:42Z</time>
      </trkpt>
      <trkpt lat="44.63378" lon="6.01044">
        <ele>1643.03</ele>
        <time>2015-09-28T12:21:56Z</time>
      </trkpt>
      <trkpt lat="44.63378" lon="6.01045">
        <ele>1643.03</ele>
        <time>2015-09-28T12:21:57Z</time>
      </trkpt>
      <trkpt lat="44.63379" lon="6.0105">
        <ele>1642.55</ele>
        <time>2015-09-28T12:22:01Z</time>
      </trkpt>
      <trkpt lat="44.63373" lon="6.01066">
        <ele>1642.07</ele>
        <time>2015-09-28T12:22:12Z</time>
      </trkpt>
      <trkpt lat="44.63366" lon="6.01065">
        <ele>1642.55</ele>
        <time>2015-09-28T12:22:19Z</time>
      </trkpt>
      <trkpt lat="44.63365" lon="6.01063">
        <ele>1642.55</ele>
        <time>2015-09-28T12:22:21Z</time>
      </trkpt>
      <trkpt lat="44.63364" lon="6.01062">
        <ele>1643.03</ele>
        <time>2015-09-28T12:22:23Z</time>
      </trkpt>
      <trkpt lat="44.63355" lon="6.01053">
        <ele>1645.43</ele>
        <time>2015-09-28T12:22:35Z</time>
      </trkpt>
      <trkpt lat="44.63352" lon="6.01059">
        <ele>1645.43</ele>
        <time>2015-09-28T12:22:44Z</time>
      </trkpt>
      <trkpt lat="44.63343" lon="6.0106">
        <ele>1647.36</ele>
        <time>2015-09-28T12:22:56Z</time>
      </trkpt>
      <trkpt lat="44.63338" lon="6.01067">
        <ele>1647.84</ele>
        <time>2015-09-28T12:23:06Z</time>
      </trkpt>
      <trkpt lat="44.63341" lon="6.01075">
        <ele>1646.88</ele>
        <time>2015-09-28T12:23:13Z</time>
      </trkpt>
      <trkpt lat="44.63338" lon="6.01076">
        <ele>1646.88</ele>
        <time>2015-09-28T12:23:28Z</time>
      </trkpt>
      <trkpt lat="44.63335" lon="6.01081">
        <ele>1646.4</ele>
        <time>2015-09-28T12:23:36Z</time>
      </trkpt>
      <trkpt lat="44.63331" lon="6.01095">
        <ele>1645.43</ele>
        <time>2015-09-28T12:23:48Z</time>
      </trkpt>
      <trkpt lat="44.63332" lon="6.01098">
        <ele>1645.43</ele>
        <time>2015-09-28T12:23:50Z</time>
      </trkpt>
      <trkpt lat="44.63327" lon="6.01111">
        <ele>1646.88</ele>
        <time>2015-09-28T12:24:03Z</time>
      </trkpt>
      <trkpt lat="44.63327" lon="6.01112">
        <ele>1646.88</ele>
        <time>2015-09-28T12:24:04Z</time>
      </trkpt>
      <trkpt lat="44.63324" lon="6.01121">
        <ele>1646.88</ele>
        <time>2015-09-28T12:24:12Z</time>
      </trkpt>
      <trkpt lat="44.63324" lon="6.01125">
        <ele>1647.84</ele>
        <time>2015-09-28T12:24:16Z</time>
      </trkpt>
      <trkpt lat="44.63327" lon="6.01129">
        <ele>1647.36</ele>
        <time>2015-09-28T12:24:20Z</time>
      </trkpt>
      <trkpt lat="44.63329" lon="6.01134">
        <ele>1646.88</ele>
        <time>2015-09-28T12:24:24Z</time>
      </trkpt>
      <trkpt lat="44.63329" lon="6.01137">
        <ele>1646.88</ele>
        <time>2015-09-28T12:24:26Z</time>
      </trkpt>
      <trkpt lat="44.63336" lon="6.01159">
        <ele>1647.84</ele>
        <time>2015-09-28T12:24:43Z</time>
      </trkpt>
      <trkpt lat="44.63334" lon="6.01165">
        <ele>1647.84</ele>
        <time>2015-09-28T12:24:57Z</time>
      </trkpt>
      <trkpt lat="44.63332" lon="6.01167">
        <ele>1647.84</ele>
        <time>2015-09-28T12:25:18Z</time>
      </trkpt>
      <trkpt lat="44.63331" lon="6.01166">
        <ele>1648.32</ele>
        <time>2015-09-28T12:25:33Z</time>
      </trkpt>
      <trkpt lat="44.63328" lon="6.01169">
        <ele>1647.84</ele>
        <time>2015-09-28T12:25:46Z</time>
      </trkpt>
      <trkpt lat="44.63323" lon="6.01185">
        <ele>1648.8</ele>
        <time>2015-09-28T12:26:00Z</time>
      </trkpt>
      <trkpt lat="44.63316" lon="6.01198">
        <ele>1649.28</ele>
        <time>2015-09-28T12:26:13Z</time>
      </trkpt>
      <trkpt lat="44.63315" lon="6.01205">
        <ele>1649.28</ele>
        <time>2015-09-28T12:26:25Z</time>
      </trkpt>
      <trkpt lat="44.63312" lon="6.01207">
        <ele>1649.76</ele>
        <time>2015-09-28T12:26:45Z</time>
      </trkpt>
      <trkpt lat="44.63309" lon="6.01217">
        <ele>1650.24</ele>
        <time>2015-09-28T12:26:54Z</time>
      </trkpt>
      <trkpt lat="44.63299" lon="6.01234">
        <ele>1652.16</ele>
        <time>2015-09-28T12:27:09Z</time>
      </trkpt>
      <trkpt lat="44.63289" lon="6.01251">
        <ele>1653.12</ele>
        <time>2015-09-28T12:27:24Z</time>
      </trkpt>
      <trkpt lat="44.6328" lon="6.01265">
        <ele>1654.09</ele>
        <time>2015-09-28T12:27:37Z</time>
      </trkpt>
      <trkpt lat="44.63269" lon="6.01278">
        <ele>1655.05</ele>
        <time>2015-09-28T12:27:52Z</time>
      </trkpt>
      <trkpt lat="44.63257" lon="6.01291">
        <ele>1656.01</ele>
        <time>2015-09-28T12:28:07Z</time>
      </trkpt>
      <trkpt lat="44.63249" lon="6.01303">
        <ele>1656.49</ele>
        <time>2015-09-28T12:28:21Z</time>
      </trkpt>
      <trkpt lat="44.63244" lon="6.0131">
        <ele>1657.45</ele>
        <time>2015-09-28T12:28:28Z</time>
      </trkpt>
      <trkpt lat="44.63235" lon="6.01328">
        <ele>1657.45</ele>
        <time>2015-09-28T12:28:43Z</time>
      </trkpt>
      <trkpt lat="44.63225" lon="6.0134">
        <ele>1658.41</ele>
        <time>2015-09-28T12:28:57Z</time>
      </trkpt>
      <trkpt lat="44.63223" lon="6.01342">
        <ele>1658.89</ele>
        <time>2015-09-28T12:29:00Z</time>
      </trkpt>
      <trkpt lat="44.63222" lon="6.01345">
        <ele>1658.41</ele>
        <time>2015-09-28T12:29:02Z</time>
      </trkpt>
      <trkpt lat="44.63213" lon="6.01362">
        <ele>1660.33</ele>
        <time>2015-09-28T12:29:17Z</time>
      </trkpt>
      <trkpt lat="44.63209" lon="6.01373">
        <ele>1660.81</ele>
        <time>2015-09-28T12:29:26Z</time>
      </trkpt>
      <trkpt lat="44.63202" lon="6.01386">
        <ele>1661.3</ele>
        <time>2015-09-28T12:29:38Z</time>
      </trkpt>
      <trkpt lat="44.63201" lon="6.01389">
        <ele>1661.78</ele>
        <time>2015-09-28T12:29:40Z</time>
      </trkpt>
      <trkpt lat="44.63195" lon="6.01405">
        <ele>1662.74</ele>
        <time>2015-09-28T12:29:54Z</time>
      </trkpt>
      <trkpt lat="44.63192" lon="6.01413">
        <ele>1663.22</ele>
        <time>2015-09-28T12:30:01Z</time>
      </trkpt>
      <trkpt lat="44.63184" lon="6.01429">
        <ele>1664.18</ele>
        <time>2015-09-28T12:30:15Z</time>
      </trkpt>
      <trkpt lat="44.63183" lon="6.0143">
        <ele>1664.18</ele>
        <time>2015-09-28T12:30:17Z</time>
      </trkpt>
      <trkpt lat="44.63182" lon="6.01433">
        <ele>1664.18</ele>
        <time>2015-09-28T12:30:19Z</time>
      </trkpt>
      <trkpt lat="44.63178" lon="6.01441">
        <ele>1665.14</ele>
        <time>2015-09-28T12:30:32Z</time>
      </trkpt>
      <trkpt lat="44.63174" lon="6.01448">
        <ele>1665.14</ele>
        <time>2015-09-28T12:30:41Z</time>
      </trkpt>
      <trkpt lat="44.6317" lon="6.01459">
        <ele>1665.62</ele>
        <time>2015-09-28T12:30:51Z</time>
      </trkpt>
      <trkpt lat="44.63166" lon="6.0147">
        <ele>1666.58</ele>
        <time>2015-09-28T12:31:01Z</time>
      </trkpt>
      <trkpt lat="44.63164" lon="6.01475">
        <ele>1666.58</ele>
        <time>2015-09-28T12:31:06Z</time>
      </trkpt>
      <trkpt lat="44.63161" lon="6.01482">
        <ele>1667.06</ele>
        <time>2015-09-28T12:31:14Z</time>
      </trkpt>
      <trkpt lat="44.6316" lon="6.01487">
        <ele>1667.06</ele>
        <time>2015-09-28T12:31:18Z</time>
      </trkpt>
      <trkpt lat="44.63159" lon="6.0149">
        <ele>1667.54</ele>
        <time>2015-09-28T12:31:22Z</time>
      </trkpt>
      <trkpt lat="44.63158" lon="6.01492">
        <ele>1667.54</ele>
        <time>2015-09-28T12:31:24Z</time>
      </trkpt>
      <trkpt lat="44.63158" lon="6.01495">
        <ele>1667.54</ele>
        <time>2015-09-28T12:31:26Z</time>
      </trkpt>
      <trkpt lat="44.63157" lon="6.01498">
        <ele>1668.02</ele>
        <time>2015-09-28T12:31:28Z</time>
      </trkpt>
      <trkpt lat="44.63155" lon="6.01505">
        <ele>1668.02</ele>
        <time>2015-09-28T12:31:34Z</time>
      </trkpt>
      <trkpt lat="44.63154" lon="6.01507">
        <ele>1668.51</ele>
        <time>2015-09-28T12:31:36Z</time>
      </trkpt>
      <trkpt lat="44.6315" lon="6.01521">
        <ele>1668.99</ele>
        <time>2015-09-28T12:31:48Z</time>
      </trkpt>
      <trkpt lat="44.6315" lon="6.01524">
        <ele>1668.99</ele>
        <time>2015-09-28T12:31:50Z</time>
      </trkpt>
      <trkpt lat="44.63146" lon="6.01539">
        <ele>1669.95</ele>
        <time>2015-09-28T12:32:04Z</time>
      </trkpt>
      <trkpt lat="44.63144" lon="6.01549">
        <ele>1670.91</ele>
        <time>2015-09-28T12:32:13Z</time>
      </trkpt>
      <trkpt lat="44.63141" lon="6.01565">
        <ele>1670.91</ele>
        <time>2015-09-28T12:32:26Z</time>
      </trkpt>
      <trkpt lat="44.6314" lon="6.0157">
        <ele>1671.39</ele>
        <time>2015-09-28T12:32:31Z</time>
      </trkpt>
      <trkpt lat="44.63139" lon="6.01581">
        <ele>1672.35</ele>
        <time>2015-09-28T12:32:40Z</time>
      </trkpt>
      <trkpt lat="44.63136" lon="6.01588">
        <ele>1672.35</ele>
        <time>2015-09-28T12:32:46Z</time>
      </trkpt>
      <trkpt lat="44.63134" lon="6.01603">
        <ele>1673.31</ele>
        <time>2015-09-28T12:33:01Z</time>
      </trkpt>
      <trkpt lat="44.63132" lon="6.01621">
        <ele>1674.27</ele>
        <time>2015-09-28T12:33:15Z</time>
      </trkpt>
      <trkpt lat="44.63131" lon="6.01625">
        <ele>1674.27</ele>
        <time>2015-09-28T12:33:18Z</time>
      </trkpt>
      <trkpt lat="44.63128" lon="6.01633">
        <ele>1674.75</ele>
        <time>2015-09-28T12:33:31Z</time>
      </trkpt>
      <trkpt lat="44.63126" lon="6.01643">
        <ele>1675.23</ele>
        <time>2015-09-28T12:33:45Z</time>
      </trkpt>
      <trkpt lat="44.63115" lon="6.01664">
        <ele>1676.68</ele>
        <time>2015-09-28T12:34:02Z</time>
      </trkpt>
      <trkpt lat="44.63112" lon="6.01676">
        <ele>1677.64</ele>
        <time>2015-09-28T12:34:14Z</time>
      </trkpt>
      <trkpt lat="44.63111" lon="6.01681">
        <ele>1677.16</ele>
        <time>2015-09-28T12:34:23Z</time>
      </trkpt>
      <trkpt lat="44.63101" lon="6.01692">
        <ele>1678.12</ele>
        <time>2015-09-28T12:34:38Z</time>
      </trkpt>
      <trkpt lat="44.63089" lon="6.01709">
        <ele>1679.08</ele>
        <time>2015-09-28T12:34:53Z</time>
      </trkpt>
      <trkpt lat="44.63085" lon="6.01718">
        <ele>1679.56</ele>
        <time>2015-09-28T12:35:03Z</time>
      </trkpt>
      <trkpt lat="44.6308" lon="6.01734">
        <ele>1680.04</ele>
        <time>2015-09-28T12:35:18Z</time>
      </trkpt>
      <trkpt lat="44.63079" lon="6.01738">
        <ele>1680.52</ele>
        <time>2015-09-28T12:35:21Z</time>
      </trkpt>
      <trkpt lat="44.63068" lon="6.01748">
        <ele>1681.48</ele>
        <time>2015-09-28T12:35:36Z</time>
      </trkpt>
      <trkpt lat="44.63066" lon="6.01752">
        <ele>1681.48</ele>
        <time>2015-09-28T12:35:42Z</time>
      </trkpt>
      <trkpt lat="44.63055" lon="6.01762">
        <ele>1682.44</ele>
        <time>2015-09-28T12:35:57Z</time>
      </trkpt>
      <trkpt lat="44.63048" lon="6.01777">
        <ele>1683.89</ele>
        <time>2015-09-28T12:36:12Z</time>
      </trkpt>
      <trkpt lat="44.63044" lon="6.01789">
        <ele>1683.89</ele>
        <time>2015-09-28T12:36:24Z</time>
      </trkpt>
      <trkpt lat="44.63038" lon="6.01804">
        <ele>1684.37</ele>
        <time>2015-09-28T12:36:37Z</time>
      </trkpt>
      <trkpt lat="44.63048" lon="6.01821">
        <ele>1683.41</ele>
        <time>2015-09-28T12:36:51Z</time>
      </trkpt>
      <trkpt lat="44.63055" lon="6.01837">
        <ele>1682.93</ele>
        <time>2015-09-28T12:37:05Z</time>
      </trkpt>
      <trkpt lat="44.63055" lon="6.01843">
        <ele>1682.93</ele>
        <time>2015-09-28T12:37:10Z</time>
      </trkpt>
      <trkpt lat="44.63044" lon="6.01856">
        <ele>1683.41</ele>
        <time>2015-09-28T12:37:23Z</time>
      </trkpt>
      <trkpt lat="44.63038" lon="6.01868">
        <ele>1683.89</ele>
        <time>2015-09-28T12:37:35Z</time>
      </trkpt>
      <trkpt lat="44.63036" lon="6.01872">
        <ele>1683.89</ele>
        <time>2015-09-28T12:37:39Z</time>
      </trkpt>
      <trkpt lat="44.63035" lon="6.01876">
        <ele>1683.89</ele>
        <time>2015-09-28T12:37:42Z</time>
      </trkpt>
      <trkpt lat="44.63038" lon="6.01881">
        <ele>1683.41</ele>
        <time>2015-09-28T12:37:48Z</time>
      </trkpt>
      <trkpt lat="44.63052" lon="6.01884">
        <ele>1683.41</ele>
        <time>2015-09-28T12:38:03Z</time>
      </trkpt>
      <trkpt lat="44.63057" lon="6.01889">
        <ele>1683.41</ele>
        <time>2015-09-28T12:38:11Z</time>
      </trkpt>
      <trkpt lat="44.63066" lon="6.01903">
        <ele>1683.41</ele>
        <time>2015-09-28T12:38:24Z</time>
      </trkpt>
      <trkpt lat="44.63069" lon="6.01909">
        <ele>1683.89</ele>
        <time>2015-09-28T12:38:29Z</time>
      </trkpt>
      <trkpt lat="44.6307" lon="6.01929">
        <ele>1684.85</ele>
        <time>2015-09-28T12:38:43Z</time>
      </trkpt>
      <trkpt lat="44.63069" lon="6.0193">
        <ele>1684.85</ele>
        <time>2015-09-28T12:38:44Z</time>
      </trkpt>
      <trkpt lat="44.63068" lon="6.01933">
        <ele>1684.85</ele>
        <time>2015-09-28T12:38:46Z</time>
      </trkpt>
      <trkpt lat="44.63066" lon="6.01941">
        <ele>1685.33</ele>
        <time>2015-09-28T12:38:53Z</time>
      </trkpt>
      <trkpt lat="44.63061" lon="6.01953">
        <ele>1685.81</ele>
        <time>2015-09-28T12:39:03Z</time>
      </trkpt>
      <trkpt lat="44.6306" lon="6.01956">
        <ele>1686.29</ele>
        <time>2015-09-28T12:39:05Z</time>
      </trkpt>
      <trkpt lat="44.63051" lon="6.01971">
        <ele>1686.77</ele>
        <time>2015-09-28T12:39:18Z</time>
      </trkpt>
      <trkpt lat="44.63043" lon="6.01982">
        <ele>1687.25</ele>
        <time>2015-09-28T12:39:29Z</time>
      </trkpt>
      <trkpt lat="44.63036" lon="6.02004">
        <ele>1688.69</ele>
        <time>2015-09-28T12:39:47Z</time>
      </trkpt>
      <trkpt lat="44.63035" lon="6.02022">
        <ele>1689.65</ele>
        <time>2015-09-28T12:40:02Z</time>
      </trkpt>
      <trkpt lat="44.63032" lon="6.02033">
        <ele>1690.14</ele>
        <time>2015-09-28T12:40:10Z</time>
      </trkpt>
      <trkpt lat="44.63026" lon="6.02058">
        <ele>1691.1</ele>
        <time>2015-09-28T12:40:28Z</time>
      </trkpt>
      <trkpt lat="44.63022" lon="6.02076">
        <ele>1692.06</ele>
        <time>2015-09-28T12:40:42Z</time>
      </trkpt>
      <trkpt lat="44.63022" lon="6.02077">
        <ele>1692.06</ele>
        <time>2015-09-28T12:40:44Z</time>
      </trkpt>
      <trkpt lat="44.63012" lon="6.02098">
        <ele>1692.54</ele>
        <time>2015-09-28T12:41:00Z</time>
      </trkpt>
      <trkpt lat="44.63005" lon="6.02113">
        <ele>1693.5</ele>
        <time>2015-09-28T12:41:14Z</time>
      </trkpt>
      <trkpt lat="44.62995" lon="6.02128">
        <ele>1694.94</ele>
        <time>2015-09-28T12:41:29Z</time>
      </trkpt>
      <trkpt lat="44.62984" lon="6.02139">
        <ele>1695.42</ele>
        <time>2015-09-28T12:41:42Z</time>
      </trkpt>
      <trkpt lat="44.62977" lon="6.02148">
        <ele>1695.9</ele>
        <time>2015-09-28T12:41:53Z</time>
      </trkpt>
      <trkpt lat="44.62969" lon="6.02162">
        <ele>1697.34</ele>
        <time>2015-09-28T12:42:07Z</time>
      </trkpt>
      <trkpt lat="44.62963" lon="6.02169">
        <ele>1697.83</ele>
        <time>2015-09-28T12:42:14Z</time>
      </trkpt>
      <trkpt lat="44.6296" lon="6.02176">
        <ele>1698.31</ele>
        <time>2015-09-28T12:42:19Z</time>
      </trkpt>
      <trkpt lat="44.6296" lon="6.02179">
        <ele>1698.31</ele>
        <time>2015-09-28T12:42:21Z</time>
      </trkpt>
      <trkpt lat="44.62959" lon="6.02181">
        <ele>1698.31</ele>
        <time>2015-09-28T12:42:23Z</time>
      </trkpt>
      <trkpt lat="44.62952" lon="6.022">
        <ele>1699.27</ele>
        <time>2015-09-28T12:42:38Z</time>
      </trkpt>
      <trkpt lat="44.62949" lon="6.02206">
        <ele>1699.27</ele>
        <time>2015-09-28T12:42:42Z</time>
      </trkpt>
      <trkpt lat="44.62945" lon="6.02209">
        <ele>1699.75</ele>
        <time>2015-09-28T12:42:46Z</time>
      </trkpt>
      <trkpt lat="44.62934" lon="6.02225">
        <ele>1700.23</ele>
        <time>2015-09-28T12:43:01Z</time>
      </trkpt>
      <trkpt lat="44.62933" lon="6.02228">
        <ele>1700.23</ele>
        <time>2015-09-28T12:43:04Z</time>
      </trkpt>
      <trkpt lat="44.62921" lon="6.02236">
        <ele>1701.19</ele>
        <time>2015-09-28T12:43:16Z</time>
      </trkpt>
      <trkpt lat="44.62918" lon="6.02239">
        <ele>1701.19</ele>
        <time>2015-09-28T12:43:19Z</time>
      </trkpt>
      <trkpt lat="44.62915" lon="6.02242">
        <ele>1701.67</ele>
        <time>2015-09-28T12:43:23Z</time>
      </trkpt>
      <trkpt lat="44.62912" lon="6.02245">
        <ele>1702.15</ele>
        <time>2015-09-28T12:43:27Z</time>
      </trkpt>
      <trkpt lat="44.62907" lon="6.0225">
        <ele>1702.15</ele>
        <time>2015-09-28T12:43:33Z</time>
      </trkpt>
      <trkpt lat="44.62905" lon="6.02261">
        <ele>1703.11</ele>
        <time>2015-09-28T12:43:47Z</time>
      </trkpt>
      <trkpt lat="44.62905" lon="6.02271">
        <ele>1703.11</ele>
        <time>2015-09-28T12:43:57Z</time>
      </trkpt>
      <trkpt lat="44.62905" lon="6.02275">
        <ele>1702.63</ele>
        <time>2015-09-28T12:44:00Z</time>
      </trkpt>
      <trkpt lat="44.62903" lon="6.02288">
        <ele>1702.63</ele>
        <time>2015-09-28T12:44:09Z</time>
      </trkpt>
      <trkpt lat="44.62898" lon="6.02296">
        <ele>1702.63</ele>
        <time>2015-09-28T12:44:18Z</time>
      </trkpt>
      <trkpt lat="44.62892" lon="6.02291">
        <ele>1702.15</ele>
        <time>2015-09-28T12:44:30Z</time>
      </trkpt>
      <trkpt lat="44.62874" lon="6.02273">
        <ele>1700.71</ele>
        <time>2015-09-28T12:44:49Z</time>
      </trkpt>
      <trkpt lat="44.62866" lon="6.02267">
        <ele>1700.23</ele>
        <time>2015-09-28T12:44:59Z</time>
      </trkpt>
      <trkpt lat="44.62859" lon="6.02271">
        <ele>1699.75</ele>
        <time>2015-09-28T12:45:17Z</time>
      </trkpt>
      <trkpt lat="44.62846" lon="6.02282">
        <ele>1698.31</ele>
        <time>2015-09-28T12:45:31Z</time>
      </trkpt>
      <trkpt lat="44.62832" lon="6.02291">
        <ele>1696.38</ele>
        <time>2015-09-28T12:45:46Z</time>
      </trkpt>
      <trkpt lat="44.62824" lon="6.02297">
        <ele>1695.9</ele>
        <time>2015-09-28T12:45:54Z</time>
      </trkpt>
      <trkpt lat="44.62822" lon="6.02303">
        <ele>1695.9</ele>
        <time>2015-09-28T12:45:59Z</time>
      </trkpt>
      <trkpt lat="44.62812" lon="6.0232">
        <ele>1693.5</ele>
        <time>2015-09-28T12:46:14Z</time>
      </trkpt>
      <trkpt lat="44.62812" lon="6.02329">
        <ele>1692.54</ele>
        <time>2015-09-28T12:46:20Z</time>
      </trkpt>
      <trkpt lat="44.62818" lon="6.02335">
        <ele>1691.1</ele>
        <time>2015-09-28T12:46:32Z</time>
      </trkpt>
      <trkpt lat="44.62817" lon="6.02336">
        <ele>1691.58</ele>
        <time>2015-09-28T12:46:47Z</time>
      </trkpt>
      <trkpt lat="44.62819" lon="6.02339">
        <ele>1691.58</ele>
        <time>2015-09-28T12:47:12Z</time>
      </trkpt>
      <trkpt lat="44.62818" lon="6.02338">
        <ele>1691.58</ele>
        <time>2015-09-28T12:47:27Z</time>
      </trkpt>
      <trkpt lat="44.62816" lon="6.02335">
        <ele>1691.1</ele>
        <time>2015-09-28T12:47:56Z</time>
      </trkpt>
      <trkpt lat="44.62815" lon="6.02335">
        <ele>1691.58</ele>
        <time>2015-09-28T12:48:23Z</time>
      </trkpt>
      <trkpt lat="44.62816" lon="6.02335">
        <ele>1691.58</ele>
        <time>2015-09-28T12:48:49Z</time>
      </trkpt>
      <trkpt lat="44.62816" lon="6.02333">
        <ele>1691.58</ele>
        <time>2015-09-28T12:49:20Z</time>
      </trkpt>
      <trkpt lat="44.62818" lon="6.02334">
        <ele>1691.58</ele>
        <time>2015-09-28T12:49:39Z</time>
      </trkpt>
      <trkpt lat="44.62826" lon="6.02349">
        <ele>1690.62</ele>
        <time>2015-09-28T12:49:50Z</time>
      </trkpt>
      <trkpt lat="44.62832" lon="6.02358">
        <ele>1690.14</ele>
        <time>2015-09-28T12:50:02Z</time>
      </trkpt>
      <trkpt lat="44.62839" lon="6.02373">
        <ele>1687.73</ele>
        <time>2015-09-28T12:50:18Z</time>
      </trkpt>
      <trkpt lat="44.62847" lon="6.02389">
        <ele>1685.81</ele>
        <time>2015-09-28T12:50:33Z</time>
      </trkpt>
      <trkpt lat="44.62849" lon="6.02392">
        <ele>1685.81</ele>
        <time>2015-09-28T12:50:37Z</time>
      </trkpt>
      <trkpt lat="44.62864" lon="6.02396">
        <ele>1686.29</ele>
        <time>2015-09-28T12:50:51Z</time>
      </trkpt>
      <trkpt lat="44.62869" lon="6.02388">
        <ele>1686.77</ele>
        <time>2015-09-28T12:51:04Z</time>
      </trkpt>
      <trkpt lat="44.62881" lon="6.02385">
        <ele>1686.29</ele>
        <time>2015-09-28T12:51:18Z</time>
      </trkpt>
      <trkpt lat="44.62889" lon="6.02402">
        <ele>1685.81</ele>
        <time>2015-09-28T12:51:32Z</time>
      </trkpt>
      <trkpt lat="44.62889" lon="6.02404">
        <ele>1685.33</ele>
        <time>2015-09-28T12:51:34Z</time>
      </trkpt>
      <trkpt lat="44.62889" lon="6.02407">
        <ele>1685.33</ele>
        <time>2015-09-28T12:51:36Z</time>
      </trkpt>
      <trkpt lat="44.62893" lon="6.02421">
        <ele>1683.89</ele>
        <time>2015-09-28T12:51:49Z</time>
      </trkpt>
      <trkpt lat="44.62896" lon="6.02426">
        <ele>1683.41</ele>
        <time>2015-09-28T12:52:00Z</time>
      </trkpt>
      <trkpt lat="44.629" lon="6.02446">
        <ele>1681.48</ele>
        <time>2015-09-28T12:52:13Z</time>
      </trkpt>
      <trkpt lat="44.62897" lon="6.02462">
        <ele>1681.48</ele>
        <time>2015-09-28T12:52:27Z</time>
      </trkpt>
      <trkpt lat="44.62894" lon="6.02477">
        <ele>1681.48</ele>
        <time>2015-09-28T12:52:40Z</time>
      </trkpt>
      <trkpt lat="44.62891" lon="6.02499">
        <ele>1680.04</ele>
        <time>2015-09-28T12:52:56Z</time>
      </trkpt>
      <trkpt lat="44.62889" lon="6.02513">
        <ele>1679.56</ele>
        <time>2015-09-28T12:53:06Z</time>
      </trkpt>
      <trkpt lat="44.62891" lon="6.02526">
        <ele>1679.08</ele>
        <time>2015-09-28T12:53:19Z</time>
      </trkpt>
      <trkpt lat="44.62892" lon="6.02536">
        <ele>1678.12</ele>
        <time>2015-09-28T12:53:26Z</time>
      </trkpt>
      <trkpt lat="44.62896" lon="6.02547">
        <ele>1677.16</ele>
        <time>2015-09-28T12:53:36Z</time>
      </trkpt>
      <trkpt lat="44.62895" lon="6.02563">
        <ele>1674.75</ele>
        <time>2015-09-28T12:53:49Z</time>
      </trkpt>
      <trkpt lat="44.62895" lon="6.02573">
        <ele>1673.31</ele>
        <time>2015-09-28T12:53:55Z</time>
      </trkpt>
      <trkpt lat="44.6289" lon="6.02581">
        <ele>1671.39</ele>
        <time>2015-09-28T12:54:07Z</time>
      </trkpt>
      <trkpt lat="44.62884" lon="6.02584">
        <ele>1670.43</ele>
        <time>2015-09-28T12:54:13Z</time>
      </trkpt>
      <trkpt lat="44.62878" lon="6.02582">
        <ele>1668.99</ele>
        <time>2015-09-28T12:54:19Z</time>
      </trkpt>
      <trkpt lat="44.62873" lon="6.02579">
        <ele>1668.02</ele>
        <time>2015-09-28T12:54:25Z</time>
      </trkpt>
      <trkpt lat="44.62858" lon="6.02577">
        <ele>1664.18</ele>
        <time>2015-09-28T12:54:41Z</time>
      </trkpt>
      <trkpt lat="44.62852" lon="6.02581">
        <ele>1663.22</ele>
        <time>2015-09-28T12:54:49Z</time>
      </trkpt>
      <trkpt lat="44.62848" lon="6.02583">
        <ele>1662.26</ele>
        <time>2015-09-28T12:55:01Z</time>
      </trkpt>
      <trkpt lat="44.6284" lon="6.02591">
        <ele>1660.33</ele>
        <time>2015-09-28T12:55:15Z</time>
      </trkpt>
      <trkpt lat="44.62838" lon="6.02595">
        <ele>1658.89</ele>
        <time>2015-09-28T12:55:18Z</time>
      </trkpt>
      <trkpt lat="44.62831" lon="6.02604">
        <ele>1655.53</ele>
        <time>2015-09-28T12:55:30Z</time>
      </trkpt>
      <trkpt lat="44.62823" lon="6.02609">
        <ele>1652.64</ele>
        <time>2015-09-28T12:55:41Z</time>
      </trkpt>
      <trkpt lat="44.62812" lon="6.02613">
        <ele>1649.28</ele>
        <time>2015-09-28T12:55:53Z</time>
      </trkpt>
      <trkpt lat="44.62803" lon="6.02616">
        <ele>1646.4</ele>
        <time>2015-09-28T12:56:06Z</time>
      </trkpt>
      <trkpt lat="44.62793" lon="6.02619">
        <ele>1643.51</ele>
        <time>2015-09-28T12:56:16Z</time>
      </trkpt>
      <trkpt lat="44.62786" lon="6.0262">
        <ele>1641.11</ele>
        <time>2015-09-28T12:56:25Z</time>
      </trkpt>
      <trkpt lat="44.62779" lon="6.02623">
        <ele>1638.7</ele>
        <time>2015-09-28T12:56:32Z</time>
      </trkpt>
      <trkpt lat="44.62777" lon="6.02624">
        <ele>1637.74</ele>
        <time>2015-09-28T12:56:35Z</time>
      </trkpt>
      <trkpt lat="44.62767" lon="6.02632">
        <ele>1634.38</ele>
        <time>2015-09-28T12:56:49Z</time>
      </trkpt>
      <trkpt lat="44.62759" lon="6.0264">
        <ele>1631.98</ele>
        <time>2015-09-28T12:57:04Z</time>
      </trkpt>
      <trkpt lat="44.62748" lon="6.0265">
        <ele>1629.09</ele>
        <time>2015-09-28T12:57:20Z</time>
      </trkpt>
      <trkpt lat="44.62741" lon="6.02663">
        <ele>1627.17</ele>
        <time>2015-09-28T12:57:35Z</time>
      </trkpt>
      <trkpt lat="44.62732" lon="6.02676">
        <ele>1624.28</ele>
        <time>2015-09-28T12:57:49Z</time>
      </trkpt>
      <trkpt lat="44.62727" lon="6.02683">
        <ele>1622.84</ele>
        <time>2015-09-28T12:57:56Z</time>
      </trkpt>
      <trkpt lat="44.62715" lon="6.02693">
        <ele>1619.96</ele>
        <time>2015-09-28T12:58:11Z</time>
      </trkpt>
      <trkpt lat="44.62712" lon="6.02694">
        <ele>1619</ele>
        <time>2015-09-28T12:58:15Z</time>
      </trkpt>
      <trkpt lat="44.62701" lon="6.02703">
        <ele>1616.11</ele>
        <time>2015-09-28T12:58:29Z</time>
      </trkpt>
      <trkpt lat="44.62688" lon="6.02718">
        <ele>1613.71</ele>
        <time>2015-09-28T12:58:48Z</time>
      </trkpt>
      <trkpt lat="44.62677" lon="6.02735">
        <ele>1610.83</ele>
        <time>2015-09-28T12:59:06Z</time>
      </trkpt>
      <trkpt lat="44.62675" lon="6.0274">
        <ele>1610.35</ele>
        <time>2015-09-28T12:59:11Z</time>
      </trkpt>
      <trkpt lat="44.62666" lon="6.02748">
        <ele>1608.42</ele>
        <time>2015-09-28T12:59:22Z</time>
      </trkpt>
      <trkpt lat="44.62651" lon="6.02759">
        <ele>1605.06</ele>
        <time>2015-09-28T12:59:40Z</time>
      </trkpt>
      <trkpt lat="44.62641" lon="6.02764">
        <ele>1603.62</ele>
        <time>2015-09-28T12:59:54Z</time>
      </trkpt>
      <trkpt lat="44.62627" lon="6.02767">
        <ele>1600.25</ele>
        <time>2015-09-28T13:00:11Z</time>
      </trkpt>
      <trkpt lat="44.62614" lon="6.02774">
        <ele>1597.37</ele>
        <time>2015-09-28T13:00:25Z</time>
      </trkpt>
      <trkpt lat="44.62611" lon="6.02766">
        <ele>1594.48</ele>
        <time>2015-09-28T13:00:37Z</time>
      </trkpt>
      <trkpt lat="44.62605" lon="6.02772">
        <ele>1592.08</ele>
        <time>2015-09-28T13:00:48Z</time>
      </trkpt>
      <trkpt lat="44.626" lon="6.02776">
        <ele>1591.12</ele>
        <time>2015-09-28T13:00:53Z</time>
      </trkpt>
      <trkpt lat="44.62596" lon="6.02767">
        <ele>1588.72</ele>
        <time>2015-09-28T13:01:07Z</time>
      </trkpt>
      <trkpt lat="44.62594" lon="6.0277">
        <ele>1588.24</ele>
        <time>2015-09-28T13:01:10Z</time>
      </trkpt>
      <trkpt lat="44.6259" lon="6.02774">
        <ele>1586.31</ele>
        <time>2015-09-28T13:01:19Z</time>
      </trkpt>
      <trkpt lat="44.6259" lon="6.02761">
        <ele>1584.39</ele>
        <time>2015-09-28T13:01:33Z</time>
      </trkpt>
      <trkpt lat="44.6259" lon="6.0276">
        <ele>1584.39</ele>
        <time>2015-09-28T13:01:40Z</time>
      </trkpt>
      <trkpt lat="44.62592" lon="6.02747">
        <ele>1582.47</ele>
        <time>2015-09-28T13:01:50Z</time>
      </trkpt>
      <trkpt lat="44.62593" lon="6.02741">
        <ele>1581.03</ele>
        <time>2015-09-28T13:01:54Z</time>
      </trkpt>
      <trkpt lat="44.62593" lon="6.02738">
        <ele>1580.54</ele>
        <time>2015-09-28T13:01:56Z</time>
      </trkpt>
      <trkpt lat="44.62594" lon="6.02723">
        <ele>1577.66</ele>
        <time>2015-09-28T13:02:10Z</time>
      </trkpt>
      <trkpt lat="44.62597" lon="6.0271">
        <ele>1575.74</ele>
        <time>2015-09-28T13:02:24Z</time>
      </trkpt>
      <trkpt lat="44.62598" lon="6.02708">
        <ele>1574.3</ele>
        <time>2015-09-28T13:02:41Z</time>
      </trkpt>
      <trkpt lat="44.62599" lon="6.02694">
        <ele>1572.85</ele>
        <time>2015-09-28T13:02:49Z</time>
      </trkpt>
      <trkpt lat="44.62597" lon="6.02694">
        <ele>1570.45</ele>
        <time>2015-09-28T13:02:59Z</time>
      </trkpt>
      <trkpt lat="44.62585" lon="6.02702">
        <ele>1567.57</ele>
        <time>2015-09-28T13:03:14Z</time>
      </trkpt>
      <trkpt lat="44.6258" lon="6.02707">
        <ele>1565.16</ele>
        <time>2015-09-28T13:03:22Z</time>
      </trkpt>
      <trkpt lat="44.62572" lon="6.0271">
        <ele>1563.24</ele>
        <time>2015-09-28T13:03:29Z</time>
      </trkpt>
      <trkpt lat="44.62564" lon="6.02716">
        <ele>1559.88</ele>
        <time>2015-09-28T13:03:43Z</time>
      </trkpt>
      <trkpt lat="44.62562" lon="6.02718">
        <ele>1559.4</ele>
        <time>2015-09-28T13:03:45Z</time>
      </trkpt>
      <trkpt lat="44.62554" lon="6.02724">
        <ele>1556.03</ele>
        <time>2015-09-28T13:03:57Z</time>
      </trkpt>
      <trkpt lat="44.62552" lon="6.02727">
        <ele>1555.07</ele>
        <time>2015-09-28T13:04:03Z</time>
      </trkpt>
      <trkpt lat="44.62544" lon="6.0274">
        <ele>1553.15</ele>
        <time>2015-09-28T13:04:14Z</time>
      </trkpt>
      <trkpt lat="44.6254" lon="6.02743">
        <ele>1551.71</ele>
        <time>2015-09-28T13:04:19Z</time>
      </trkpt>
      <trkpt lat="44.62534" lon="6.02752">
        <ele>1549.3</ele>
        <time>2015-09-28T13:04:31Z</time>
      </trkpt>
      <trkpt lat="44.6253" lon="6.02746">
        <ele>1547.38</ele>
        <time>2015-09-28T13:04:37Z</time>
      </trkpt>
      <trkpt lat="44.62529" lon="6.02738">
        <ele>1545.94</ele>
        <time>2015-09-28T13:04:43Z</time>
      </trkpt>
      <trkpt lat="44.62535" lon="6.02725">
        <ele>1543.53</ele>
        <time>2015-09-28T13:04:58Z</time>
      </trkpt>
      <trkpt lat="44.62536" lon="6.02724">
        <ele>1543.53</ele>
        <time>2015-09-28T13:05:10Z</time>
      </trkpt>
      <trkpt lat="44.62535" lon="6.0272">
        <ele>1543.53</ele>
        <time>2015-09-28T13:05:40Z</time>
      </trkpt>
      <trkpt lat="44.62536" lon="6.02722">
        <ele>1543.53</ele>
        <time>2015-09-28T13:06:14Z</time>
      </trkpt>
      <trkpt lat="44.62536" lon="6.02726">
        <ele>1543.53</ele>
        <time>2015-09-28T13:06:44Z</time>
      </trkpt>
      <trkpt lat="44.62535" lon="6.02725">
        <ele>1543.05</ele>
        <time>2015-09-28T13:06:54Z</time>
      </trkpt>
      <trkpt lat="44.62534" lon="6.02725">
        <ele>1543.53</ele>
        <time>2015-09-28T13:07:15Z</time>
      </trkpt>
      <trkpt lat="44.62529" lon="6.02731">
        <ele>1544.01</ele>
        <time>2015-09-28T13:07:28Z</time>
      </trkpt>
      <trkpt lat="44.62524" lon="6.02732">
        <ele>1543.05</ele>
        <time>2015-09-28T13:07:33Z</time>
      </trkpt>
      <trkpt lat="44.62521" lon="6.02732">
        <ele>1541.61</ele>
        <time>2015-09-28T13:07:37Z</time>
      </trkpt>
      <trkpt lat="44.62518" lon="6.02735">
        <ele>1541.13</ele>
        <time>2015-09-28T13:07:41Z</time>
      </trkpt>
      <trkpt lat="44.62515" lon="6.02753">
        <ele>1538.25</ele>
        <time>2015-09-28T13:07:56Z</time>
      </trkpt>
      <trkpt lat="44.62513" lon="6.02746">
        <ele>1536.8</ele>
        <time>2015-09-28T13:08:02Z</time>
      </trkpt>
      <trkpt lat="44.62506" lon="6.0273">
        <ele>1533.44</ele>
        <time>2015-09-28T13:08:13Z</time>
      </trkpt>
      <trkpt lat="44.62507" lon="6.02728">
        <ele>1532.96</ele>
        <time>2015-09-28T13:08:15Z</time>
      </trkpt>
      <trkpt lat="44.62508" lon="6.0271">
        <ele>1531.52</ele>
        <time>2015-09-28T13:08:30Z</time>
      </trkpt>
      <trkpt lat="44.62504" lon="6.0271">
        <ele>1530.56</ele>
        <time>2015-09-28T13:08:35Z</time>
      </trkpt>
      <trkpt lat="44.62481" lon="6.02706">
        <ele>1529.59</ele>
        <time>2015-09-28T13:08:54Z</time>
      </trkpt>
      <trkpt lat="44.62466" lon="6.02699">
        <ele>1526.71</ele>
        <time>2015-09-28T13:09:07Z</time>
      </trkpt>
      <trkpt lat="44.62453" lon="6.02696">
        <ele>1523.35</ele>
        <time>2015-09-28T13:09:19Z</time>
      </trkpt>
      <trkpt lat="44.62451" lon="6.02697">
        <ele>1522.87</ele>
        <time>2015-09-28T13:09:21Z</time>
      </trkpt>
      <trkpt lat="44.62436" lon="6.02691">
        <ele>1519.02</ele>
        <time>2015-09-28T13:09:35Z</time>
      </trkpt>
      <trkpt lat="44.62427" lon="6.02687">
        <ele>1516.62</ele>
        <time>2015-09-28T13:09:52Z</time>
      </trkpt>
      <trkpt lat="44.62424" lon="6.02686">
        <ele>1516.62</ele>
        <time>2015-09-28T13:10:20Z</time>
      </trkpt>
      <trkpt lat="44.62423" lon="6.02684">
        <ele>1515.66</ele>
        <time>2015-09-28T13:10:37Z</time>
      </trkpt>
      <trkpt lat="44.62413" lon="6.0268">
        <ele>1513.25</ele>
        <time>2015-09-28T13:10:51Z</time>
      </trkpt>
      <trkpt lat="44.62414" lon="6.02682">
        <ele>1513.25</ele>
        <time>2015-09-28T13:11:08Z</time>
      </trkpt>
      <trkpt lat="44.62413" lon="6.02681">
        <ele>1513.25</ele>
        <time>2015-09-28T13:11:34Z</time>
      </trkpt>
      <trkpt lat="44.62413" lon="6.02679">
        <ele>1513.25</ele>
        <time>2015-09-28T13:11:55Z</time>
      </trkpt>
      <trkpt lat="44.62413" lon="6.02681">
        <ele>1513.25</ele>
        <time>2015-09-28T13:12:22Z</time>
      </trkpt>
      <trkpt lat="44.62416" lon="6.0268">
        <ele>1513.25</ele>
        <time>2015-09-28T13:12:55Z</time>
      </trkpt>
      <trkpt lat="44.6241" lon="6.02678">
        <ele>1512.77</ele>
        <time>2015-09-28T13:13:10Z</time>
      </trkpt>
      <trkpt lat="44.62409" lon="6.0268">
        <ele>1511.81</ele>
        <time>2015-09-28T13:13:26Z</time>
      </trkpt>
      <trkpt lat="44.62406" lon="6.02679">
        <ele>1511.81</ele>
        <time>2015-09-28T13:13:34Z</time>
      </trkpt>
      <trkpt lat="44.62397" lon="6.02679">
        <ele>1510.37</ele>
        <time>2015-09-28T13:13:48Z</time>
      </trkpt>
      <trkpt lat="44.62386" lon="6.02677">
        <ele>1507.97</ele>
        <time>2015-09-28T13:14:02Z</time>
      </trkpt>
      <trkpt lat="44.62385" lon="6.02677">
        <ele>1507.48</ele>
        <time>2015-09-28T13:14:03Z</time>
      </trkpt>
      <trkpt lat="44.62373" lon="6.02668">
        <ele>1507</ele>
        <time>2015-09-28T13:14:18Z</time>
      </trkpt>
      <trkpt lat="44.62362" lon="6.02664">
        <ele>1507.48</ele>
        <time>2015-09-28T13:14:32Z</time>
      </trkpt>
      <trkpt lat="44.62346" lon="6.02664">
        <ele>1506.52</ele>
        <time>2015-09-28T13:14:48Z</time>
      </trkpt>
      <trkpt lat="44.62338" lon="6.02657">
        <ele>1507</ele>
        <time>2015-09-28T13:15:02Z</time>
      </trkpt>
      <trkpt lat="44.62327" lon="6.02651">
        <ele>1505.08</ele>
        <time>2015-09-28T13:15:17Z</time>
      </trkpt>
      <trkpt lat="44.62321" lon="6.02646">
        <ele>1503.64</ele>
        <time>2015-09-28T13:15:30Z</time>
      </trkpt>
      <trkpt lat="44.62317" lon="6.02644">
        <ele>1502.68</ele>
        <time>2015-09-28T13:15:36Z</time>
      </trkpt>
      <trkpt lat="44.62307" lon="6.02637">
        <ele>1499.79</ele>
        <time>2015-09-28T13:15:52Z</time>
      </trkpt>
      <trkpt lat="44.62296" lon="6.02634">
        <ele>1497.39</ele>
        <time>2015-09-28T13:16:08Z</time>
      </trkpt>
      <trkpt lat="44.62284" lon="6.02629">
        <ele>1494.99</ele>
        <time>2015-09-28T13:16:24Z</time>
      </trkpt>
      <trkpt lat="44.62281" lon="6.02629">
        <ele>1494.51</ele>
        <time>2015-09-28T13:16:28Z</time>
      </trkpt>
      <trkpt lat="44.62264" lon="6.02624">
        <ele>1493.06</ele>
        <time>2015-09-28T13:16:45Z</time>
      </trkpt>
      <trkpt lat="44.62248" lon="6.0262">
        <ele>1491.14</ele>
        <time>2015-09-28T13:17:04Z</time>
      </trkpt>
      <trkpt lat="44.62233" lon="6.02615">
        <ele>1488.26</ele>
        <time>2015-09-28T13:17:22Z</time>
      </trkpt>
      <trkpt lat="44.62223" lon="6.02604">
        <ele>1488.26</ele>
        <time>2015-09-28T13:17:38Z</time>
      </trkpt>
      <trkpt lat="44.62216" lon="6.02599">
        <ele>1488.74</ele>
        <time>2015-09-28T13:17:56Z</time>
      </trkpt>
      <trkpt lat="44.62211" lon="6.02598">
        <ele>1489.22</ele>
        <time>2015-09-28T13:18:02Z</time>
      </trkpt>
      <trkpt lat="44.62209" lon="6.02597">
        <ele>1489.22</ele>
        <time>2015-09-28T13:18:05Z</time>
      </trkpt>
      <trkpt lat="44.62193" lon="6.02599">
        <ele>1488.26</ele>
        <time>2015-09-28T13:18:21Z</time>
      </trkpt>
      <trkpt lat="44.62181" lon="6.02602">
        <ele>1485.85</ele>
        <time>2015-09-28T13:18:34Z</time>
      </trkpt>
      <trkpt lat="44.62165" lon="6.026">
        <ele>1482.97</ele>
        <time>2015-09-28T13:18:52Z</time>
      </trkpt>
      <trkpt lat="44.62165" lon="6.026">
        <ele>1482.97</ele>
        <time>2015-09-28T13:19:06Z</time>
      </trkpt>
      <trkpt lat="44.62157" lon="6.02603">
        <ele>1481.53</ele>
        <time>2015-09-28T13:19:23Z</time>
      </trkpt>
      <trkpt lat="44.62153" lon="6.02601">
        <ele>1481.05</ele>
        <time>2015-09-28T13:19:27Z</time>
      </trkpt>
      <trkpt lat="44.6215" lon="6.02599">
        <ele>1480.57</ele>
        <time>2015-09-28T13:19:30Z</time>
      </trkpt>
      <trkpt lat="44.62137" lon="6.026">
        <ele>1478.65</ele>
        <time>2015-09-28T13:19:47Z</time>
      </trkpt>
      <trkpt lat="44.62129" lon="6.026">
        <ele>1477.2</ele>
        <time>2015-09-28T13:19:59Z</time>
      </trkpt>
      <trkpt lat="44.6212" lon="6.02597">
        <ele>1474.8</ele>
        <time>2015-09-28T13:20:14Z</time>
      </trkpt>
      <trkpt lat="44.62111" lon="6.02592">
        <ele>1472.4</ele>
        <time>2015-09-28T13:20:27Z</time>
      </trkpt>
      <trkpt lat="44.62102" lon="6.02586">
        <ele>1471.92</ele>
        <time>2015-09-28T13:20:40Z</time>
      </trkpt>
      <trkpt lat="44.62097" lon="6.02582">
        <ele>1471.92</ele>
        <time>2015-09-28T13:20:56Z</time>
      </trkpt>
      <trkpt lat="44.62089" lon="6.02579">
        <ele>1471.44</ele>
        <time>2015-09-28T13:21:08Z</time>
      </trkpt>
      <trkpt lat="44.62083" lon="6.0258">
        <ele>1471.44</ele>
        <time>2015-09-28T13:21:15Z</time>
      </trkpt>
      <trkpt lat="44.62077" lon="6.02575">
        <ele>1471.44</ele>
        <time>2015-09-28T13:21:26Z</time>
      </trkpt>
      <trkpt lat="44.62065" lon="6.02572">
        <ele>1470.47</ele>
        <time>2015-09-28T13:21:42Z</time>
      </trkpt>
      <trkpt lat="44.62061" lon="6.02576">
        <ele>1469.99</ele>
        <time>2015-09-28T13:21:55Z</time>
      </trkpt>
      <trkpt lat="44.62061" lon="6.02577">
        <ele>1469.99</ele>
        <time>2015-09-28T13:21:56Z</time>
      </trkpt>
      <trkpt lat="44.62058" lon="6.02586">
        <ele>1467.59</ele>
        <time>2015-09-28T13:22:08Z</time>
      </trkpt>
      <trkpt lat="44.62054" lon="6.02594">
        <ele>1465.67</ele>
        <time>2015-09-28T13:22:18Z</time>
      </trkpt>
      <trkpt lat="44.62049" lon="6.02593">
        <ele>1465.19</ele>
        <time>2015-09-28T13:22:22Z</time>
      </trkpt>
      <trkpt lat="44.62037" lon="6.02583">
        <ele>1465.19</ele>
        <time>2015-09-28T13:22:37Z</time>
      </trkpt>
      <trkpt lat="44.62029" lon="6.02571">
        <ele>1464.23</ele>
        <time>2015-09-28T13:22:50Z</time>
      </trkpt>
      <trkpt lat="44.62026" lon="6.02562">
        <ele>1464.71</ele>
        <time>2015-09-28T13:22:58Z</time>
      </trkpt>
      <trkpt lat="44.62025" lon="6.0256">
        <ele>1464.71</ele>
        <time>2015-09-28T13:23:00Z</time>
      </trkpt>
      <trkpt lat="44.62024" lon="6.02556">
        <ele>1465.19</ele>
        <time>2015-09-28T13:23:04Z</time>
      </trkpt>
      <trkpt lat="44.62018" lon="6.02548">
        <ele>1464.71</ele>
        <time>2015-09-28T13:23:14Z</time>
      </trkpt>
      <trkpt lat="44.6201" lon="6.02549">
        <ele>1463.74</ele>
        <time>2015-09-28T13:23:21Z</time>
      </trkpt>
      <trkpt lat="44.62005" lon="6.02539">
        <ele>1463.26</ele>
        <time>2015-09-28T13:23:35Z</time>
      </trkpt>
      <trkpt lat="44.62001" lon="6.02526">
        <ele>1463.74</ele>
        <time>2015-09-28T13:23:48Z</time>
      </trkpt>
      <trkpt lat="44.61998" lon="6.02513">
        <ele>1465.19</ele>
        <time>2015-09-28T13:24:01Z</time>
      </trkpt>
      <trkpt lat="44.61993" lon="6.02502">
        <ele>1466.15</ele>
        <time>2015-09-28T13:24:14Z</time>
      </trkpt>
      <trkpt lat="44.61993" lon="6.02488">
        <ele>1468.55</ele>
        <time>2015-09-28T13:24:28Z</time>
      </trkpt>
      <trkpt lat="44.61988" lon="6.02478">
        <ele>1468.07</ele>
        <time>2015-09-28T13:24:38Z</time>
      </trkpt>
      <trkpt lat="44.61981" lon="6.02466">
        <ele>1467.11</ele>
        <time>2015-09-28T13:24:49Z</time>
      </trkpt>
      <trkpt lat="44.61978" lon="6.02449">
        <ele>1467.59</ele>
        <time>2015-09-28T13:25:03Z</time>
      </trkpt>
      <trkpt lat="44.61976" lon="6.02437">
        <ele>1469.03</ele>
        <time>2015-09-28T13:25:16Z</time>
      </trkpt>
      <trkpt lat="44.61975" lon="6.02432">
        <ele>1469.03</ele>
        <time>2015-09-28T13:25:20Z</time>
      </trkpt>
      <trkpt lat="44.61975" lon="6.02425">
        <ele>1469.51</ele>
        <time>2015-09-28T13:25:26Z</time>
      </trkpt>
      <trkpt lat="44.61971" lon="6.02419">
        <ele>1469.99</ele>
        <time>2015-09-28T13:25:39Z</time>
      </trkpt>
      <trkpt lat="44.61966" lon="6.02403">
        <ele>1469.51</ele>
        <time>2015-09-28T13:25:53Z</time>
      </trkpt>
      <trkpt lat="44.61965" lon="6.02399">
        <ele>1469.03</ele>
        <time>2015-09-28T13:25:57Z</time>
      </trkpt>
      <trkpt lat="44.61956" lon="6.02378">
        <ele>1468.07</ele>
        <time>2015-09-28T13:26:14Z</time>
      </trkpt>
      <trkpt lat="44.6195" lon="6.02366">
        <ele>1466.63</ele>
        <time>2015-09-28T13:26:25Z</time>
      </trkpt>
      <trkpt lat="44.6194" lon="6.02348">
        <ele>1465.67</ele>
        <time>2015-09-28T13:26:41Z</time>
      </trkpt>
      <trkpt lat="44.61938" lon="6.02344">
        <ele>1465.67</ele>
        <time>2015-09-28T13:26:44Z</time>
      </trkpt>
      <trkpt lat="44.61938" lon="6.02342">
        <ele>1466.15</ele>
        <time>2015-09-28T13:26:46Z</time>
      </trkpt>
      <trkpt lat="44.61931" lon="6.02329">
        <ele>1465.19</ele>
        <time>2015-09-28T13:27:00Z</time>
      </trkpt>
      <trkpt lat="44.61925" lon="6.02324">
        <ele>1463.26</ele>
        <time>2015-09-28T13:27:07Z</time>
      </trkpt>
      <trkpt lat="44.61914" lon="6.02316">
        <ele>1461.82</ele>
        <time>2015-09-28T13:27:21Z</time>
      </trkpt>
      <trkpt lat="44.61905" lon="6.02311">
        <ele>1460.38</ele>
        <time>2015-09-28T13:27:32Z</time>
      </trkpt>
      <trkpt lat="44.61899" lon="6.02302">
        <ele>1459.9</ele>
        <time>2015-09-28T13:27:43Z</time>
      </trkpt>
      <trkpt lat="44.61894" lon="6.02306">
        <ele>1460.38</ele>
        <time>2015-09-28T13:27:56Z</time>
      </trkpt>
      <trkpt lat="44.61894" lon="6.02318">
        <ele>1462.78</ele>
        <time>2015-09-28T13:28:10Z</time>
      </trkpt>
      <trkpt lat="44.61894" lon="6.02322">
        <ele>1463.74</ele>
        <time>2015-09-28T13:28:14Z</time>
      </trkpt>
      <trkpt lat="44.61898" lon="6.02337">
        <ele>1462.78</ele>
        <time>2015-09-28T13:28:29Z</time>
      </trkpt>
      <trkpt lat="44.61899" lon="6.0234">
        <ele>1462.3</ele>
        <time>2015-09-28T13:28:33Z</time>
      </trkpt>
      <trkpt lat="44.61895" lon="6.02363">
        <ele>1461.34</ele>
        <time>2015-09-28T13:28:49Z</time>
      </trkpt>
      <trkpt lat="44.61894" lon="6.02365">
        <ele>1461.34</ele>
        <time>2015-09-28T13:28:52Z</time>
      </trkpt>
      <trkpt lat="44.61892" lon="6.0237">
        <ele>1461.34</ele>
        <time>2015-09-28T13:28:56Z</time>
      </trkpt>
      <trkpt lat="44.61891" lon="6.02373">
        <ele>1461.82</ele>
        <time>2015-09-28T13:28:58Z</time>
      </trkpt>
      <trkpt lat="44.61886" lon="6.02395">
        <ele>1461.82</ele>
        <time>2015-09-28T13:29:14Z</time>
      </trkpt>
      <trkpt lat="44.61879" lon="6.0241">
        <ele>1461.82</ele>
        <time>2015-09-28T13:29:28Z</time>
      </trkpt>
      <trkpt lat="44.61868" lon="6.02424">
        <ele>1461.34</ele>
        <time>2015-09-28T13:29:43Z</time>
      </trkpt>
      <trkpt lat="44.61861" lon="6.02432">
        <ele>1460.38</ele>
        <time>2015-09-28T13:29:52Z</time>
      </trkpt>
      <trkpt lat="44.61852" lon="6.0244">
        <ele>1459.42</ele>
        <time>2015-09-28T13:30:03Z</time>
      </trkpt>
      <trkpt lat="44.6184" lon="6.02453">
        <ele>1457.5</ele>
        <time>2015-09-28T13:30:20Z</time>
      </trkpt>
      <trkpt lat="44.61828" lon="6.02466">
        <ele>1456.53</ele>
        <time>2015-09-28T13:30:34Z</time>
      </trkpt>
      <trkpt lat="44.61822" lon="6.02472">
        <ele>1456.05</ele>
        <time>2015-09-28T13:30:42Z</time>
      </trkpt>
      <trkpt lat="44.6182" lon="6.02479">
        <ele>1455.09</ele>
        <time>2015-09-28T13:30:47Z</time>
      </trkpt>
      <trkpt lat="44.61817" lon="6.02481">
        <ele>1455.09</ele>
        <time>2015-09-28T13:30:50Z</time>
      </trkpt>
      <trkpt lat="44.61805" lon="6.02499">
        <ele>1452.69</ele>
        <time>2015-09-28T13:31:06Z</time>
      </trkpt>
      <trkpt lat="44.6179" lon="6.02511">
        <ele>1450.29</ele>
        <time>2015-09-28T13:31:24Z</time>
      </trkpt>
      <trkpt lat="44.61783" lon="6.02524">
        <ele>1447.88</ele>
        <time>2015-09-28T13:31:39Z</time>
      </trkpt>
      <trkpt lat="44.61779" lon="6.02534">
        <ele>1445</ele>
        <time>2015-09-28T13:31:52Z</time>
      </trkpt>
      <trkpt lat="44.61776" lon="6.02545">
        <ele>1441.63</ele>
        <time>2015-09-28T13:32:05Z</time>
      </trkpt>
      <trkpt lat="44.61777" lon="6.02551">
        <ele>1439.71</ele>
        <time>2015-09-28T13:32:21Z</time>
      </trkpt>
      <trkpt lat="44.61773" lon="6.02563">
        <ele>1436.83</ele>
        <time>2015-09-28T13:32:33Z</time>
      </trkpt>
      <trkpt lat="44.61772" lon="6.02566">
        <ele>1436.35</ele>
        <time>2015-09-28T13:32:36Z</time>
      </trkpt>
      <trkpt lat="44.61771" lon="6.0257">
        <ele>1435.39</ele>
        <time>2015-09-28T13:32:39Z</time>
      </trkpt>
      <trkpt lat="44.61765" lon="6.02581">
        <ele>1432.02</ele>
        <time>2015-09-28T13:32:52Z</time>
      </trkpt>
      <trkpt lat="44.6176" lon="6.02591">
        <ele>1429.14</ele>
        <time>2015-09-28T13:33:05Z</time>
      </trkpt>
      <trkpt lat="44.6176" lon="6.02592">
        <ele>1428.66</ele>
        <time>2015-09-28T13:33:19Z</time>
      </trkpt>
      <trkpt lat="44.61759" lon="6.02594">
        <ele>1428.18</ele>
        <time>2015-09-28T13:33:21Z</time>
      </trkpt>
      <trkpt lat="44.61756" lon="6.02603">
        <ele>1425.77</ele>
        <time>2015-09-28T13:33:30Z</time>
      </trkpt>
      <trkpt lat="44.61754" lon="6.02605">
        <ele>1425.29</ele>
        <time>2015-09-28T13:33:32Z</time>
      </trkpt>
      <trkpt lat="44.61752" lon="6.02615">
        <ele>1423.37</ele>
        <time>2015-09-28T13:33:46Z</time>
      </trkpt>
      <trkpt lat="44.61749" lon="6.02623">
        <ele>1421.93</ele>
        <time>2015-09-28T13:34:01Z</time>
      </trkpt>
      <trkpt lat="44.61747" lon="6.02626">
        <ele>1420.49</ele>
        <time>2015-09-28T13:34:05Z</time>
      </trkpt>
      <trkpt lat="44.61744" lon="6.02636">
        <ele>1417.6</ele>
        <time>2015-09-28T13:34:17Z</time>
      </trkpt>
      <trkpt lat="44.61737" lon="6.02649">
        <ele>1415.2</ele>
        <time>2015-09-28T13:34:30Z</time>
      </trkpt>
      <trkpt lat="44.61733" lon="6.02656">
        <ele>1414.72</ele>
        <time>2015-09-28T13:34:38Z</time>
      </trkpt>
      <trkpt lat="44.6173" lon="6.02661">
        <ele>1412.31</ele>
        <time>2015-09-28T13:34:43Z</time>
      </trkpt>
      <trkpt lat="44.6173" lon="6.02664">
        <ele>1412.31</ele>
        <time>2015-09-28T13:34:45Z</time>
      </trkpt>
      <trkpt lat="44.61725" lon="6.02671">
        <ele>1409.91</ele>
        <time>2015-09-28T13:34:57Z</time>
      </trkpt>
      <trkpt lat="44.6172" lon="6.02672">
        <ele>1408.95</ele>
        <time>2015-09-28T13:35:04Z</time>
      </trkpt>
      <trkpt lat="44.61713" lon="6.02675">
        <ele>1407.51</ele>
        <time>2015-09-28T13:35:16Z</time>
      </trkpt>
      <trkpt lat="44.61709" lon="6.02684">
        <ele>1406.55</ele>
        <time>2015-09-28T13:35:25Z</time>
      </trkpt>
      <trkpt lat="44.6171" lon="6.02686">
        <ele>1405.58</ele>
        <time>2015-09-28T13:35:27Z</time>
      </trkpt>
      <trkpt lat="44.6171" lon="6.02689">
        <ele>1405.1</ele>
        <time>2015-09-28T13:35:30Z</time>
      </trkpt>
      <trkpt lat="44.61705" lon="6.027">
        <ele>1402.7</ele>
        <time>2015-09-28T13:35:42Z</time>
      </trkpt>
      <trkpt lat="44.61705" lon="6.02701">
        <ele>1402.22</ele>
        <time>2015-09-28T13:35:43Z</time>
      </trkpt>
      <trkpt lat="44.61703" lon="6.02703">
        <ele>1402.22</ele>
        <time>2015-09-28T13:35:45Z</time>
      </trkpt>
      <trkpt lat="44.61698" lon="6.02713">
        <ele>1399.82</ele>
        <time>2015-09-28T13:35:58Z</time>
      </trkpt>
      <trkpt lat="44.61696" lon="6.02714">
        <ele>1398.86</ele>
        <time>2015-09-28T13:36:13Z</time>
      </trkpt>
      <trkpt lat="44.61689" lon="6.02722">
        <ele>1397.41</ele>
        <time>2015-09-28T13:36:25Z</time>
      </trkpt>
      <trkpt lat="44.61682" lon="6.02728">
        <ele>1395.97</ele>
        <time>2015-09-28T13:36:32Z</time>
      </trkpt>
      <trkpt lat="44.61672" lon="6.02736">
        <ele>1393.57</ele>
        <time>2015-09-28T13:36:42Z</time>
      </trkpt>
      <trkpt lat="44.61672" lon="6.02738">
        <ele>1393.09</ele>
        <time>2015-09-28T13:36:49Z</time>
      </trkpt>
      <trkpt lat="44.6167" lon="6.0274">
        <ele>1392.61</ele>
        <time>2015-09-28T13:36:52Z</time>
      </trkpt>
      <trkpt lat="44.61667" lon="6.02744">
        <ele>1392.13</ele>
        <time>2015-09-28T13:36:56Z</time>
      </trkpt>
      <trkpt lat="44.61657" lon="6.0275">
        <ele>1389.24</ele>
        <time>2015-09-28T13:37:05Z</time>
      </trkpt>
      <trkpt lat="44.61653" lon="6.02755">
        <ele>1387.8</ele>
        <time>2015-09-28T13:37:09Z</time>
      </trkpt>
      <trkpt lat="44.61648" lon="6.02759">
        <ele>1385.88</ele>
        <time>2015-09-28T13:37:15Z</time>
      </trkpt>
      <trkpt lat="44.6164" lon="6.02758">
        <ele>1382.99</ele>
        <time>2015-09-28T13:37:29Z</time>
      </trkpt>
      <trkpt lat="44.61637" lon="6.02767">
        <ele>1381.55</ele>
        <time>2015-09-28T13:37:38Z</time>
      </trkpt>
      <trkpt lat="44.61635" lon="6.02775">
        <ele>1380.11</ele>
        <time>2015-09-28T13:37:48Z</time>
      </trkpt>
      <trkpt lat="44.61637" lon="6.02781">
        <ele>1380.11</ele>
        <time>2015-09-28T13:37:53Z</time>
      </trkpt>
      <trkpt lat="44.6163" lon="6.02784">
        <ele>1378.67</ele>
        <time>2015-09-28T13:38:00Z</time>
      </trkpt>
      <trkpt lat="44.61626" lon="6.02788">
        <ele>1377.23</ele>
        <time>2015-09-28T13:38:06Z</time>
      </trkpt>
      <trkpt lat="44.61618" lon="6.02789">
        <ele>1375.3</ele>
        <time>2015-09-28T13:38:22Z</time>
      </trkpt>
      <trkpt lat="44.61614" lon="6.02788">
        <ele>1373.86</ele>
        <time>2015-09-28T13:38:35Z</time>
      </trkpt>
      <trkpt lat="44.61611" lon="6.02786">
        <ele>1372.9</ele>
        <time>2015-09-28T13:38:54Z</time>
      </trkpt>
      <trkpt lat="44.61611" lon="6.02779">
        <ele>1372.42</ele>
        <time>2015-09-28T13:39:09Z</time>
      </trkpt>
      <trkpt lat="44.61603" lon="6.02764">
        <ele>1370.02</ele>
        <time>2015-09-28T13:39:24Z</time>
      </trkpt>
      <trkpt lat="44.61602" lon="6.02753">
        <ele>1370.02</ele>
        <time>2015-09-28T13:39:38Z</time>
      </trkpt>
      <trkpt lat="44.61605" lon="6.02746">
        <ele>1370.02</ele>
        <time>2015-09-28T13:39:56Z</time>
      </trkpt>
      <trkpt lat="44.61607" lon="6.02742">
        <ele>1370.02</ele>
        <time>2015-09-28T13:39:59Z</time>
      </trkpt>
      <trkpt lat="44.61614" lon="6.0274">
        <ele>1371.46</ele>
        <time>2015-09-28T13:40:13Z</time>
      </trkpt>
      <trkpt lat="44.61616" lon="6.02742">
        <ele>1371.46</ele>
        <time>2015-09-28T13:40:27Z</time>
      </trkpt>
      <trkpt lat="44.61619" lon="6.02741">
        <ele>1373.38</ele>
        <time>2015-09-28T13:40:42Z</time>
      </trkpt>
      <trkpt lat="44.61621" lon="6.02734">
        <ele>1373.86</ele>
        <time>2015-09-28T13:40:56Z</time>
      </trkpt>
      <trkpt lat="44.6162" lon="6.02728">
        <ele>1374.34</ele>
        <time>2015-09-28T13:41:09Z</time>
      </trkpt>
      <trkpt lat="44.61619" lon="6.02723">
        <ele>1373.38</ele>
        <time>2015-09-28T13:41:15Z</time>
      </trkpt>
      <trkpt lat="44.61614" lon="6.0272">
        <ele>1374.34</ele>
        <time>2015-09-28T13:41:28Z</time>
      </trkpt>
      <trkpt lat="44.616" lon="6.02725">
        <ele>1376.26</ele>
        <time>2015-09-28T13:41:44Z</time>
      </trkpt>
      <trkpt lat="44.61588" lon="6.02714">
        <ele>1376.75</ele>
        <time>2015-09-28T13:42:02Z</time>
      </trkpt>
      <trkpt lat="44.61586" lon="6.02712">
        <ele>1377.23</ele>
        <time>2015-09-28T13:42:18Z</time>
      </trkpt>
      <trkpt lat="44.61584" lon="6.02707">
        <ele>1377.23</ele>
        <time>2015-09-28T13:42:22Z</time>
      </trkpt>
      <trkpt lat="44.61573" lon="6.02684">
        <ele>1376.75</ele>
        <time>2015-09-28T13:42:40Z</time>
      </trkpt>
      <trkpt lat="44.61563" lon="6.02662">
        <ele>1374.34</ele>
        <time>2015-09-28T13:42:58Z</time>
      </trkpt>
      <trkpt lat="44.61557" lon="6.0266">
        <ele>1373.38</ele>
        <time>2015-09-28T13:43:10Z</time>
      </trkpt>
      <trkpt lat="44.61552" lon="6.0267">
        <ele>1374.82</ele>
        <time>2015-09-28T13:43:23Z</time>
      </trkpt>
      <trkpt lat="44.6155" lon="6.02677">
        <ele>1375.3</ele>
        <time>2015-09-28T13:43:30Z</time>
      </trkpt>
      <trkpt lat="44.61544" lon="6.02694">
        <ele>1376.26</ele>
        <time>2015-09-28T13:43:44Z</time>
      </trkpt>
      <trkpt lat="44.61533" lon="6.02691">
        <ele>1376.26</ele>
        <time>2015-09-28T13:43:56Z</time>
      </trkpt>
      <trkpt lat="44.6153" lon="6.02689">
        <ele>1376.26</ele>
        <time>2015-09-28T13:44:02Z</time>
      </trkpt>
      <trkpt lat="44.6152" lon="6.02688">
        <ele>1375.3</ele>
        <time>2015-09-28T13:44:14Z</time>
      </trkpt>
      <trkpt lat="44.61515" lon="6.02691">
        <ele>1372.9</ele>
        <time>2015-09-28T13:44:21Z</time>
      </trkpt>
      <trkpt lat="44.61504" lon="6.02686">
        <ele>1372.9</ele>
        <time>2015-09-28T13:44:30Z</time>
      </trkpt>
      <trkpt lat="44.61502" lon="6.02685">
        <ele>1372.9</ele>
        <time>2015-09-28T13:44:32Z</time>
      </trkpt>
      <trkpt lat="44.61495" lon="6.02681">
        <ele>1372.9</ele>
        <time>2015-09-28T13:44:39Z</time>
      </trkpt>
      <trkpt lat="44.6149" lon="6.02674">
        <ele>1371.94</ele>
        <time>2015-09-28T13:44:48Z</time>
      </trkpt>
      <trkpt lat="44.61486" lon="6.0267">
        <ele>1370.98</ele>
        <time>2015-09-28T13:45:00Z</time>
      </trkpt>
      <trkpt lat="44.61481" lon="6.02673">
        <ele>1370.98</ele>
        <time>2015-09-28T13:45:07Z</time>
      </trkpt>
      <trkpt lat="44.61475" lon="6.02673">
        <ele>1370.5</ele>
        <time>2015-09-28T13:45:14Z</time>
      </trkpt>
      <trkpt lat="44.61468" lon="6.02668">
        <ele>1368.09</ele>
        <time>2015-09-28T13:45:23Z</time>
      </trkpt>
      <trkpt lat="44.6146" lon="6.02664">
        <ele>1367.13</ele>
        <time>2015-09-28T13:45:31Z</time>
      </trkpt>
      <trkpt lat="44.61443" lon="6.0266">
        <ele>1366.65</ele>
        <time>2015-09-28T13:45:47Z</time>
      </trkpt>
      <trkpt lat="44.61443" lon="6.02659">
        <ele>1366.17</ele>
        <time>2015-09-28T13:45:50Z</time>
      </trkpt>
      <trkpt lat="44.61434" lon="6.02653">
        <ele>1367.13</ele>
        <time>2015-09-28T13:46:03Z</time>
      </trkpt>
      <trkpt lat="44.61433" lon="6.02651">
        <ele>1366.65</ele>
        <time>2015-09-28T13:46:05Z</time>
      </trkpt>
      <trkpt lat="44.61425" lon="6.02639">
        <ele>1365.69</ele>
        <time>2015-09-28T13:46:21Z</time>
      </trkpt>
      <trkpt lat="44.61422" lon="6.02637">
        <ele>1364.25</ele>
        <time>2015-09-28T13:46:29Z</time>
      </trkpt>
      <trkpt lat="44.61417" lon="6.0264">
        <ele>1363.77</ele>
        <time>2015-09-28T13:46:35Z</time>
      </trkpt>
      <trkpt lat="44.61412" lon="6.0265">
        <ele>1361.84</ele>
        <time>2015-09-28T13:46:45Z</time>
      </trkpt>
      <trkpt lat="44.61405" lon="6.02667">
        <ele>1360.88</ele>
        <time>2015-09-28T13:47:01Z</time>
      </trkpt>
      <trkpt lat="44.61398" lon="6.02675">
        <ele>1361.36</ele>
        <time>2015-09-28T13:47:16Z</time>
      </trkpt>
      <trkpt lat="44.61384" lon="6.02688">
        <ele>1361.84</ele>
        <time>2015-09-28T13:47:33Z</time>
      </trkpt>
      <trkpt lat="44.61378" lon="6.02691">
        <ele>1362.81</ele>
        <time>2015-09-28T13:47:45Z</time>
      </trkpt>
      <trkpt lat="44.61377" lon="6.02691">
        <ele>1362.81</ele>
        <time>2015-09-28T13:47:46Z</time>
      </trkpt>
      <trkpt lat="44.61365" lon="6.0269">
        <ele>1365.21</ele>
        <time>2015-09-28T13:48:01Z</time>
      </trkpt>
      <trkpt lat="44.6135" lon="6.0269">
        <ele>1367.61</ele>
        <time>2015-09-28T13:48:17Z</time>
      </trkpt>
      <trkpt lat="44.61333" lon="6.0269">
        <ele>1367.13</ele>
        <time>2015-09-28T13:48:35Z</time>
      </trkpt>
      <trkpt lat="44.61326" lon="6.02691">
        <ele>1369.05</ele>
        <time>2015-09-28T13:48:44Z</time>
      </trkpt>
      <trkpt lat="44.61317" lon="6.02693">
        <ele>1368.09</ele>
        <time>2015-09-28T13:48:53Z</time>
      </trkpt>
      <trkpt lat="44.613" lon="6.02698">
        <ele>1367.61</ele>
        <time>2015-09-28T13:49:10Z</time>
      </trkpt>
      <trkpt lat="44.61285" lon="6.02698">
        <ele>1367.13</ele>
        <time>2015-09-28T13:49:26Z</time>
      </trkpt>
      <trkpt lat="44.61269" lon="6.02693">
        <ele>1365.69</ele>
        <time>2015-09-28T13:49:43Z</time>
      </trkpt>
      <trkpt lat="44.61266" lon="6.02688">
        <ele>1365.69</ele>
        <time>2015-09-28T13:49:48Z</time>
      </trkpt>
      <trkpt lat="44.61263" lon="6.02686">
        <ele>1365.69</ele>
        <time>2015-09-28T13:50:04Z</time>
      </trkpt>
      <trkpt lat="44.61263" lon="6.02687">
        <ele>1365.69</ele>
        <time>2015-09-28T13:50:26Z</time>
      </trkpt>
      <trkpt lat="44.61261" lon="6.02685">
        <ele>1366.17</ele>
        <time>2015-09-28T13:50:44Z</time>
      </trkpt>
      <trkpt lat="44.61261" lon="6.02683">
        <ele>1365.69</ele>
        <time>2015-09-28T13:50:50Z</time>
      </trkpt>
      <trkpt lat="44.61257" lon="6.02674">
        <ele>1366.17</ele>
        <time>2015-09-28T13:51:03Z</time>
      </trkpt>
      <trkpt lat="44.61249" lon="6.02665">
        <ele>1366.17</ele>
        <time>2015-09-28T13:51:16Z</time>
      </trkpt>
      <trkpt lat="44.61235" lon="6.02661">
        <ele>1364.73</ele>
        <time>2015-09-28T13:51:31Z</time>
      </trkpt>
      <trkpt lat="44.61227" lon="6.02657">
        <ele>1363.77</ele>
        <time>2015-09-28T13:51:40Z</time>
      </trkpt>
      <trkpt lat="44.61215" lon="6.02641">
        <ele>1363.77</ele>
        <time>2015-09-28T13:51:55Z</time>
      </trkpt>
      <trkpt lat="44.61203" lon="6.0263">
        <ele>1362.33</ele>
        <time>2015-09-28T13:52:11Z</time>
      </trkpt>
      <trkpt lat="44.61195" lon="6.02627">
        <ele>1360.88</ele>
        <time>2015-09-28T13:52:20Z</time>
      </trkpt>
      <trkpt lat="44.61178" lon="6.02624">
        <ele>1359.44</ele>
        <time>2015-09-28T13:52:38Z</time>
      </trkpt>
      <trkpt lat="44.61173" lon="6.02623">
        <ele>1359.92</ele>
        <time>2015-09-28T13:52:50Z</time>
      </trkpt>
      <trkpt lat="44.61172" lon="6.02623">
        <ele>1360.4</ele>
        <time>2015-09-28T13:53:09Z</time>
      </trkpt>
      <trkpt lat="44.61172" lon="6.02623">
        <ele>1360.4</ele>
        <time>2015-09-28T13:53:20Z</time>
      </trkpt>
      <trkpt lat="44.61171" lon="6.02621">
        <ele>1360.88</ele>
        <time>2015-09-28T13:53:30Z</time>
      </trkpt>
      <trkpt lat="44.61159" lon="6.02614">
        <ele>1359.44</ele>
        <time>2015-09-28T13:53:43Z</time>
      </trkpt>
      <trkpt lat="44.61156" lon="6.02615">
        <ele>1359.44</ele>
        <time>2015-09-28T13:53:59Z</time>
      </trkpt>
      <trkpt lat="44.61152" lon="6.02609">
        <ele>1359.44</ele>
        <time>2015-09-28T13:54:12Z</time>
      </trkpt>
      <trkpt lat="44.61143" lon="6.02592">
        <ele>1359.92</ele>
        <time>2015-09-28T13:54:27Z</time>
      </trkpt>
      <trkpt lat="44.61142" lon="6.02591">
        <ele>1359.92</ele>
        <time>2015-09-28T13:54:38Z</time>
      </trkpt>
      <trkpt lat="44.61139" lon="6.02586">
        <ele>1359.92</ele>
        <time>2015-09-28T13:54:42Z</time>
      </trkpt>
      <trkpt lat="44.61128" lon="6.02574">
        <ele>1358</ele>
        <time>2015-09-28T13:54:59Z</time>
      </trkpt>
      <trkpt lat="44.61123" lon="6.02559">
        <ele>1355.6</ele>
        <time>2015-09-28T13:55:14Z</time>
      </trkpt>
      <trkpt lat="44.61118" lon="6.02551">
        <ele>1353.67</ele>
        <time>2015-09-28T13:55:27Z</time>
      </trkpt>
      <trkpt lat="44.61113" lon="6.02562">
        <ele>1351.75</ele>
        <time>2015-09-28T13:55:41Z</time>
      </trkpt>
      <trkpt lat="44.61111" lon="6.02565">
        <ele>1351.27</ele>
        <time>2015-09-28T13:55:44Z</time>
      </trkpt>
      <trkpt lat="44.61101" lon="6.02579">
        <ele>1348.87</ele>
        <time>2015-09-28T13:56:01Z</time>
      </trkpt>
      <trkpt lat="44.611" lon="6.02581">
        <ele>1347.91</ele>
        <time>2015-09-28T13:56:13Z</time>
      </trkpt>
      <trkpt lat="44.61098" lon="6.0258">
        <ele>1347.91</ele>
        <time>2015-09-28T13:56:27Z</time>
      </trkpt>
      <trkpt lat="44.61094" lon="6.02585">
        <ele>1346.94</ele>
        <time>2015-09-28T13:56:49Z</time>
      </trkpt>
      <trkpt lat="44.61081" lon="6.02597">
        <ele>1345.5</ele>
        <time>2015-09-28T13:57:07Z</time>
      </trkpt>
      <trkpt lat="44.61076" lon="6.02611">
        <ele>1345.5</ele>
        <time>2015-09-28T13:57:21Z</time>
      </trkpt>
      <trkpt lat="44.61058" lon="6.02622">
        <ele>1344.06</ele>
        <time>2015-09-28T13:57:39Z</time>
      </trkpt>
      <trkpt lat="44.61047" lon="6.02619">
        <ele>1343.58</ele>
        <time>2015-09-28T13:57:54Z</time>
      </trkpt>
      <trkpt lat="44.61034" lon="6.02619">
        <ele>1341.18</ele>
        <time>2015-09-28T13:58:10Z</time>
      </trkpt>
      <trkpt lat="44.61023" lon="6.02622">
        <ele>1339.73</ele>
        <time>2015-09-28T13:58:22Z</time>
      </trkpt>
      <trkpt lat="44.61012" lon="6.02622">
        <ele>1338.77</ele>
        <time>2015-09-28T13:58:36Z</time>
      </trkpt>
      <trkpt lat="44.61005" lon="6.02623">
        <ele>1336.85</ele>
        <time>2015-09-28T13:58:47Z</time>
      </trkpt>
      <trkpt lat="44.60991" lon="6.02626">
        <ele>1334.93</ele>
        <time>2015-09-28T13:59:03Z</time>
      </trkpt>
      <trkpt lat="44.60982" lon="6.02626">
        <ele>1333.97</ele>
        <time>2015-09-28T13:59:12Z</time>
      </trkpt>
      <trkpt lat="44.60971" lon="6.02627">
        <ele>1331.56</ele>
        <time>2015-09-28T13:59:27Z</time>
      </trkpt>
      <trkpt lat="44.60958" lon="6.0262">
        <ele>1328.2</ele>
        <time>2015-09-28T13:59:44Z</time>
      </trkpt>
      <trkpt lat="44.60958" lon="6.0262">
        <ele>1328.2</ele>
        <time>2015-09-28T13:59:45Z</time>
      </trkpt>
      <trkpt lat="44.60945" lon="6.02615">
        <ele>1324.83</ele>
        <time>2015-09-28T14:00:01Z</time>
      </trkpt>
      <trkpt lat="44.60937" lon="6.02616">
        <ele>1322.91</ele>
        <time>2015-09-28T14:00:16Z</time>
      </trkpt>
      <trkpt lat="44.60932" lon="6.02615">
        <ele>1321.47</ele>
        <time>2015-09-28T14:00:22Z</time>
      </trkpt>
      <trkpt lat="44.60917" lon="6.02612">
        <ele>1318.59</ele>
        <time>2015-09-28T14:00:40Z</time>
      </trkpt>
      <trkpt lat="44.60913" lon="6.02611">
        <ele>1318.1</ele>
        <time>2015-09-28T14:00:44Z</time>
      </trkpt>
      <trkpt lat="44.60897" lon="6.0261">
        <ele>1315.7</ele>
        <time>2015-09-28T14:01:01Z</time>
      </trkpt>
      <trkpt lat="44.60885" lon="6.02607">
        <ele>1312.34</ele>
        <time>2015-09-28T14:01:15Z</time>
      </trkpt>
      <trkpt lat="44.60875" lon="6.02602">
        <ele>1308.97</ele>
        <time>2015-09-28T14:01:28Z</time>
      </trkpt>
      <trkpt lat="44.60874" lon="6.02602">
        <ele>1308.49</ele>
        <time>2015-09-28T14:01:30Z</time>
      </trkpt>
      <trkpt lat="44.60866" lon="6.02594">
        <ele>1305.61</ele>
        <time>2015-09-28T14:01:42Z</time>
      </trkpt>
      <trkpt lat="44.60862" lon="6.02592">
        <ele>1304.65</ele>
        <time>2015-09-28T14:01:46Z</time>
      </trkpt>
      <trkpt lat="44.60852" lon="6.02587">
        <ele>1301.28</ele>
        <time>2015-09-28T14:02:00Z</time>
      </trkpt>
      <trkpt lat="44.60845" lon="6.02588">
        <ele>1299.36</ele>
        <time>2015-09-28T14:02:08Z</time>
      </trkpt>
      <trkpt lat="44.6084" lon="6.02589">
        <ele>1297.92</ele>
        <time>2015-09-28T14:02:22Z</time>
      </trkpt>
      <trkpt lat="44.60826" lon="6.0258">
        <ele>1294.55</ele>
        <time>2015-09-28T14:02:38Z</time>
      </trkpt>
      <trkpt lat="44.60815" lon="6.02582">
        <ele>1291.67</ele>
        <time>2015-09-28T14:02:51Z</time>
      </trkpt>
      <trkpt lat="44.60807" lon="6.02583">
        <ele>1289.27</ele>
        <time>2015-09-28T14:03:00Z</time>
      </trkpt>
      <trkpt lat="44.60798" lon="6.02582">
        <ele>1286.38</ele>
        <time>2015-09-28T14:03:10Z</time>
      </trkpt>
      <trkpt lat="44.60797" lon="6.02581">
        <ele>1286.38</ele>
        <time>2015-09-28T14:03:11Z</time>
      </trkpt>
      <trkpt lat="44.60782" lon="6.0257">
        <ele>1283.5</ele>
        <time>2015-09-28T14:03:28Z</time>
      </trkpt>
      <trkpt lat="44.60773" lon="6.02548">
        <ele>1280.13</ele>
        <time>2015-09-28T14:03:44Z</time>
      </trkpt>
      <trkpt lat="44.60772" lon="6.02546">
        <ele>1280.13</ele>
        <time>2015-09-28T14:03:46Z</time>
      </trkpt>
      <trkpt lat="44.60768" lon="6.02542">
        <ele>1279.17</ele>
        <time>2015-09-28T14:03:52Z</time>
      </trkpt>
      <trkpt lat="44.60761" lon="6.02525">
        <ele>1279.17</ele>
        <time>2015-09-28T14:04:06Z</time>
      </trkpt>
      <trkpt lat="44.6076" lon="6.02524">
        <ele>1279.17</ele>
        <time>2015-09-28T14:04:07Z</time>
      </trkpt>
      <trkpt lat="44.60755" lon="6.02508">
        <ele>1279.17</ele>
        <time>2015-09-28T14:04:20Z</time>
      </trkpt>
      <trkpt lat="44.60749" lon="6.02498">
        <ele>1279.65</ele>
        <time>2015-09-28T14:04:33Z</time>
      </trkpt>
      <trkpt lat="44.60742" lon="6.02489">
        <ele>1278.21</ele>
        <time>2015-09-28T14:04:49Z</time>
      </trkpt>
      <trkpt lat="44.60739" lon="6.02485">
        <ele>1276.77</ele>
        <time>2015-09-28T14:04:54Z</time>
      </trkpt>
      <trkpt lat="44.60733" lon="6.02473">
        <ele>1274.85</ele>
        <time>2015-09-28T14:05:05Z</time>
      </trkpt>
      <trkpt lat="44.60731" lon="6.02468">
        <ele>1274.36</ele>
        <time>2015-09-28T14:05:10Z</time>
      </trkpt>
      <trkpt lat="44.60729" lon="6.02466">
        <ele>1274.36</ele>
        <time>2015-09-28T14:05:14Z</time>
      </trkpt>
      <trkpt lat="44.60721" lon="6.0246">
        <ele>1272.92</ele>
        <time>2015-09-28T14:05:27Z</time>
      </trkpt>
      <trkpt lat="44.60716" lon="6.02457">
        <ele>1271.96</ele>
        <time>2015-09-28T14:05:36Z</time>
      </trkpt>
      <trkpt lat="44.60703" lon="6.02438">
        <ele>1269.56</ele>
        <time>2015-09-28T14:05:55Z</time>
      </trkpt>
      <trkpt lat="44.60694" lon="6.02425">
        <ele>1267.64</ele>
        <time>2015-09-28T14:06:11Z</time>
      </trkpt>
      <trkpt lat="44.60686" lon="6.02412">
        <ele>1265.23</ele>
        <time>2015-09-28T14:06:26Z</time>
      </trkpt>
      <trkpt lat="44.60678" lon="6.02395">
        <ele>1264.27</ele>
        <time>2015-09-28T14:06:41Z</time>
      </trkpt>
      <trkpt lat="44.60666" lon="6.02377">
        <ele>1262.35</ele>
        <time>2015-09-28T14:06:57Z</time>
      </trkpt>
      <trkpt lat="44.6066" lon="6.02372">
        <ele>1261.87</ele>
        <time>2015-09-28T14:07:06Z</time>
      </trkpt>
      <trkpt lat="44.60656" lon="6.02367">
        <ele>1260.43</ele>
        <time>2015-09-28T14:07:12Z</time>
      </trkpt>
      <trkpt lat="44.60648" lon="6.02357">
        <ele>1257.54</ele>
        <time>2015-09-28T14:07:23Z</time>
      </trkpt>
      <trkpt lat="44.60642" lon="6.02343">
        <ele>1256.1</ele>
        <time>2015-09-28T14:07:35Z</time>
      </trkpt>
      <trkpt lat="44.60633" lon="6.02338">
        <ele>1254.18</ele>
        <time>2015-09-28T14:07:52Z</time>
      </trkpt>
      <trkpt lat="44.60632" lon="6.02339">
        <ele>1253.7</ele>
        <time>2015-09-28T14:08:17Z</time>
      </trkpt>
      <trkpt lat="44.60634" lon="6.02339">
        <ele>1253.7</ele>
        <time>2015-09-28T14:08:49Z</time>
      </trkpt>
      <trkpt lat="44.60627" lon="6.02341">
        <ele>1254.18</ele>
        <time>2015-09-28T14:08:59Z</time>
      </trkpt>
      <trkpt lat="44.60626" lon="6.02341">
        <ele>1254.18</ele>
        <time>2015-09-28T14:09:00Z</time>
      </trkpt>
      <trkpt lat="44.60617" lon="6.02338">
        <ele>1251.77</ele>
        <time>2015-09-28T14:09:11Z</time>
      </trkpt>
      <trkpt lat="44.60608" lon="6.02328">
        <ele>1250.81</ele>
        <time>2015-09-28T14:09:25Z</time>
      </trkpt>
      <trkpt lat="44.60597" lon="6.02311">
        <ele>1247.93</ele>
        <time>2015-09-28T14:09:43Z</time>
      </trkpt>
      <trkpt lat="44.6059" lon="6.02305">
        <ele>1245.53</ele>
        <time>2015-09-28T14:09:56Z</time>
      </trkpt>
      <trkpt lat="44.60578" lon="6.02304">
        <ele>1242.16</ele>
        <time>2015-09-28T14:10:11Z</time>
      </trkpt>
      <trkpt lat="44.60568" lon="6.02294">
        <ele>1240.24</ele>
        <time>2015-09-28T14:10:24Z</time>
      </trkpt>
      <trkpt lat="44.60567" lon="6.02292">
        <ele>1240.24</ele>
        <time>2015-09-28T14:10:25Z</time>
      </trkpt>
      <trkpt lat="44.60566" lon="6.02287">
        <ele>1239.76</ele>
        <time>2015-09-28T14:10:32Z</time>
      </trkpt>
      <trkpt lat="44.60555" lon="6.02277">
        <ele>1237.83</ele>
        <time>2015-09-28T14:10:48Z</time>
      </trkpt>
      <trkpt lat="44.60549" lon="6.02276">
        <ele>1235.91</ele>
        <time>2015-09-28T14:10:57Z</time>
      </trkpt>
      <trkpt lat="44.60542" lon="6.02271">
        <ele>1233.99</ele>
        <time>2015-09-28T14:11:07Z</time>
      </trkpt>
      <trkpt lat="44.60537" lon="6.02258">
        <ele>1232.07</ele>
        <time>2015-09-28T14:11:21Z</time>
      </trkpt>
      <trkpt lat="44.60525" lon="6.0226">
        <ele>1229.66</ele>
        <time>2015-09-28T14:11:36Z</time>
      </trkpt>
      <trkpt lat="44.60512" lon="6.02257">
        <ele>1226.3</ele>
        <time>2015-09-28T14:11:52Z</time>
      </trkpt>
      <trkpt lat="44.60501" lon="6.02252">
        <ele>1222.93</ele>
        <time>2015-09-28T14:12:07Z</time>
      </trkpt>
      <trkpt lat="44.60484" lon="6.02244">
        <ele>1220.05</ele>
        <time>2015-09-28T14:12:24Z</time>
      </trkpt>
      <trkpt lat="44.60474" lon="6.02244">
        <ele>1219.57</ele>
        <time>2015-09-28T14:12:39Z</time>
      </trkpt>
      <trkpt lat="44.6047" lon="6.02242">
        <ele>1218.61</ele>
        <time>2015-09-28T14:12:52Z</time>
      </trkpt>
      <trkpt lat="44.60468" lon="6.02243">
        <ele>1218.61</ele>
        <time>2015-09-28T14:13:04Z</time>
      </trkpt>
      <trkpt lat="44.60464" lon="6.02243">
        <ele>1218.13</ele>
        <time>2015-09-28T14:13:08Z</time>
      </trkpt>
      <trkpt lat="44.6045" lon="6.02239">
        <ele>1215.24</ele>
        <time>2015-09-28T14:13:23Z</time>
      </trkpt>
      <trkpt lat="44.60438" lon="6.02238">
        <ele>1213.32</ele>
        <time>2015-09-28T14:13:38Z</time>
      </trkpt>
      <trkpt lat="44.60434" lon="6.02238">
        <ele>1212.36</ele>
        <time>2015-09-28T14:13:43Z</time>
      </trkpt>
      <trkpt lat="44.60425" lon="6.02236">
        <ele>1211.88</ele>
        <time>2015-09-28T14:13:56Z</time>
      </trkpt>
      <trkpt lat="44.60427" lon="6.0224">
        <ele>1211.88</ele>
        <time>2015-09-28T14:14:14Z</time>
      </trkpt>
      <trkpt lat="44.60424" lon="6.02234">
        <ele>1211.4</ele>
        <time>2015-09-28T14:14:36Z</time>
      </trkpt>
      <trkpt lat="44.60417" lon="6.02222">
        <ele>1210.92</ele>
        <time>2015-09-28T14:14:52Z</time>
      </trkpt>
      <trkpt lat="44.60414" lon="6.02214">
        <ele>1210.92</ele>
        <time>2015-09-28T14:15:00Z</time>
      </trkpt>
      <trkpt lat="44.60407" lon="6.022">
        <ele>1210.44</ele>
        <time>2015-09-28T14:15:14Z</time>
      </trkpt>
      <trkpt lat="44.60399" lon="6.02188">
        <ele>1209.96</ele>
        <time>2015-09-28T14:15:28Z</time>
      </trkpt>
      <trkpt lat="44.60387" lon="6.02171">
        <ele>1209.48</ele>
        <time>2015-09-28T14:15:46Z</time>
      </trkpt>
      <trkpt lat="44.60374" lon="6.02153">
        <ele>1208.51</ele>
        <time>2015-09-28T14:16:05Z</time>
      </trkpt>
      <trkpt lat="44.60366" lon="6.02141">
        <ele>1208.03</ele>
        <time>2015-09-28T14:16:21Z</time>
      </trkpt>
      <trkpt lat="44.60361" lon="6.02134">
        <ele>1208.03</ele>
        <time>2015-09-28T14:16:33Z</time>
      </trkpt>
      <trkpt lat="44.60357" lon="6.02124">
        <ele>1207.55</ele>
        <time>2015-09-28T14:16:42Z</time>
      </trkpt>
      <trkpt lat="44.60348" lon="6.02104">
        <ele>1206.59</ele>
        <time>2015-09-28T14:16:59Z</time>
      </trkpt>
      <trkpt lat="44.60337" lon="6.02084">
        <ele>1206.59</ele>
        <time>2015-09-28T14:17:17Z</time>
      </trkpt>
      <trkpt lat="44.60319" lon="6.02073">
        <ele>1206.59</ele>
        <time>2015-09-28T14:17:36Z</time>
      </trkpt>
      <trkpt lat="44.60314" lon="6.02072">
        <ele>1206.11</ele>
        <time>2015-09-28T14:17:42Z</time>
      </trkpt>
      <trkpt lat="44.60306" lon="6.02074">
        <ele>1206.11</ele>
        <time>2015-09-28T14:17:52Z</time>
      </trkpt>
      <trkpt lat="44.60286" lon="6.02063">
        <ele>1205.15</ele>
        <time>2015-09-28T14:18:12Z</time>
      </trkpt>
      <trkpt lat="44.6027" lon="6.02047">
        <ele>1204.19</ele>
        <time>2015-09-28T14:18:31Z</time>
      </trkpt>
      <trkpt lat="44.60252" lon="6.02033">
        <ele>1202.75</ele>
        <time>2015-09-28T14:18:52Z</time>
      </trkpt>
      <trkpt lat="44.60234" lon="6.02021">
        <ele>1201.79</ele>
        <time>2015-09-28T14:19:12Z</time>
      </trkpt>
      <trkpt lat="44.60218" lon="6.02011">
        <ele>1200.82</ele>
        <time>2015-09-28T14:19:31Z</time>
      </trkpt>
      <trkpt lat="44.60201" lon="6.02001">
        <ele>1199.86</ele>
        <time>2015-09-28T14:19:50Z</time>
      </trkpt>
      <trkpt lat="44.60185" lon="6.01989">
        <ele>1198.9</ele>
        <time>2015-09-28T14:20:09Z</time>
      </trkpt>
      <trkpt lat="44.60172" lon="6.01975">
        <ele>1198.42</ele>
        <time>2015-09-28T14:20:26Z</time>
      </trkpt>
      <trkpt lat="44.60159" lon="6.01958">
        <ele>1198.42</ele>
        <time>2015-09-28T14:20:43Z</time>
      </trkpt>
      <trkpt lat="44.60145" lon="6.01945">
        <ele>1199.38</ele>
        <time>2015-09-28T14:20:59Z</time>
      </trkpt>
      <trkpt lat="44.60135" lon="6.01937">
        <ele>1198.42</ele>
        <time>2015-09-28T14:21:10Z</time>
      </trkpt>
      <trkpt lat="44.60119" lon="6.01924">
        <ele>1197.94</ele>
        <time>2015-09-28T14:21:27Z</time>
      </trkpt>
      <trkpt lat="44.60102" lon="6.01914">
        <ele>1197.94</ele>
        <time>2015-09-28T14:21:45Z</time>
      </trkpt>
      <trkpt lat="44.60092" lon="6.01905">
        <ele>1197.94</ele>
        <time>2015-09-28T14:21:58Z</time>
      </trkpt>
      <trkpt lat="44.60076" lon="6.01892">
        <ele>1196.98</ele>
        <time>2015-09-28T14:22:16Z</time>
      </trkpt>
      <trkpt lat="44.60062" lon="6.01876">
        <ele>1196.98</ele>
        <time>2015-09-28T14:22:34Z</time>
      </trkpt>
      <trkpt lat="44.60049" lon="6.01856">
        <ele>1196.5</ele>
        <time>2015-09-28T14:22:52Z</time>
      </trkpt>
      <trkpt lat="44.60039" lon="6.01835">
        <ele>1196.5</ele>
        <time>2015-09-28T14:23:10Z</time>
      </trkpt>
      <trkpt lat="44.60031" lon="6.01814">
        <ele>1196.02</ele>
        <time>2015-09-28T14:23:26Z</time>
      </trkpt>
      <trkpt lat="44.60021" lon="6.01794">
        <ele>1196.02</ele>
        <time>2015-09-28T14:23:43Z</time>
      </trkpt>
      <trkpt lat="44.60007" lon="6.01776">
        <ele>1195.54</ele>
        <time>2015-09-28T14:24:01Z</time>
      </trkpt>
      <trkpt lat="44.59997" lon="6.01755">
        <ele>1195.06</ele>
        <time>2015-09-28T14:24:18Z</time>
      </trkpt>
      <trkpt lat="44.59988" lon="6.01735">
        <ele>1195.06</ele>
        <time>2015-09-28T14:24:34Z</time>
      </trkpt>
      <trkpt lat="44.59982" lon="6.0171">
        <ele>1194.58</ele>
        <time>2015-09-28T14:24:52Z</time>
      </trkpt>
      <trkpt lat="44.59981" lon="6.01707">
        <ele>1194.58</ele>
        <time>2015-09-28T14:24:54Z</time>
      </trkpt>
      <trkpt lat="44.59979" lon="6.01679">
        <ele>1193.61</ele>
        <time>2015-09-28T14:25:12Z</time>
      </trkpt>
      <trkpt lat="44.59976" lon="6.01667">
        <ele>1193.13</ele>
        <time>2015-09-28T14:25:21Z</time>
      </trkpt>
      <trkpt lat="44.59971" lon="6.01658">
        <ele>1193.13</ele>
        <time>2015-09-28T14:25:31Z</time>
      </trkpt>
      <trkpt lat="44.59957" lon="6.01653">
        <ele>1192.65</ele>
        <time>2015-09-28T14:25:45Z</time>
      </trkpt>
      <trkpt lat="44.59938" lon="6.01645">
        <ele>1192.65</ele>
        <time>2015-09-28T14:26:04Z</time>
      </trkpt>
      <trkpt lat="44.5992" lon="6.01633">
        <ele>1192.17</ele>
        <time>2015-09-28T14:26:23Z</time>
      </trkpt>
      <trkpt lat="44.59906" lon="6.01615">
        <ele>1190.73</ele>
        <time>2015-09-28T14:26:42Z</time>
      </trkpt>
      <trkpt lat="44.59893" lon="6.01599">
        <ele>1190.25</ele>
        <time>2015-09-28T14:26:59Z</time>
      </trkpt>
      <trkpt lat="44.59892" lon="6.01598">
        <ele>1190.25</ele>
        <time>2015-09-28T14:27:00Z</time>
      </trkpt>
      <trkpt lat="44.59875" lon="6.01584">
        <ele>1189.29</ele>
        <time>2015-09-28T14:27:20Z</time>
      </trkpt>
      <trkpt lat="44.59857" lon="6.0157">
        <ele>1187.85</ele>
        <time>2015-09-28T14:27:40Z</time>
      </trkpt>
      <trkpt lat="44.59848" lon="6.0156">
        <ele>1186.88</ele>
        <time>2015-09-28T14:27:52Z</time>
      </trkpt>
      <trkpt lat="44.59846" lon="6.01556">
        <ele>1187.37</ele>
        <time>2015-09-28T14:27:55Z</time>
      </trkpt>
      <trkpt lat="44.59845" lon="6.01554">
        <ele>1187.37</ele>
        <time>2015-09-28T14:27:57Z</time>
      </trkpt>
      <trkpt lat="44.59834" lon="6.01533">
        <ele>1185.92</ele>
        <time>2015-09-28T14:28:15Z</time>
      </trkpt>
      <trkpt lat="44.59832" lon="6.0153">
        <ele>1185.92</ele>
        <time>2015-09-28T14:28:17Z</time>
      </trkpt>
      <trkpt lat="44.59827" lon="6.01515">
        <ele>1184.96</ele>
        <time>2015-09-28T14:28:29Z</time>
      </trkpt>
      <trkpt lat="44.5982" lon="6.01489">
        <ele>1184.48</ele>
        <time>2015-09-28T14:28:49Z</time>
      </trkpt>
      <trkpt lat="44.59805" lon="6.01474">
        <ele>1183.52</ele>
        <time>2015-09-28T14:29:07Z</time>
      </trkpt>
      <trkpt lat="44.59793" lon="6.01453">
        <ele>1183.04</ele>
        <time>2015-09-28T14:29:25Z</time>
      </trkpt>
      <trkpt lat="44.59781" lon="6.01439">
        <ele>1182.56</ele>
        <time>2015-09-28T14:29:40Z</time>
      </trkpt>
      <trkpt lat="44.59763" lon="6.01423">
        <ele>1181.6</ele>
        <time>2015-09-28T14:30:01Z</time>
      </trkpt>
      <trkpt lat="44.59746" lon="6.01406">
        <ele>1181.12</ele>
        <time>2015-09-28T14:30:21Z</time>
      </trkpt>
      <trkpt lat="44.59733" lon="6.01384">
        <ele>1179.67</ele>
        <time>2015-09-28T14:30:40Z</time>
      </trkpt>
      <trkpt lat="44.59723" lon="6.01359">
        <ele>1178.71</ele>
        <time>2015-09-28T14:31:00Z</time>
      </trkpt>
      <trkpt lat="44.5972" lon="6.01353">
        <ele>1178.23</ele>
        <time>2015-09-28T14:31:06Z</time>
      </trkpt>
      <trkpt lat="44.59704" lon="6.01337">
        <ele>1176.79</ele>
        <time>2015-09-28T14:31:25Z</time>
      </trkpt>
      <trkpt lat="44.59688" lon="6.01318">
        <ele>1175.35</ele>
        <time>2015-09-28T14:31:45Z</time>
      </trkpt>
      <trkpt lat="44.5967" lon="6.01299">
        <ele>1172.95</ele>
        <time>2015-09-28T14:32:07Z</time>
      </trkpt>
      <trkpt lat="44.59652" lon="6.0128">
        <ele>1171.02</ele>
        <time>2015-09-28T14:32:27Z</time>
      </trkpt>
      <trkpt lat="44.59637" lon="6.0126">
        <ele>1170.54</ele>
        <time>2015-09-28T14:32:47Z</time>
      </trkpt>
      <trkpt lat="44.59629" lon="6.01242">
        <ele>1170.06</ele>
        <time>2015-09-28T14:33:01Z</time>
      </trkpt>
      <trkpt lat="44.59624" lon="6.01218">
        <ele>1169.58</ele>
        <time>2015-09-28T14:33:18Z</time>
      </trkpt>
      <trkpt lat="44.59619" lon="6.01195">
        <ele>1169.58</ele>
        <time>2015-09-28T14:33:35Z</time>
      </trkpt>
      <trkpt lat="44.59615" lon="6.01181">
        <ele>1169.1</ele>
        <time>2015-09-28T14:33:48Z</time>
      </trkpt>
      <trkpt lat="44.59614" lon="6.01176">
        <ele>1169.1</ele>
        <time>2015-09-28T14:33:52Z</time>
      </trkpt>
      <trkpt lat="44.59611" lon="6.01167">
        <ele>1169.1</ele>
        <time>2015-09-28T14:34:09Z</time>
      </trkpt>
      <trkpt lat="44.59609" lon="6.01155">
        <ele>1169.1</ele>
        <time>2015-09-28T14:34:24Z</time>
      </trkpt>
      <trkpt lat="44.59608" lon="6.01158">
        <ele>1169.1</ele>
        <time>2015-09-28T14:34:47Z</time>
      </trkpt>
      <trkpt lat="44.59608" lon="6.01144">
        <ele>1168.62</ele>
        <time>2015-09-28T14:35:00Z</time>
      </trkpt>
      <trkpt lat="44.59609" lon="6.01139">
        <ele>1168.14</ele>
        <time>2015-09-28T14:35:04Z</time>
      </trkpt>
      <trkpt lat="44.59606" lon="6.0113">
        <ele>1168.62</ele>
        <time>2015-09-28T14:35:20Z</time>
      </trkpt>
      <trkpt lat="44.59605" lon="6.01134">
        <ele>1168.62</ele>
        <time>2015-09-28T14:35:40Z</time>
      </trkpt>
      <trkpt lat="44.59607" lon="6.01125">
        <ele>1168.62</ele>
        <time>2015-09-28T14:36:10Z</time>
      </trkpt>
      <trkpt lat="44.59607" lon="6.01108">
        <ele>1170.06</ele>
        <time>2015-09-28T14:36:22Z</time>
      </trkpt>
      <trkpt lat="44.59605" lon="6.01096">
        <ele>1170.54</ele>
        <time>2015-09-28T14:36:31Z</time>
      </trkpt>
      <trkpt lat="44.59601" lon="6.01075">
        <ele>1171.02</ele>
        <time>2015-09-28T14:36:47Z</time>
      </trkpt>
      <trkpt lat="44.596" lon="6.01074">
        <ele>1171.5</ele>
        <time>2015-09-28T14:36:48Z</time>
      </trkpt>
      <trkpt lat="44.596" lon="6.01072">
        <ele>1171.5</ele>
        <time>2015-09-28T14:36:50Z</time>
      </trkpt>
      <trkpt lat="44.59597" lon="6.0105">
        <ele>1171.98</ele>
        <time>2015-09-28T14:37:06Z</time>
      </trkpt>
      <trkpt lat="44.59594" lon="6.01033">
        <ele>1172.95</ele>
        <time>2015-09-28T14:37:20Z</time>
      </trkpt>
      <trkpt lat="44.5959" lon="6.0102">
        <ele>1173.43</ele>
        <time>2015-09-28T14:37:33Z</time>
      </trkpt>
      <trkpt lat="44.59587" lon="6.01015">
        <ele>1173.91</ele>
        <time>2015-09-28T14:37:38Z</time>
      </trkpt>
      <trkpt lat="44.59581" lon="6.01007">
        <ele>1174.39</ele>
        <time>2015-09-28T14:37:47Z</time>
      </trkpt>
      <trkpt lat="44.5957" lon="6.00989">
        <ele>1175.35</ele>
        <time>2015-09-28T14:38:04Z</time>
      </trkpt>
      <trkpt lat="44.59564" lon="6.00977">
        <ele>1176.31</ele>
        <time>2015-09-28T14:38:17Z</time>
      </trkpt>
      <trkpt lat="44.59564" lon="6.00973">
        <ele>1176.79</ele>
        <time>2015-09-28T14:38:20Z</time>
      </trkpt>
      <trkpt lat="44.59564" lon="6.00957">
        <ele>1177.75</ele>
        <time>2015-09-28T14:38:32Z</time>
      </trkpt>
      <trkpt lat="44.59562" lon="6.00949">
        <ele>1178.23</ele>
        <time>2015-09-28T14:38:44Z</time>
      </trkpt>
      <trkpt lat="44.59558" lon="6.00933">
        <ele>1179.19</ele>
        <time>2015-09-28T14:38:57Z</time>
      </trkpt>
      <trkpt lat="44.59555" lon="6.0093">
        <ele>1178.71</ele>
        <time>2015-09-28T14:39:07Z</time>
      </trkpt>
      <trkpt lat="44.59554" lon="6.00917">
        <ele>1179.67</ele>
        <time>2015-09-28T14:39:18Z</time>
      </trkpt>
      <trkpt lat="44.59552" lon="6.00911">
        <ele>1180.16</ele>
        <time>2015-09-28T14:39:22Z</time>
      </trkpt>
      <trkpt lat="44.59551" lon="6.00908">
        <ele>1180.16</ele>
        <time>2015-09-28T14:39:24Z</time>
      </trkpt>
      <trkpt lat="44.59545" lon="6.00894">
        <ele>1181.12</ele>
        <time>2015-09-28T14:39:35Z</time>
      </trkpt>
      <trkpt lat="44.59546" lon="6.00892">
        <ele>1181.12</ele>
        <time>2015-09-28T14:39:45Z</time>
      </trkpt>
      <trkpt lat="44.59542" lon="6.00879">
        <ele>1182.08</ele>
        <time>2015-09-28T14:39:59Z</time>
      </trkpt>
      <trkpt lat="44.5954" lon="6.00873">
        <ele>1183.04</ele>
        <time>2015-09-28T14:40:05Z</time>
      </trkpt>
      <trkpt lat="44.59535" lon="6.00853">
        <ele>1184</ele>
        <time>2015-09-28T14:40:19Z</time>
      </trkpt>
      <trkpt lat="44.59532" lon="6.00838">
        <ele>1185.44</ele>
        <time>2015-09-28T14:40:32Z</time>
      </trkpt>
      <trkpt lat="44.59527" lon="6.00823">
        <ele>1186.88</ele>
        <time>2015-09-28T14:40:44Z</time>
      </trkpt>
      <trkpt lat="44.59528" lon="6.0082">
        <ele>1187.37</ele>
        <time>2015-09-28T14:40:47Z</time>
      </trkpt>
      <trkpt lat="44.59527" lon="6.00817">
        <ele>1187.85</ele>
        <time>2015-09-28T14:41:01Z</time>
      </trkpt>
      <trkpt lat="44.59527" lon="6.00814">
        <ele>1188.33</ele>
        <time>2015-09-28T14:41:16Z</time>
      </trkpt>
      <trkpt lat="44.59524" lon="6.00817">
        <ele>1188.33</ele>
        <time>2015-09-28T14:41:33Z</time>
      </trkpt>
      <trkpt lat="44.59526" lon="6.00819">
        <ele>1187.85</ele>
        <time>2015-09-28T14:41:44Z</time>
      </trkpt>
      <trkpt lat="44.59526" lon="6.00819">
        <ele>1187.85</ele>
        <time>2015-09-28T14:42:06Z</time>
      </trkpt>
      <trkpt lat="44.59525" lon="6.00821">
        <ele>1187.85</ele>
        <time>2015-09-28T14:42:20Z</time>
      </trkpt>
      <trkpt lat="44.59524" lon="6.0081">
        <ele>1188.33</ele>
        <time>2015-09-28T14:42:31Z</time>
      </trkpt>
      <trkpt lat="44.59522" lon="6.00804">
        <ele>1189.29</ele>
        <time>2015-09-28T14:42:39Z</time>
      </trkpt>
      <trkpt lat="44.59521" lon="6.00798">
        <ele>1190.73</ele>
        <time>2015-09-28T14:42:51Z</time>
      </trkpt>
      <trkpt lat="44.5952" lon="6.00801">
        <ele>1189.77</ele>
        <time>2015-09-28T14:43:10Z</time>
      </trkpt>
      <trkpt lat="44.59519" lon="6.00792">
        <ele>1190.25</ele>
        <time>2015-09-28T14:43:29Z</time>
      </trkpt>
      <trkpt lat="44.59516" lon="6.00788">
        <ele>1190.73</ele>
        <time>2015-09-28T14:43:39Z</time>
      </trkpt>
      <trkpt lat="44.59514" lon="6.00784">
        <ele>1191.21</ele>
        <time>2015-09-28T14:43:42Z</time>
      </trkpt>
      <trkpt lat="44.59512" lon="6.00773">
        <ele>1192.65</ele>
        <time>2015-09-28T14:43:54Z</time>
      </trkpt>
      <trkpt lat="44.5951" lon="6.0077">
        <ele>1192.65</ele>
        <time>2015-09-28T14:43:57Z</time>
      </trkpt>
      <trkpt lat="44.59506" lon="6.00763">
        <ele>1193.61</ele>
        <time>2015-09-28T14:44:04Z</time>
      </trkpt>
      <trkpt lat="44.59505" lon="6.00761">
        <ele>1194.09</ele>
        <time>2015-09-28T14:44:07Z</time>
      </trkpt>
      <trkpt lat="44.59494" lon="6.00748">
        <ele>1195.54</ele>
        <time>2015-09-28T14:44:21Z</time>
      </trkpt>
      <trkpt lat="44.59483" lon="6.00739">
        <ele>1196.5</ele>
        <time>2015-09-28T14:44:35Z</time>
      </trkpt>
      <trkpt lat="44.59479" lon="6.00736">
        <ele>1196.98</ele>
        <time>2015-09-28T14:44:46Z</time>
      </trkpt>
      <trkpt lat="44.59475" lon="6.00734">
        <ele>1196.98</ele>
        <time>2015-09-28T14:45:01Z</time>
      </trkpt>
      <trkpt lat="44.59474" lon="6.00731">
        <ele>1196.98</ele>
        <time>2015-09-28T14:45:04Z</time>
      </trkpt>
      <trkpt lat="44.59465" lon="6.00716">
        <ele>1197.46</ele>
        <time>2015-09-28T14:45:18Z</time>
      </trkpt>
      <trkpt lat="44.5946" lon="6.00699">
        <ele>1197.94</ele>
        <time>2015-09-28T14:45:34Z</time>
      </trkpt>
      <trkpt lat="44.59452" lon="6.00692">
        <ele>1197.94</ele>
        <time>2015-09-28T14:45:47Z</time>
      </trkpt>
      <trkpt lat="44.59441" lon="6.0069">
        <ele>1197.46</ele>
        <time>2015-09-28T14:46:03Z</time>
      </trkpt>
      <trkpt lat="44.59441" lon="6.0069">
        <ele>1197.46</ele>
        <time>2015-09-28T14:46:26Z</time>
      </trkpt>
    </trkseg>
  </trk>
</gpx>